dateAir_TemperaturedateAir_PressuredateRadiationdateWind_DirectiondateWind_SpeeddateRelative_HumiditydateDew_Point_TempdateVirtual_TempdateEvaporationdatePrecipitation
1/7/2017 14:0030.11/7/2017 14:00991.11/7/2017 14:005631/7/2017 14:00501/7/2017 14:002.501/7/2017 14:0049.31/7/2017 14:0018.41/7/2017 14:0030.61/7/2017 14:0056.91/7/2017 14:000.0
1/7/2017 15:0030.81/7/2017 15:00990.11/7/2017 15:004891/7/2017 15:00461/7/2017 15:002.201/7/2017 15:0047.51/7/2017 15:0018.41/7/2017 15:0031.21/7/2017 15:0056.91/7/2017 15:000.0
1/7/2017 16:0030.51/7/2017 16:00989.91/7/2017 16:001851/7/2017 16:00731/7/2017 16:002.401/7/2017 16:0048.41/7/2017 16:0018.51/7/2017 16:0031.51/7/2017 16:0048.11/7/2017 16:000.0
1/7/2017 17:0030.01/7/2017 17:00990.21/7/2017 17:001181/7/2017 17:00521/7/2017 17:002.601/7/2017 17:0049.21/7/2017 17:0018.31/7/2017 17:0031.31/7/2017 17:004.01/7/2017 17:000.0
1/7/2017 18:0029.01/7/2017 18:00990.71/7/2017 18:00251/7/2017 18:00361/7/2017 18:002.201/7/2017 18:0051.71/7/2017 18:0018.11/7/2017 18:0030.71/7/2017 18:004.51/7/2017 18:000.0
1/7/2017 19:0027.11/7/2017 19:00991.41/7/2017 19:0001/7/2017 19:00441/7/2017 19:001.901/7/2017 19:0058.01/7/2017 19:0018.21/7/2017 19:0029.21/7/2017 19:004.31/7/2017 19:000.0
1/7/2017 20:0025.91/7/2017 20:00992.21/7/2017 20:0001/7/2017 20:00511/7/2017 20:003.401/7/2017 20:0063.51/7/2017 20:0018.51/7/2017 20:0028.01/7/2017 20:004.71/7/2017 20:000.0
1/7/2017 21:0025.11/7/2017 21:00992.71/7/2017 21:0001/7/2017 21:00671/7/2017 21:004.201/7/2017 21:0066.01/7/2017 21:0018.41/7/2017 21:0027.21/7/2017 21:005.01/7/2017 21:000.0
1/7/2017 22:0024.01/7/2017 22:00993.21/7/2017 22:0001/7/2017 22:00801/7/2017 22:002.901/7/2017 22:0070.21/7/2017 22:0018.31/7/2017 22:0026.21/7/2017 22:005.21/7/2017 22:000.0
1/7/2017 23:0023.31/7/2017 23:00993.51/7/2017 23:0001/7/2017 23:00821/7/2017 23:002.601/7/2017 23:0072.61/7/2017 23:0018.21/7/2017 23:0025.51/7/2017 23:005.31/7/2017 23:000.0
1/8/2017 0:0022.71/8/2017 0:00993.21/8/2017 0:0001/8/2017 0:00741/8/2017 0:002.401/8/2017 0:0075.21/8/2017 0:0018.21/8/2017 0:0024.91/8/2017 0:005.51/8/2017 0:000.0
1/8/2017 1:0022.21/8/2017 1:00993.01/8/2017 1:0001/8/2017 1:00741/8/2017 1:002.501/8/2017 1:0077.51/8/2017 1:0018.21/8/2017 1:0024.41/8/2017 1:005.71/8/2017 1:000.0
1/8/2017 2:0021.81/8/2017 2:00992.81/8/2017 2:0001/8/2017 2:00741/8/2017 2:002.201/8/2017 2:0079.71/8/2017 2:0018.21/8/2017 2:0024.01/8/2017 2:005.91/8/2017 2:000.0
1/8/2017 3:0021.41/8/2017 3:00992.41/8/2017 3:0001/8/2017 3:00641/8/2017 3:001.701/8/2017 3:0081.71/8/2017 3:0018.21/8/2017 3:0023.61/8/2017 3:006.01/8/2017 3:000.0
1/8/2017 4:0021.11/8/2017 4:00992.21/8/2017 4:0001/8/2017 4:00561/8/2017 4:001.801/8/2017 4:0082.31/8/2017 4:0018.01/8/2017 4:0023.41/8/2017 4:005.71/8/2017 4:000.0
1/8/2017 5:0020.81/8/2017 5:00992.51/8/2017 5:0001/8/2017 5:00521/8/2017 5:000.801/8/2017 5:0083.11/8/2017 5:0017.91/8/2017 5:0023.21/8/2017 5:005.91/8/2017 5:000.0
1/16/2017 0:0019.51/16/2017 0:00997.81/16/2017 0:0001/16/2017 0:00891/16/2017 0:003.301/16/2017 0:0075.21/16/2017 0:0015.11/16/2017 0:0021.41/16/2017 0:0051.71/16/2017 0:000.0
1/23/2017 16:0026.31/23/2017 16:00999.91/23/2017 16:003911/23/2017 16:00411/23/2017 16:004.501/23/2017 16:0045.41/23/2017 16:0013.61/23/2017 16:0026.81/23/2017 16:0097.71/23/2017 16:000.0
1/23/2017 17:0025.21/23/2017 17:001000.11/23/2017 17:001761/23/2017 17:00441/23/2017 17:004.901/23/2017 17:0048.61/23/2017 17:0013.71/23/2017 17:0026.21/23/2017 17:0098.51/23/2017 17:000.0
1/23/2017 18:0023.51/23/2017 18:001000.81/23/2017 18:00471/23/2017 18:00621/23/2017 18:004.701/23/2017 18:0053.61/23/2017 18:0013.61/23/2017 18:0024.81/23/2017 18:0098.61/23/2017 18:000.0
1/23/2017 19:0021.31/23/2017 19:001001.51/23/2017 19:0001/23/2017 19:00681/23/2017 19:003.801/23/2017 19:0059.51/23/2017 19:0013.21/23/2017 19:0022.91/23/2017 19:0098.41/23/2017 19:000.0
1/23/2017 20:0020.01/23/2017 20:001002.31/23/2017 20:0001/23/2017 20:00591/23/2017 20:002.901/23/2017 20:0063.81/23/2017 20:0013.01/23/2017 20:0021.71/23/2017 20:0098.41/23/2017 20:000.0
1/23/2017 21:0018.71/23/2017 21:001003.01/23/2017 21:0001/23/2017 21:00591/23/2017 21:001.701/23/2017 21:0068.81/23/2017 21:0012.91/23/2017 21:0020.51/23/2017 21:0098.61/23/2017 21:000.0
1/23/2017 22:0017.91/23/2017 22:001003.61/23/2017 22:0001/23/2017 22:00641/23/2017 22:001.401/23/2017 22:0072.11/23/2017 22:0012.91/23/2017 22:0019.91/23/2017 22:0098.61/23/2017 22:000.0
1/23/2017 23:0017.11/23/2017 23:001003.41/23/2017 23:0001/23/2017 23:00671/23/2017 23:001.301/23/2017 23:0075.71/23/2017 23:0012.81/23/2017 23:0019.11/23/2017 23:0098.61/23/2017 23:000.0
1/24/2017 0:0016.31/24/2017 0:001003.11/24/2017 0:0001/24/2017 0:00811/24/2017 0:001.201/24/2017 0:0079.11/24/2017 0:0012.71/24/2017 0:0018.51/24/2017 0:0098.81/24/2017 0:000.0
1/24/2017 1:0015.91/24/2017 1:001002.71/24/2017 1:0001/24/2017 1:00771/24/2017 1:001.101/24/2017 1:0080.91/24/2017 1:0012.71/24/2017 1:0018.21/24/2017 1:0098.61/24/2017 1:000.0
1/24/2017 2:0015.71/24/2017 2:001002.31/24/2017 2:0001/24/2017 2:00541/24/2017 2:001.401/24/2017 2:0081.31/24/2017 2:0012.61/24/2017 2:0017.91/24/2017 2:0098.31/24/2017 2:000.0
1/24/2017 3:0015.51/24/2017 3:001001.71/24/2017 3:0001/24/2017 3:00341/24/2017 3:001.101/24/2017 3:0082.01/24/2017 3:0012.51/24/2017 3:0017.61/24/2017 3:0098.31/24/2017 3:000.0
1/24/2017 4:0015.01/24/2017 4:001001.31/24/2017 4:0001/24/2017 4:00351/24/2017 4:000.901/24/2017 4:0084.41/24/2017 4:0012.51/24/2017 4:0017.51/24/2017 4:0098.51/24/2017 4:000.0
1/24/2017 5:0014.61/24/2017 5:001001.11/24/2017 5:0001/24/2017 5:00361/24/2017 5:001.001/24/2017 5:0086.11/24/2017 5:0012.41/24/2017 5:0017.41/24/2017 5:0098.81/24/2017 5:000.0
1/24/2017 6:0014.61/24/2017 6:001001.51/24/2017 6:0001/24/2017 6:003041/24/2017 6:000.701/24/2017 6:0086.21/24/2017 6:0012.41/24/2017 6:0017.41/24/2017 6:0098.71/24/2017 6:000.0
1/24/2017 7:0014.41/24/2017 7:001001.91/24/2017 7:0051/24/2017 7:002521/24/2017 7:000.701/24/2017 7:0088.41/24/2017 7:0012.61/24/2017 7:0017.41/24/2017 7:0098.91/24/2017 7:000.0
1/24/2017 8:0016.51/24/2017 8:001002.61/24/2017 8:001251/24/2017 8:002731/24/2017 8:000.901/24/2017 8:0083.11/24/2017 8:0013.71/24/2017 8:0018.21/24/2017 8:0098.21/24/2017 8:000.0
1/24/2017 9:0019.91/24/2017 9:001003.01/24/2017 9:003691/24/2017 9:002841/24/2017 9:001.401/24/2017 9:0065.61/24/2017 9:0013.31/24/2017 9:0020.51/24/2017 9:0099.11/24/2017 9:000.0
1/24/2017 10:0022.61/24/2017 10:001003.21/24/2017 10:005781/24/2017 10:00351/24/2017 10:003.401/24/2017 10:0055.51/24/2017 10:0013.31/24/2017 10:0023.21/24/2017 10:0091.91/24/2017 10:000.0
1/24/2017 11:0024.31/24/2017 11:001003.01/24/2017 11:007391/24/2017 11:00531/24/2017 11:004.601/24/2017 11:0051.71/24/2017 11:0013.81/24/2017 11:0025.11/24/2017 11:0099.61/24/2017 11:000.0
1/24/2017 12:0025.91/24/2017 12:001002.01/24/2017 12:008181/24/2017 12:00561/24/2017 12:004.101/24/2017 12:0049.01/24/2017 12:0014.41/24/2017 12:0026.41/24/2017 12:0094.61/24/2017 12:000.0
1/24/2017 13:0027.21/24/2017 13:001000.81/24/2017 13:008281/24/2017 13:00611/24/2017 13:005.401/24/2017 13:0046.61/24/2017 13:0014.81/24/2017 13:0027.81/24/2017 13:0068.91/24/2017 13:000.0
1/24/2017 14:0027.71/24/2017 14:00999.61/24/2017 14:007631/24/2017 14:00561/24/2017 14:005.301/24/2017 14:0046.41/24/2017 14:0015.21/24/2017 14:0028.31/24/2017 14:0057.01/24/2017 14:000.0
1/24/2017 15:0027.91/24/2017 15:00998.81/24/2017 15:006351/24/2017 15:00651/24/2017 15:005.501/24/2017 15:0046.21/24/2017 15:0015.31/24/2017 15:0028.51/24/2017 15:0056.91/24/2017 15:000.0
1/24/2017 16:0027.71/24/2017 16:00998.71/24/2017 16:004431/24/2017 16:00551/24/2017 16:006.001/24/2017 16:0046.81/24/2017 16:0015.41/24/2017 16:0028.41/24/2017 16:0057.01/24/2017 16:000.0
1/24/2017 17:0026.91/24/2017 17:00999.11/24/2017 17:002291/24/2017 17:00571/24/2017 17:006.201/24/2017 17:0049.31/24/2017 17:0015.41/24/2017 17:0027.91/24/2017 17:0057.01/24/2017 17:000.0
1/24/2017 18:0025.31/24/2017 18:00999.71/24/2017 18:00431/24/2017 18:00641/24/2017 18:005.601/24/2017 18:0053.81/24/2017 18:0015.31/24/2017 18:0026.71/24/2017 18:0057.01/24/2017 18:000.0
1/24/2017 19:0023.41/24/2017 19:001000.41/24/2017 19:0001/24/2017 19:00811/24/2017 19:004.501/24/2017 19:0059.31/24/2017 19:0015.11/24/2017 19:0025.11/24/2017 19:0057.01/24/2017 19:000.0
1/24/2017 20:0022.01/24/2017 20:001001.41/24/2017 20:0001/24/2017 20:00861/24/2017 20:002.901/24/2017 20:0064.61/24/2017 20:0015.11/24/2017 20:0023.91/24/2017 20:0057.01/24/2017 20:000.0
1/24/2017 21:0021.01/24/2017 21:001002.21/24/2017 21:0001/24/2017 21:00811/24/2017 21:002.501/24/2017 21:0068.81/24/2017 21:0015.11/24/2017 21:0022.91/24/2017 21:0057.01/24/2017 21:000.0
2/15/2017 2:0017.02/15/2017 2:001004.52/15/2017 2:0002/15/2017 2:003462/15/2017 2:001.102/15/2017 2:0076.52/15/2017 2:0012.92/15/2017 2:0019.62/15/2017 2:0030.82/15/2017 2:000.0
2/16/2017 5:0016.12/16/2017 5:001001.92/16/2017 5:0002/16/2017 5:00402/16/2017 5:001.002/16/2017 5:0083.42/16/2017 5:0013.42/16/2017 5:0019.12/16/2017 5:0038.12/16/2017 5:000.0
2/16/2017 6:0016.12/16/2017 6:001002.02/16/2017 6:0002/16/2017 6:00762/16/2017 6:000.902/16/2017 6:0082.22/16/2017 6:0013.12/16/2017 6:0018.52/16/2017 6:0038.32/16/2017 6:000.0
2/16/2017 7:0015.92/16/2017 7:001002.32/16/2017 7:00182/16/2017 7:00432/16/2017 7:000.502/16/2017 7:0083.72/16/2017 7:0013.22/16/2017 7:0018.52/16/2017 7:0038.42/16/2017 7:000.0
2/16/2017 8:0019.62/16/2017 8:001002.62/16/2017 8:001922/16/2017 8:00442/16/2017 8:001.002/16/2017 8:0069.42/16/2017 8:0013.92/16/2017 8:0019.62/16/2017 8:0038.22/16/2017 8:000.0
2/16/2017 9:0022.22/16/2017 9:001002.82/16/2017 9:004482/16/2017 9:00462/16/2017 9:004.702/16/2017 9:0058.72/16/2017 9:0013.82/16/2017 9:0023.22/16/2017 9:0039.42/16/2017 9:000.0
2/17/2017 17:0030.12/17/2017 17:00996.42/17/2017 17:002892/17/2017 17:00662/17/2017 17:004.902/17/2017 17:0034.12/17/2017 17:0012.62/17/2017 17:0030.52/17/2017 17:0051.42/17/2017 17:000.0
2/17/2017 18:0028.52/17/2017 18:00996.92/17/2017 18:00732/17/2017 18:00602/17/2017 18:005.402/17/2017 18:0038.52/17/2017 18:0013.12/17/2017 18:0029.52/17/2017 18:0052.32/17/2017 18:000.0
2/17/2017 19:0026.22/17/2017 19:00997.72/17/2017 19:0002/17/2017 19:00612/17/2017 19:004.802/17/2017 19:0044.62/17/2017 19:0013.32/17/2017 19:0027.72/17/2017 19:0052.12/17/2017 19:000.0
2/17/2017 20:0024.72/17/2017 20:00998.82/17/2017 20:0002/17/2017 20:00662/17/2017 20:004.902/17/2017 20:0048.32/17/2017 20:0013.12/17/2017 20:0026.22/17/2017 20:0052.32/17/2017 20:000.0
2/17/2017 21:0023.42/17/2017 21:00999.82/17/2017 21:0002/17/2017 21:00722/17/2017 21:004.402/17/2017 21:0051.62/17/2017 21:0012.92/17/2017 21:0025.02/17/2017 21:0052.62/17/2017 21:000.0
2/17/2017 22:0022.42/17/2017 22:001000.32/17/2017 22:0002/17/2017 22:00692/17/2017 22:004.402/17/2017 22:0053.62/17/2017 22:0012.62/17/2017 22:0024.02/17/2017 22:0053.02/17/2017 22:000.0
2/17/2017 23:0021.52/17/2017 23:001000.62/17/2017 23:0002/17/2017 23:00562/17/2017 23:003.402/17/2017 23:0056.32/17/2017 23:0012.52/17/2017 23:0023.22/17/2017 23:0053.02/17/2017 23:000.0
2/18/2017 0:0020.62/18/2017 0:001000.72/18/2017 0:0002/18/2017 0:00742/18/2017 0:002.202/18/2017 0:0058.92/18/2017 0:0012.32/18/2017 0:0022.32/18/2017 0:0053.42/18/2017 0:000.0
2/18/2017 1:0019.32/18/2017 1:001000.72/18/2017 1:0002/18/2017 1:001092/18/2017 1:001.802/18/2017 1:0061.22/18/2017 1:0011.72/18/2017 1:0021.32/18/2017 1:0053.42/18/2017 1:000.0
2/18/2017 2:0017.82/18/2017 2:001000.52/18/2017 2:0002/18/2017 2:001252/18/2017 2:001.502/18/2017 2:0068.22/18/2017 2:0011.92/18/2017 2:0019.92/18/2017 2:0053.12/18/2017 2:000.0
2/18/2017 3:0016.92/18/2017 3:001000.32/18/2017 3:0002/18/2017 3:001312/18/2017 3:001.002/18/2017 3:0072.92/18/2017 3:0012.12/18/2017 3:0019.42/18/2017 3:0053.42/18/2017 3:000.0
2/18/2017 4:0016.22/18/2017 4:001000.12/18/2017 4:0002/18/2017 4:00892/18/2017 4:000.702/18/2017 4:0076.42/18/2017 4:0012.12/18/2017 4:0018.92/18/2017 4:0053.12/18/2017 4:000.0
2/18/2017 5:0015.12/18/2017 5:00999.92/18/2017 5:0002/18/2017 5:001352/18/2017 5:001.102/18/2017 5:0081.72/18/2017 5:0012.12/18/2017 5:0018.12/18/2017 5:0053.42/18/2017 5:000.0
2/18/2017 6:0014.52/18/2017 6:001000.22/18/2017 6:0002/18/2017 6:001182/18/2017 6:001.102/18/2017 6:0085.82/18/2017 6:0012.22/18/2017 6:0017.62/18/2017 6:0053.22/18/2017 6:000.0
2/18/2017 7:0014.92/18/2017 7:001000.72/18/2017 7:00192/18/2017 7:00612/18/2017 7:000.802/18/2017 7:0085.82/18/2017 7:0012.62/18/2017 7:0017.72/18/2017 7:0053.12/18/2017 7:000.0
2/18/2017 8:0018.82/18/2017 8:001001.32/18/2017 8:001932/18/2017 8:00152/18/2017 8:001.002/18/2017 8:0069.02/18/2017 8:0013.12/18/2017 8:0019.32/18/2017 8:0053.22/18/2017 8:000.0
2/18/2017 9:0022.42/18/2017 9:001001.92/18/2017 9:004472/18/2017 9:00512/18/2017 9:004.002/18/2017 9:0055.62/18/2017 9:0013.22/18/2017 9:0023.22/18/2017 9:0054.62/18/2017 9:000.0
2/18/2017 10:0024.62/18/2017 10:001002.32/18/2017 10:006742/18/2017 10:00452/18/2017 10:005.402/18/2017 10:0047.52/18/2017 10:0012.82/18/2017 10:0025.32/18/2017 10:0054.92/18/2017 10:000.0
2/18/2017 11:0026.12/18/2017 11:001002.12/18/2017 11:008362/18/2017 11:00422/18/2017 11:005.402/18/2017 11:0043.92/18/2017 11:0012.92/18/2017 11:0026.62/18/2017 11:0054.82/18/2017 11:000.0
2/18/2017 12:0027.52/18/2017 12:001001.02/18/2017 12:009132/18/2017 12:00442/18/2017 12:004.402/18/2017 12:0040.92/18/2017 12:0013.12/18/2017 12:0027.82/18/2017 12:0055.22/18/2017 12:000.0
2/18/2017 13:0028.62/18/2017 13:00999.72/18/2017 13:009152/18/2017 13:00452/18/2017 13:005.102/18/2017 13:0037.92/18/2017 13:0012.92/18/2017 13:0029.02/18/2017 13:0055.92/18/2017 13:000.0
2/18/2017 14:0029.12/18/2017 14:00998.52/18/2017 14:008192/18/2017 14:00512/18/2017 14:005.402/18/2017 14:0037.62/18/2017 14:0013.22/18/2017 14:0029.52/18/2017 14:0056.52/18/2017 14:000.0
2/18/2017 15:0029.42/18/2017 15:00997.62/18/2017 15:007082/18/2017 15:00592/18/2017 15:005.502/18/2017 15:0036.62/18/2017 15:0013.12/18/2017 15:0029.72/18/2017 15:0057.22/18/2017 15:000.0
2/18/2017 16:0029.42/18/2017 16:00997.22/18/2017 16:005162/18/2017 16:00642/18/2017 16:005.602/18/2017 16:0036.22/18/2017 16:0012.92/18/2017 16:0029.82/18/2017 16:0058.22/18/2017 16:000.0
2/18/2017 17:0029.12/18/2017 17:00997.42/18/2017 17:002852/18/2017 17:00632/18/2017 17:005.202/18/2017 17:0036.42/18/2017 17:0012.72/18/2017 17:0029.62/18/2017 17:0059.42/18/2017 17:000.0
2/18/2017 18:0027.92/18/2017 18:00997.92/18/2017 18:00712/18/2017 18:00602/18/2017 18:004.602/18/2017 18:0039.02/18/2017 18:0012.72/18/2017 18:0028.92/18/2017 18:0060.12/18/2017 18:000.0
2/18/2017 19:0025.92/18/2017 19:00998.52/18/2017 19:0002/18/2017 19:00542/18/2017 19:003.602/18/2017 19:0043.32/18/2017 19:0012.52/18/2017 19:0027.42/18/2017 19:0059.92/18/2017 19:000.0
2/18/2017 20:0024.52/18/2017 20:00999.22/18/2017 20:0002/18/2017 20:00642/18/2017 20:004.302/18/2017 20:0050.42/18/2017 20:0013.62/18/2017 20:0026.12/18/2017 20:0060.12/18/2017 20:000.0
2/18/2017 21:0023.32/18/2017 21:001000.22/18/2017 21:0002/18/2017 21:00702/18/2017 21:004.902/18/2017 21:0057.72/18/2017 21:0014.62/18/2017 21:0025.12/18/2017 21:0060.12/18/2017 21:000.0
2/18/2017 22:0022.02/18/2017 22:001000.82/18/2017 22:0002/18/2017 22:00692/18/2017 22:004.202/18/2017 22:0063.92/18/2017 22:0014.92/18/2017 22:0023.82/18/2017 22:0060.62/18/2017 22:000.0
2/18/2017 23:0021.12/18/2017 23:001000.82/18/2017 23:0002/18/2017 23:00692/18/2017 23:003.502/18/2017 23:0066.42/18/2017 23:0014.72/18/2017 23:0022.92/18/2017 23:0060.62/18/2017 23:000.0
2/19/2017 0:0020.22/19/2017 0:001000.62/19/2017 0:0002/19/2017 0:00662/19/2017 0:002.702/19/2017 0:0069.22/19/2017 0:0014.42/19/2017 0:0022.12/19/2017 0:0060.92/19/2017 0:000.0
2/19/2017 1:0019.52/19/2017 1:001000.12/19/2017 1:0002/19/2017 1:00592/19/2017 1:002.202/19/2017 1:0070.02/19/2017 1:0014.02/19/2017 1:0021.52/19/2017 1:0060.72/19/2017 1:000.0
2/19/2017 2:0018.82/19/2017 2:00999.52/19/2017 2:0002/19/2017 2:00582/19/2017 2:001.802/19/2017 2:0072.12/19/2017 2:0013.72/19/2017 2:0020.72/19/2017 2:0061.02/19/2017 2:000.0
2/19/2017 3:0017.92/19/2017 3:00999.02/19/2017 3:0002/19/2017 3:00932/19/2017 3:001.502/19/2017 3:0074.92/19/2017 3:0013.52/19/2017 3:0020.02/19/2017 3:0060.82/19/2017 3:000.0
2/19/2017 4:0016.92/19/2017 4:00998.52/19/2017 4:0002/19/2017 4:001122/19/2017 4:001.302/19/2017 4:0079.52/19/2017 4:0013.42/19/2017 4:0019.22/19/2017 4:0061.12/19/2017 4:000.0
2/19/2017 5:0015.92/19/2017 5:00998.32/19/2017 5:0002/19/2017 5:001632/19/2017 5:000.802/19/2017 5:0083.22/19/2017 5:0013.12/19/2017 5:0018.62/19/2017 5:0060.72/19/2017 5:000.0
2/19/2017 6:0014.82/19/2017 6:00998.72/19/2017 6:0002/19/2017 6:001452/19/2017 6:001.102/19/2017 6:0086.92/19/2017 6:0012.72/19/2017 6:0017.82/19/2017 6:0061.02/19/2017 6:000.0
2/19/2017 7:0014.52/19/2017 7:00999.32/19/2017 7:00162/19/2017 7:001412/19/2017 7:000.902/19/2017 7:0088.92/19/2017 7:0012.82/19/2017 7:0017.12/19/2017 7:0060.72/19/2017 7:000.0
2/19/2017 8:0018.42/19/2017 8:00999.62/19/2017 8:001932/19/2017 8:001092/19/2017 8:001.302/19/2017 8:0074.72/19/2017 8:0013.92/19/2017 8:0018.82/19/2017 8:0060.72/19/2017 8:000.0
2/19/2017 9:0022.32/19/2017 9:00999.72/19/2017 9:004452/19/2017 9:00542/19/2017 9:002.902/19/2017 9:0058.72/19/2017 9:0013.92/19/2017 9:0023.02/19/2017 9:0062.02/19/2017 9:000.0
2/19/2017 10:0024.42/19/2017 10:00999.82/19/2017 10:006702/19/2017 10:00532/19/2017 10:004.002/19/2017 10:0049.62/19/2017 10:0013.22/19/2017 10:0025.12/19/2017 10:0062.22/19/2017 10:000.0
2/19/2017 11:0026.52/19/2017 11:00999.12/19/2017 11:008302/19/2017 11:00632/19/2017 11:004.002/19/2017 11:0042.22/19/2017 11:0012.72/19/2017 11:0026.92/19/2017 11:0062.52/19/2017 11:000.0
2/19/2017 12:0028.32/19/2017 12:00997.82/19/2017 12:009092/19/2017 12:00582/19/2017 12:002.502/19/2017 12:0036.72/19/2017 12:0012.22/19/2017 12:0028.22/19/2017 12:0062.72/19/2017 12:000.0
2/19/2017 13:0030.02/19/2017 13:00996.22/19/2017 13:009122/19/2017 13:002692/19/2017 13:002.202/19/2017 13:0033.92/19/2017 13:0012.42/19/2017 13:0029.72/19/2017 13:0063.12/19/2017 13:000.0
2/19/2017 14:0030.52/19/2017 14:00994.72/19/2017 14:008452/19/2017 14:003002/19/2017 14:003.202/19/2017 14:0032.72/19/2017 14:0012.32/19/2017 14:0030.32/19/2017 14:0063.62/19/2017 14:000.0
2/19/2017 15:0031.52/19/2017 15:00993.42/19/2017 15:007092/19/2017 15:003262/19/2017 15:002.402/19/2017 15:0031.32/19/2017 15:0012.52/19/2017 15:0031.02/19/2017 15:0064.22/19/2017 15:000.0
2/19/2017 16:0032.22/19/2017 16:00992.42/19/2017 16:005072/19/2017 16:003392/19/2017 16:002.002/19/2017 16:0029.52/19/2017 16:0012.22/19/2017 16:0031.52/19/2017 16:0065.22/19/2017 16:000.0
2/19/2017 17:0032.52/19/2017 17:00992.02/19/2017 17:002672/19/2017 17:002962/19/2017 17:001.202/19/2017 17:0029.12/19/2017 17:0012.32/19/2017 17:0031.72/19/2017 17:0065.92/19/2017 17:000.0
2/19/2017 18:0031.42/19/2017 18:00992.02/19/2017 18:00592/19/2017 18:00902/19/2017 18:001.102/19/2017 18:0031.12/19/2017 18:0012.42/19/2017 18:0031.42/19/2017 18:0066.32/19/2017 18:000.0
2/19/2017 19:0027.82/19/2017 19:00992.32/19/2017 19:0002/19/2017 19:001432/19/2017 19:001.502/19/2017 19:0038.32/19/2017 19:0012.42/19/2017 19:0029.62/19/2017 19:0065.82/19/2017 19:000.0
2/19/2017 20:0025.02/19/2017 20:00992.92/19/2017 20:0002/19/2017 20:001312/19/2017 20:000.702/19/2017 20:0045.92/19/2017 20:0012.62/19/2017 20:0027.82/19/2017 20:0065.52/19/2017 20:000.0
2/19/2017 21:0022.92/19/2017 21:00993.72/19/2017 21:0002/19/2017 21:001152/19/2017 21:000.702/19/2017 21:0052.72/19/2017 21:0012.82/19/2017 21:0026.22/19/2017 21:0065.62/19/2017 21:000.0
2/19/2017 22:0022.12/19/2017 22:00994.12/19/2017 22:0002/19/2017 22:00642/19/2017 22:000.502/19/2017 22:0055.32/19/2017 22:0012.82/19/2017 22:0025.92/19/2017 22:0065.82/19/2017 22:000.0
2/19/2017 23:0020.42/19/2017 23:00994.32/19/2017 23:0002/19/2017 23:00622/19/2017 23:000.902/19/2017 23:0060.32/19/2017 23:0012.52/19/2017 23:0023.42/19/2017 23:0066.12/19/2017 23:000.0
2/20/2017 0:0019.92/20/2017 0:00994.32/20/2017 0:0002/20/2017 0:001102/20/2017 0:000.402/20/2017 0:0062.42/20/2017 0:0012.62/20/2017 0:0023.02/20/2017 0:0066.12/20/2017 0:000.0
2/20/2017 1:0018.52/20/2017 1:00994.02/20/2017 1:0002/20/2017 1:001162/20/2017 1:000.602/20/2017 1:0069.62/20/2017 1:0012.92/20/2017 1:0022.22/20/2017 1:0066.22/20/2017 1:000.0
2/20/2017 2:0017.72/20/2017 2:00993.62/20/2017 2:0002/20/2017 2:00832/20/2017 2:000.802/20/2017 2:0072.32/20/2017 2:0012.72/20/2017 2:0021.32/20/2017 2:0066.42/20/2017 2:000.0
2/20/2017 3:0017.12/20/2017 3:00993.12/20/2017 3:0002/20/2017 3:001032/20/2017 3:001.402/20/2017 3:0075.22/20/2017 3:0012.72/20/2017 3:0020.22/20/2017 3:0066.42/20/2017 3:000.0
2/20/2017 4:0017.02/20/2017 4:00992.82/20/2017 4:0002/20/2017 4:00722/20/2017 4:001.602/20/2017 4:0076.42/20/2017 4:0012.92/20/2017 4:0020.42/20/2017 4:0066.62/20/2017 4:000.0
2/20/2017 5:0016.72/20/2017 5:00992.82/20/2017 5:0002/20/2017 5:001152/20/2017 5:002.402/20/2017 5:0082.52/20/2017 5:0013.82/20/2017 5:0019.52/20/2017 5:0066.92/20/2017 5:000.0
2/20/2017 6:0016.82/20/2017 6:00993.42/20/2017 6:0002/20/2017 6:001482/20/2017 6:001.002/20/2017 6:0086.52/20/2017 6:0014.62/20/2017 6:0019.42/20/2017 6:0066.92/20/2017 6:000.0
2/20/2017 7:0016.42/20/2017 7:00994.42/20/2017 7:00122/20/2017 7:00752/20/2017 7:001.102/20/2017 7:0087.12/20/2017 7:0014.32/20/2017 7:0019.62/20/2017 7:0067.02/20/2017 7:000.0
2/20/2017 8:0019.52/20/2017 8:00995.22/20/2017 8:001622/20/2017 8:001382/20/2017 8:001.302/20/2017 8:0077.22/20/2017 8:0015.52/20/2017 8:0020.62/20/2017 8:0066.52/20/2017 8:000.0
2/20/2017 9:0023.32/20/2017 9:00995.62/20/2017 9:003912/20/2017 9:00922/20/2017 9:001.802/20/2017 9:0063.12/20/2017 9:0016.02/20/2017 9:0024.12/20/2017 9:0067.42/20/2017 9:000.0
2/20/2017 10:0026.92/20/2017 10:00995.62/20/2017 10:006152/20/2017 10:001032/20/2017 10:002.102/20/2017 10:0049.12/20/2017 10:0015.42/20/2017 10:0027.22/20/2017 10:0068.12/20/2017 10:000.0
2/20/2017 11:0029.42/20/2017 11:00995.12/20/2017 11:007812/20/2017 11:001232/20/2017 11:002.102/20/2017 11:0041.52/20/2017 11:0015.02/20/2017 11:0029.22/20/2017 11:0068.22/20/2017 11:000.0
2/20/2017 12:0031.82/20/2017 12:00994.02/20/2017 12:008662/20/2017 12:001812/20/2017 12:001.802/20/2017 12:0032.82/20/2017 12:0013.52/20/2017 12:0031.02/20/2017 12:0068.52/20/2017 12:000.0
2/20/2017 13:0032.42/20/2017 13:00992.62/20/2017 13:008612/20/2017 13:002362/20/2017 13:002.902/20/2017 13:0031.02/20/2017 13:0013.22/20/2017 13:0032.12/20/2017 13:0069.02/20/2017 13:000.0
2/20/2017 14:0033.22/20/2017 14:00991.32/20/2017 14:008102/20/2017 14:002302/20/2017 14:003.102/20/2017 14:0027.62/20/2017 14:0012.12/20/2017 14:0032.82/20/2017 14:0069.52/20/2017 14:000.0
2/20/2017 15:0034.52/20/2017 15:00990.12/20/2017 15:006782/20/2017 15:002672/20/2017 15:001.802/20/2017 15:0026.92/20/2017 15:0012.82/20/2017 15:0033.62/20/2017 15:0069.92/20/2017 15:000.0
2/23/2017 7:0023.22/23/2017 7:00994.22/23/2017 7:00122/23/2017 7:001042/23/2017 7:001.502/23/2017 7:0082.22/23/2017 7:0020.12/23/2017 7:0026.12/23/2017 7:0083.22/23/2017 7:000.0
2/23/2017 8:0025.12/23/2017 8:00995.12/23/2017 8:001302/23/2017 8:00542/23/2017 8:000.802/23/2017 8:0075.42/23/2017 8:0020.52/23/2017 8:0026.92/23/2017 8:0083.12/23/2017 8:000.0
2/23/2017 9:0028.42/23/2017 9:00995.82/23/2017 9:003402/23/2017 9:00982/23/2017 9:002.802/23/2017 9:0064.02/23/2017 9:0021.02/23/2017 9:0029.92/23/2017 9:0083.82/23/2017 9:000.0
2/23/2017 10:0031.12/23/2017 10:00996.12/23/2017 10:005402/23/2017 10:001222/23/2017 10:002.602/23/2017 10:0055.52/23/2017 10:0021.22/23/2017 10:0032.02/23/2017 10:0084.22/23/2017 10:000.0
2/23/2017 11:0033.12/23/2017 11:00995.82/23/2017 11:006942/23/2017 11:001192/23/2017 11:001.802/23/2017 11:0049.62/23/2017 11:0021.22/23/2017 11:0033.32/23/2017 11:0084.52/23/2017 11:000.0
2/23/2017 12:0034.02/23/2017 12:00994.72/23/2017 12:007652/23/2017 12:002492/23/2017 12:002.402/23/2017 12:0046.92/23/2017 12:0021.12/23/2017 12:0034.52/23/2017 12:0084.92/23/2017 12:000.0
2/23/2017 13:0034.82/23/2017 13:00993.52/23/2017 13:008152/23/2017 13:002502/23/2017 13:002.802/23/2017 13:0043.72/23/2017 13:0020.72/23/2017 13:0035.52/23/2017 13:0085.12/23/2017 13:000.0
2/23/2017 14:0036.02/23/2017 14:00992.22/23/2017 14:007802/23/2017 14:002592/23/2017 14:002.302/23/2017 14:0035.42/23/2017 14:0018.42/23/2017 14:0036.22/23/2017 14:0085.82/23/2017 14:000.0
2/23/2017 15:0037.42/23/2017 15:00991.12/23/2017 15:006292/23/2017 15:002562/23/2017 15:002.002/23/2017 15:0028.52/23/2017 15:0016.22/23/2017 15:0036.92/23/2017 15:0086.82/23/2017 15:000.0
2/23/2017 16:0037.12/23/2017 16:00990.52/23/2017 16:004272/23/2017 16:002652/23/2017 16:001.902/23/2017 16:0031.22/23/2017 16:0017.32/23/2017 16:0037.02/23/2017 16:0052.82/23/2017 16:000.0
2/23/2017 17:0036.62/23/2017 17:00990.42/23/2017 17:002232/23/2017 17:002492/23/2017 17:001.902/23/2017 17:0031.92/23/2017 17:0017.32/23/2017 17:0036.92/23/2017 17:005.32/23/2017 17:000.0
2/23/2017 18:0035.72/23/2017 18:00990.62/23/2017 18:00512/23/2017 18:002012/23/2017 18:001.102/23/2017 18:0035.02/23/2017 18:0017.92/23/2017 18:0036.62/23/2017 18:005.12/23/2017 18:000.0
2/23/2017 19:0033.12/23/2017 19:00991.22/23/2017 19:0002/23/2017 19:00522/23/2017 19:001.302/23/2017 19:0041.52/23/2017 19:0018.42/23/2017 19:0035.42/23/2017 19:005.02/23/2017 19:000.0
2/23/2017 20:0030.22/23/2017 20:00992.62/23/2017 20:0002/23/2017 20:00682/23/2017 20:005.302/23/2017 20:0056.02/23/2017 20:0020.52/23/2017 20:0032.32/23/2017 20:005.42/23/2017 20:000.0
2/23/2017 21:0028.42/23/2017 21:00994.12/23/2017 21:0002/23/2017 21:00742/23/2017 21:006.002/23/2017 21:0061.22/23/2017 21:0020.32/23/2017 21:0030.62/23/2017 21:005.92/23/2017 21:000.0
2/23/2017 22:0027.32/23/2017 22:00995.12/23/2017 22:0002/23/2017 22:00802/23/2017 22:005.002/23/2017 22:0064.82/23/2017 22:0020.22/23/2017 22:0029.52/23/2017 22:006.12/23/2017 22:000.0
2/23/2017 23:0026.52/23/2017 23:00995.72/23/2017 23:0002/23/2017 23:00772/23/2017 23:004.802/23/2017 23:0067.52/23/2017 23:0020.12/23/2017 23:0028.82/23/2017 23:006.52/23/2017 23:000.0
2/24/2017 0:0025.92/24/2017 0:00996.22/24/2017 0:0002/24/2017 0:00902/24/2017 0:003.702/24/2017 0:0069.42/24/2017 0:0019.92/24/2017 0:0028.22/24/2017 0:006.82/24/2017 0:000.0
2/24/2017 1:0025.32/24/2017 1:00996.12/24/2017 1:0002/24/2017 1:00892/24/2017 1:003.202/24/2017 1:0071.22/24/2017 1:0019.82/24/2017 1:0027.72/24/2017 1:006.72/24/2017 1:000.0
2/24/2017 2:0024.92/24/2017 2:00995.92/24/2017 2:0002/24/2017 2:00842/24/2017 2:003.902/24/2017 2:0072.52/24/2017 2:0019.72/24/2017 2:0027.22/24/2017 2:006.82/24/2017 2:000.0
2/24/2017 3:0024.52/24/2017 3:00995.72/24/2017 3:0002/24/2017 3:00772/24/2017 3:003.602/24/2017 3:0073.72/24/2017 3:0019.62/24/2017 3:0026.82/24/2017 3:007.12/24/2017 3:000.0
2/24/2017 4:0024.22/24/2017 4:00995.52/24/2017 4:0002/24/2017 4:00682/24/2017 4:003.202/24/2017 4:0074.02/24/2017 4:0019.32/24/2017 4:0026.52/24/2017 4:007.32/24/2017 4:000.0
2/24/2017 5:0023.82/24/2017 5:00995.62/24/2017 5:0002/24/2017 5:00662/24/2017 5:002.702/24/2017 5:0074.52/24/2017 5:0019.12/24/2017 5:0026.12/24/2017 5:007.42/24/2017 5:000.0
2/24/2017 6:0023.52/24/2017 6:00996.12/24/2017 6:0002/24/2017 6:00722/24/2017 6:002.802/24/2017 6:0074.62/24/2017 6:0018.82/24/2017 6:0025.82/24/2017 6:007.22/24/2017 6:000.0
2/24/2017 7:0023.52/24/2017 7:00996.72/24/2017 7:00142/24/2017 7:00692/24/2017 7:002.802/24/2017 7:0073.82/24/2017 7:0018.62/24/2017 7:0025.72/24/2017 7:007.52/24/2017 7:000.0
2/24/2017 8:0024.42/24/2017 8:00997.52/24/2017 8:001392/24/2017 8:00692/24/2017 8:004.102/24/2017 8:0069.12/24/2017 8:0018.42/24/2017 8:0026.32/24/2017 8:008.32/24/2017 8:000.0
2/24/2017 9:0025.62/24/2017 9:00998.42/24/2017 9:002452/24/2017 9:00702/24/2017 9:005.702/24/2017 9:0062.82/24/2017 9:0018.12/24/2017 9:0027.32/24/2017 9:008.72/24/2017 9:000.0
2/24/2017 10:0026.32/24/2017 10:00999.02/24/2017 10:002552/24/2017 10:00732/24/2017 10:005.902/24/2017 10:0059.02/24/2017 10:0017.72/24/2017 10:0027.92/24/2017 10:008.92/24/2017 10:000.0
2/24/2017 11:0026.82/24/2017 11:00999.12/24/2017 11:003042/24/2017 11:00642/24/2017 11:005.502/24/2017 11:0056.72/24/2017 11:0017.62/24/2017 11:0028.32/24/2017 11:009.22/24/2017 11:000.0
2/24/2017 12:0027.62/24/2017 12:00998.42/24/2017 12:004572/24/2017 12:00692/24/2017 12:005.602/24/2017 12:0054.62/24/2017 12:0017.72/24/2017 12:0028.82/24/2017 12:009.72/24/2017 12:000.0
2/24/2017 13:0028.12/24/2017 13:00997.42/24/2017 13:004632/24/2017 13:00822/24/2017 13:006.302/24/2017 13:0053.32/24/2017 13:0017.82/24/2017 13:0029.42/24/2017 13:009.92/24/2017 13:000.0
2/24/2017 14:0028.52/24/2017 14:00996.22/24/2017 14:006372/24/2017 14:00712/24/2017 14:006.502/24/2017 14:0051.92/24/2017 14:0017.72/24/2017 14:0029.62/24/2017 14:0010.62/24/2017 14:000.0
2/24/2017 15:0029.02/24/2017 15:00995.22/24/2017 15:006222/24/2017 15:00652/24/2017 15:006.002/24/2017 15:0050.52/24/2017 15:0017.82/24/2017 15:0030.12/24/2017 15:0011.32/24/2017 15:000.0
2/24/2017 16:0029.22/24/2017 16:00994.52/24/2017 16:004872/24/2017 16:00612/24/2017 16:006.002/24/2017 16:0049.22/24/2017 16:0017.52/24/2017 16:0030.22/24/2017 16:0012.12/24/2017 16:000.0
2/24/2017 17:0028.02/24/2017 17:00994.42/24/2017 17:002452/24/2017 17:00522/24/2017 17:006.402/24/2017 17:0051.52/24/2017 17:0017.12/24/2017 17:0029.22/24/2017 17:0012.82/24/2017 17:000.0
2/24/2017 18:0026.32/24/2017 18:00994.92/24/2017 18:00862/24/2017 18:00592/24/2017 18:005.902/24/2017 18:0054.82/24/2017 18:0016.62/24/2017 18:0027.82/24/2017 18:0013.22/24/2017 18:000.0
2/24/2017 19:0024.32/24/2017 19:00995.62/24/2017 19:0012/24/2017 19:00622/24/2017 19:005.602/24/2017 19:0059.82/24/2017 19:0016.12/24/2017 19:0026.02/24/2017 19:0013.52/24/2017 19:000.0
2/24/2017 20:0022.82/24/2017 20:00996.82/24/2017 20:0002/24/2017 20:00752/24/2017 20:005.202/24/2017 20:0063.52/24/2017 20:0015.62/24/2017 20:0024.62/24/2017 20:0013.82/24/2017 20:000.0
2/24/2017 21:0021.72/24/2017 21:00997.72/24/2017 21:0002/24/2017 21:00782/24/2017 21:004.602/24/2017 21:0066.62/24/2017 21:0015.32/24/2017 21:0023.52/24/2017 21:0014.22/24/2017 21:000.0
3/16/2017 20:0023.93/16/2017 20:00991.63/16/2017 20:0003/16/2017 20:002933/16/2017 20:001.803/16/2017 20:0085.23/16/2017 20:0021.33/16/2017 20:0026.43/16/2017 20:0039.43/16/2017 20:000.4
3/16/2017 21:0023.33/16/2017 21:00993.13/16/2017 21:0003/16/2017 21:00503/16/2017 21:002.303/16/2017 21:0089.53/16/2017 21:0021.63/16/2017 21:0026.03/16/2017 21:0039.33/16/2017 21:000.1
3/16/2017 22:0023.83/16/2017 22:00993.63/16/2017 22:0003/16/2017 22:00953/16/2017 22:005.103/16/2017 22:0090.83/16/2017 22:0022.33/16/2017 22:0026.53/16/2017 22:0039.23/16/2017 22:000.4
3/16/2017 23:0024.13/16/2017 23:00993.83/16/2017 23:0003/16/2017 23:001163/16/2017 23:004.403/16/2017 23:0089.13/16/2017 23:0022.33/16/2017 23:0026.83/16/2017 23:0039.03/16/2017 23:000.0
3/17/2017 0:0023.33/17/2017 0:00994.53/17/2017 0:0003/17/2017 0:001433/17/2017 0:003.003/17/2017 0:0085.23/17/2017 0:0020.73/17/2017 0:0025.93/17/2017 0:0038.53/17/2017 0:001.6
3/17/2017 1:0022.53/17/2017 1:00993.93/17/2017 1:0003/17/2017 1:00613/17/2017 1:002.803/17/2017 1:0090.03/17/2017 1:0020.93/17/2017 1:0025.23/17/2017 1:0036.63/17/2017 1:001.1
3/17/2017 2:0022.33/17/2017 2:00993.63/17/2017 2:0003/17/2017 2:001553/17/2017 2:001.803/17/2017 2:0092.63/17/2017 2:0021.13/17/2017 2:0024.93/17/2017 2:0035.93/17/2017 2:001.4
3/17/2017 3:0022.03/17/2017 3:00993.03/17/2017 3:0003/17/2017 3:001153/17/2017 3:002.903/17/2017 3:0093.23/17/2017 3:0020.93/17/2017 3:0024.63/17/2017 3:0034.23/17/2017 3:002.6
3/17/2017 4:0021.73/17/2017 4:00992.13/17/2017 4:0003/17/2017 4:00593/17/2017 4:002.403/17/2017 4:0093.83/17/2017 4:0020.73/17/2017 4:0024.33/17/2017 4:0032.93/17/2017 4:000.4
3/17/2017 5:0021.83/17/2017 5:00992.03/17/2017 5:0003/17/2017 5:00663/17/2017 5:001.203/17/2017 5:0093.53/17/2017 5:0020.83/17/2017 5:0024.43/17/2017 5:0032.83/17/2017 5:000.0
3/17/2017 6:0021.73/17/2017 6:00992.83/17/2017 6:0003/17/2017 6:002473/17/2017 6:000.803/17/2017 6:0094.13/17/2017 6:0020.83/17/2017 6:0024.33/17/2017 6:0032.93/17/2017 6:000.0
3/17/2017 7:0021.73/17/2017 7:00993.53/17/2017 7:00113/17/2017 7:00173/17/2017 7:001.303/17/2017 7:0094.63/17/2017 7:0020.93/17/2017 7:0024.33/17/2017 7:0032.93/17/2017 7:000.0
3/17/2017 8:0022.33/17/2017 8:00994.63/17/2017 8:001073/17/2017 8:00353/17/2017 8:001.903/17/2017 8:0091.73/17/2017 8:0021.03/17/2017 8:0024.83/17/2017 8:0032.63/17/2017 8:000.0
3/17/2017 9:0024.33/17/2017 9:00995.33/17/2017 9:003083/17/2017 9:00493/17/2017 9:002.403/17/2017 9:0080.43/17/2017 9:0020.83/17/2017 9:0026.33/17/2017 9:0033.03/17/2017 9:000.0
3/17/2017 10:0026.23/17/2017 10:00995.73/17/2017 10:005003/17/2017 10:00573/17/2017 10:003.003/17/2017 10:0072.73/17/2017 10:0021.03/17/2017 10:0027.93/17/2017 10:0033.33/17/2017 10:000.0
3/17/2017 11:0027.53/17/2017 11:00995.43/17/2017 11:005183/17/2017 11:00943/17/2017 11:002.603/17/2017 11:0065.73/17/2017 11:0020.63/17/2017 11:0028.93/17/2017 11:0033.63/17/2017 11:000.0
3/17/2017 12:0028.83/17/2017 12:00994.73/17/2017 12:005743/17/2017 12:00953/17/2017 12:002.703/17/2017 12:0059.33/17/2017 12:0020.13/17/2017 12:0029.83/17/2017 12:0033.83/17/2017 12:000.0
3/17/2017 13:0029.53/17/2017 13:00993.53/17/2017 13:006493/17/2017 13:00753/17/2017 13:002.503/17/2017 13:0055.23/17/2017 13:0019.63/17/2017 13:0030.63/17/2017 13:0034.13/17/2017 13:000.0
3/17/2017 14:0031.13/17/2017 14:00992.23/17/2017 14:006683/17/2017 14:001173/17/2017 14:001.803/17/2017 14:0051.33/17/2017 14:0019.93/17/2017 14:0031.53/17/2017 14:0034.33/17/2017 14:000.0
3/17/2017 15:0031.33/17/2017 15:00991.03/17/2017 15:004383/17/2017 15:001613/17/2017 15:001.903/17/2017 15:0051.23/17/2017 15:0020.13/17/2017 15:0031.73/17/2017 15:0034.73/17/2017 15:000.0
3/17/2017 16:0031.03/17/2017 16:00989.83/17/2017 16:002943/17/2017 16:001263/17/2017 16:001.503/17/2017 16:0052.13/17/2017 16:0020.13/17/2017 16:0031.83/17/2017 16:0035.23/17/2017 16:000.0
3/17/2017 17:0030.33/17/2017 17:00990.33/17/2017 17:001133/17/2017 17:001723/17/2017 17:001.703/17/2017 17:0055.13/17/2017 17:0020.43/17/2017 17:0031.83/17/2017 17:0035.13/17/2017 17:000.0
3/17/2017 18:0029.03/17/2017 18:00990.63/17/2017 18:00163/17/2017 18:002073/17/2017 18:001.103/17/2017 18:0063.03/17/2017 18:0021.33/17/2017 18:0031.23/17/2017 18:0035.03/17/2017 18:000.0
3/17/2017 19:0027.83/17/2017 19:00990.63/17/2017 19:0003/17/2017 19:00743/17/2017 19:001.003/17/2017 19:0070.13/17/2017 19:0021.93/17/2017 19:0030.63/17/2017 19:0035.33/17/2017 19:000.0
3/17/2017 20:0027.13/17/2017 20:00991.93/17/2017 20:0003/17/2017 20:001373/17/2017 20:001.703/17/2017 20:0075.73/17/2017 20:0022.53/17/2017 20:0030.13/17/2017 20:0035.53/17/2017 20:000.0
3/17/2017 21:0027.03/17/2017 21:00993.23/17/2017 21:0003/17/2017 21:001793/17/2017 21:000.803/17/2017 21:0075.83/17/2017 21:0022.43/17/2017 21:0029.93/17/2017 21:0035.53/17/2017 21:000.0
3/17/2017 22:0026.43/17/2017 22:00993.63/17/2017 22:0003/17/2017 22:002493/17/2017 22:001.003/17/2017 22:0080.93/17/2017 22:0022.93/17/2017 22:0029.53/17/2017 22:0035.43/17/2017 22:000.0
3/17/2017 23:0026.03/17/2017 23:00993.93/17/2017 23:0003/17/2017 23:003383/17/2017 23:001.003/17/2017 23:0083.63/17/2017 23:0023.13/17/2017 23:0028.93/17/2017 23:0035.53/17/2017 23:000.0
3/18/2017 0:0025.83/18/2017 0:00994.23/18/2017 0:0003/18/2017 0:0063/18/2017 0:001.403/18/2017 0:0083.13/18/2017 0:0022.83/18/2017 0:0028.73/18/2017 0:0035.83/18/2017 0:000.0
3/18/2017 1:0025.83/18/2017 1:00994.23/18/2017 1:0003/18/2017 1:00143/18/2017 1:001.203/18/2017 1:0080.83/18/2017 1:0022.33/18/2017 1:0028.73/18/2017 1:0036.13/18/2017 1:000.0
3/18/2017 2:0025.43/18/2017 2:00993.33/18/2017 2:0003/18/2017 2:001093/18/2017 2:002.003/18/2017 2:0083.53/18/2017 2:0022.53/18/2017 2:0028.33/18/2017 2:0036.33/18/2017 2:000.0
3/18/2017 3:0024.63/18/2017 3:00992.63/18/2017 3:0003/18/2017 3:00733/18/2017 3:001.203/18/2017 3:0085.73/18/2017 3:0022.13/18/2017 3:0027.53/18/2017 3:0035.93/18/2017 3:000.0
3/18/2017 4:0024.03/18/2017 4:00992.63/18/2017 4:0003/18/2017 4:003373/18/2017 4:000.703/18/2017 4:0088.63/18/2017 4:0022.13/18/2017 4:0027.03/18/2017 4:0036.13/18/2017 4:000.0
3/18/2017 5:0023.53/18/2017 5:00992.83/18/2017 5:0003/18/2017 5:001923/18/2017 5:000.703/18/2017 5:0091.03/18/2017 5:0022.03/18/2017 5:0026.73/18/2017 5:0036.13/18/2017 5:000.0
3/18/2017 6:0023.03/18/2017 6:00993.43/18/2017 6:0003/18/2017 6:00643/18/2017 6:000.803/18/2017 6:0093.63/18/2017 6:0022.03/18/2017 6:0026.03/18/2017 6:0035.73/18/2017 6:000.0
3/18/2017 7:0023.83/18/2017 7:00994.23/18/2017 7:00463/18/2017 7:002703/18/2017 7:000.703/18/2017 7:0091.53/18/2017 7:0022.43/18/2017 7:0026.53/18/2017 7:0035.93/18/2017 7:000.0
3/18/2017 8:0026.93/18/2017 8:00995.03/18/2017 8:002503/18/2017 8:00533/18/2017 8:000.903/18/2017 8:0077.43/18/2017 8:0022.73/18/2017 8:0027.73/18/2017 8:0036.53/18/2017 8:000.0
3/18/2017 9:0028.53/18/2017 9:00995.33/18/2017 9:004983/18/2017 9:00703/18/2017 9:001.703/18/2017 9:0068.43/18/2017 9:0022.23/18/2017 9:0029.43/18/2017 9:0037.43/18/2017 9:000.0
3/18/2017 10:0029.63/18/2017 10:00995.53/18/2017 10:007063/18/2017 10:00723/18/2017 10:002.203/18/2017 10:0063.73/18/2017 10:0022.13/18/2017 10:0030.63/18/2017 10:0037.53/18/2017 10:000.0
3/18/2017 11:0031.13/18/2017 11:00995.33/18/2017 11:008113/18/2017 11:00863/18/2017 11:002.403/18/2017 11:0058.33/18/2017 11:0022.03/18/2017 11:0032.13/18/2017 11:0037.73/18/2017 11:000.0
3/18/2017 12:0032.43/18/2017 12:00994.73/18/2017 12:006573/18/2017 12:001783/18/2017 12:002.303/18/2017 12:0053.23/18/2017 12:0021.73/18/2017 12:0033.03/18/2017 12:0037.83/18/2017 12:000.0
3/18/2017 13:0033.33/18/2017 13:00993.63/18/2017 13:008173/18/2017 13:001933/18/2017 13:002.403/18/2017 13:0050.23/18/2017 13:0021.63/18/2017 13:0033.83/18/2017 13:0038.23/18/2017 13:000.0
3/18/2017 14:0032.83/18/2017 14:00992.43/18/2017 14:005053/18/2017 14:002293/18/2017 14:002.503/18/2017 14:0050.73/18/2017 14:0021.33/18/2017 14:0033.83/18/2017 14:0038.53/18/2017 14:000.0
3/18/2017 15:0031.83/18/2017 15:00991.53/18/2017 15:001913/18/2017 15:002343/18/2017 15:002.403/18/2017 15:0054.13/18/2017 15:0021.43/18/2017 15:0033.43/18/2017 15:0039.33/18/2017 15:000.0
3/18/2017 16:0027.83/18/2017 16:00990.93/18/2017 16:00673/18/2017 16:001993/18/2017 16:003.403/18/2017 16:0070.93/18/2017 16:0022.13/18/2017 16:0029.73/18/2017 16:0039.63/18/2017 16:000.0
3/18/2017 17:0025.73/18/2017 17:00991.03/18/2017 17:00513/18/2017 17:002553/18/2017 17:002.203/18/2017 17:0077.03/18/2017 17:0021.43/18/2017 17:0028.03/18/2017 17:0039.53/18/2017 17:000.0
3/18/2017 18:0026.83/18/2017 18:00991.43/18/2017 18:00593/18/2017 18:003053/18/2017 18:002.703/18/2017 18:0073.43/18/2017 18:0021.73/18/2017 18:0029.13/18/2017 18:0039.83/18/2017 18:000.0
3/18/2017 19:0026.53/18/2017 19:00991.93/18/2017 19:0003/18/2017 19:002993/18/2017 19:002.003/18/2017 19:0079.33/18/2017 19:0022.73/18/2017 19:0029.13/18/2017 19:0040.43/18/2017 19:000.0
3/18/2017 20:0025.83/18/2017 20:00993.13/18/2017 20:0003/18/2017 20:002283/18/2017 20:002.603/18/2017 20:0083.43/18/2017 20:0022.83/18/2017 20:0028.63/18/2017 20:0039.93/18/2017 20:000.6
3/18/2017 21:0024.93/18/2017 21:00994.53/18/2017 21:0003/18/2017 21:001823/18/2017 21:003.003/18/2017 21:0077.23/18/2017 21:0020.73/18/2017 21:0027.43/18/2017 21:0038.83/18/2017 21:005.1
3/18/2017 22:0023.33/18/2017 22:00995.03/18/2017 22:0003/18/2017 22:001543/18/2017 22:002.603/18/2017 22:0088.43/18/2017 22:0021.33/18/2017 22:0026.23/18/2017 22:0033.13/18/2017 22:002.7
3/18/2017 23:0023.23/18/2017 23:00995.33/18/2017 23:0003/18/2017 23:00243/18/2017 23:001.403/18/2017 23:0087.73/18/2017 23:0021.13/18/2017 23:0026.03/18/2017 23:0033.03/18/2017 23:000.0
3/19/2017 0:0023.13/19/2017 0:00995.73/19/2017 0:0003/19/2017 0:001003/19/2017 0:002.403/19/2017 0:0090.03/19/2017 0:0021.43/19/2017 0:0025.93/19/2017 0:0032.63/19/2017 0:001.3
3/19/2017 1:0022.83/19/2017 1:00994.63/19/2017 1:0003/19/2017 1:00933/19/2017 1:001.403/19/2017 1:0092.63/19/2017 1:0021.63/19/2017 1:0025.63/19/2017 1:0032.23/19/2017 1:000.1
3/19/2017 2:0023.03/19/2017 2:00994.43/19/2017 2:0003/19/2017 2:00873/19/2017 2:002.103/19/2017 2:0091.93/19/2017 2:0021.73/19/2017 2:0025.83/19/2017 2:0031.93/19/2017 2:000.8
3/19/2017 3:0023.03/19/2017 3:00994.13/19/2017 3:0003/19/2017 3:00883/19/2017 3:002.903/19/2017 3:0092.63/19/2017 3:0021.83/19/2017 3:0025.73/19/2017 3:0031.53/19/2017 3:000.0
3/19/2017 4:0022.93/19/2017 4:00994.73/19/2017 4:0003/19/2017 4:001223/19/2017 4:002.603/19/2017 4:0094.43/19/2017 4:0022.03/19/2017 4:0025.53/19/2017 4:0031.53/19/2017 4:000.1
3/19/2017 5:0022.83/19/2017 5:00994.43/19/2017 5:0003/19/2017 5:00593/19/2017 5:002.303/19/2017 5:0094.73/19/2017 5:0022.03/19/2017 5:0025.53/19/2017 5:0031.33/19/2017 5:000.3
3/19/2017 6:0022.63/19/2017 6:00994.83/19/2017 6:0003/19/2017 6:00513/19/2017 6:002.003/19/2017 6:0094.53/19/2017 6:0021.73/19/2017 6:0025.33/19/2017 6:0031.33/19/2017 6:000.0
3/19/2017 7:0022.63/19/2017 7:00995.63/19/2017 7:00163/19/2017 7:00893/19/2017 7:001.803/19/2017 7:0094.43/19/2017 7:0021.73/19/2017 7:0025.23/19/2017 7:0030.83/19/2017 7:001.0
3/19/2017 8:0023.03/19/2017 8:00996.63/19/2017 8:00803/19/2017 8:001283/19/2017 8:001.903/19/2017 8:0093.93/19/2017 8:0022.03/19/2017 8:0025.63/19/2017 8:0029.93/19/2017 8:002.3
3/19/2017 9:0023.83/19/2017 9:00997.03/19/2017 9:002253/19/2017 9:00733/19/2017 9:002.103/19/2017 9:0091.23/19/2017 9:0022.43/19/2017 9:0026.23/19/2017 9:0028.43/19/2017 9:000.0
3/19/2017 10:0025.43/19/2017 10:00997.03/19/2017 10:006223/19/2017 10:001143/19/2017 10:003.003/19/2017 10:0084.73/19/2017 10:0022.73/19/2017 10:0027.13/19/2017 10:0028.73/19/2017 10:000.0
3/19/2017 11:0026.53/19/2017 11:00997.03/19/2017 11:003273/19/2017 11:001403/19/2017 11:002.603/19/2017 11:0079.43/19/2017 11:0022.73/19/2017 11:0028.13/19/2017 11:0029.23/19/2017 11:001.5
3/19/2017 12:0027.13/19/2017 12:00996.73/19/2017 12:006823/19/2017 12:001383/19/2017 12:001.903/19/2017 12:0077.73/19/2017 12:0022.93/19/2017 12:0028.63/19/2017 12:0027.33/19/2017 12:000.0
3/19/2017 13:0028.93/19/2017 13:00995.43/19/2017 13:004913/19/2017 13:001593/19/2017 13:002.203/19/2017 13:0071.83/19/2017 13:0023.43/19/2017 13:0030.43/19/2017 13:0028.03/19/2017 13:000.0
3/19/2017 14:0030.83/19/2017 14:00993.83/19/2017 14:007033/19/2017 14:002003/19/2017 14:002.003/19/2017 14:0065.33/19/2017 14:0023.63/19/2017 14:0031.83/19/2017 14:0028.13/19/2017 14:000.0
3/19/2017 15:0029.43/19/2017 15:00993.23/19/2017 15:001523/19/2017 15:002213/19/2017 15:002.603/19/2017 15:0067.53/19/2017 15:0022.83/19/2017 15:0031.53/19/2017 15:0028.43/19/2017 15:000.0
3/19/2017 16:0028.53/19/2017 16:00992.53/19/2017 16:003433/19/2017 16:002613/19/2017 16:002.103/19/2017 16:0075.33/19/2017 16:0023.83/19/2017 16:0030.43/19/2017 16:0028.23/19/2017 16:000.0
3/19/2017 17:0030.53/19/2017 17:00992.23/19/2017 17:003173/19/2017 17:002403/19/2017 17:001.403/19/2017 17:0066.03/19/2017 17:0023.53/19/2017 17:0031.63/19/2017 17:0028.83/19/2017 17:000.0
3/19/2017 18:0029.73/19/2017 18:00992.43/19/2017 18:00593/19/2017 18:002673/19/2017 18:001.003/19/2017 18:0068.43/19/2017 18:0023.33/19/2017 18:0031.53/19/2017 18:0029.53/19/2017 18:000.0
3/19/2017 19:0027.83/19/2017 19:00992.63/19/2017 19:0003/19/2017 19:002963/19/2017 19:000.803/19/2017 19:0077.73/19/2017 19:0023.63/19/2017 19:0030.73/19/2017 19:0028.93/19/2017 19:000.1
3/19/2017 20:0027.03/19/2017 20:00993.23/19/2017 20:0003/19/2017 20:002893/19/2017 20:001.003/19/2017 20:0082.53/19/2017 20:0023.83/19/2017 20:0030.13/19/2017 20:0029.03/19/2017 20:000.0
3/19/2017 21:0026.73/19/2017 21:00994.03/19/2017 21:0003/19/2017 21:002953/19/2017 21:000.803/19/2017 21:0084.03/19/2017 21:0023.83/19/2017 21:0029.83/19/2017 21:0029.13/19/2017 21:000.0
3/19/2017 22:0026.33/19/2017 22:00994.63/19/2017 22:0003/19/2017 22:001423/19/2017 22:001.103/19/2017 22:0088.33/19/2017 22:0024.33/19/2017 22:0029.43/19/2017 22:0029.13/19/2017 22:000.0
3/19/2017 23:0026.13/19/2017 23:00995.03/19/2017 23:0003/19/2017 23:002073/19/2017 23:001.403/19/2017 23:0088.43/19/2017 23:0024.13/19/2017 23:0029.23/19/2017 23:0029.13/19/2017 23:000.0
3/20/2017 0:0025.83/20/2017 0:00994.43/20/2017 0:0003/20/2017 0:00433/20/2017 0:001.103/20/2017 0:0086.13/20/2017 0:0023.43/20/2017 0:0028.73/20/2017 0:0029.23/20/2017 0:000.0
3/20/2017 1:0025.43/20/2017 1:00993.83/20/2017 1:0003/20/2017 1:00433/20/2017 1:000.903/20/2017 1:0089.83/20/2017 1:0023.73/20/2017 1:0028.43/20/2017 1:0029.53/20/2017 1:000.0
3/20/2017 2:0025.23/20/2017 2:00993.43/20/2017 2:0003/20/2017 2:001363/20/2017 2:001.603/20/2017 2:0091.23/20/2017 2:0023.73/20/2017 2:0028.13/20/2017 2:0029.53/20/2017 2:000.0
3/20/2017 3:0024.83/20/2017 3:00993.13/20/2017 3:0003/20/2017 3:001073/20/2017 3:000.703/20/2017 3:0092.53/20/2017 3:0023.63/20/2017 3:0027.83/20/2017 3:0029.43/20/2017 3:000.0
3/20/2017 4:0024.33/20/2017 4:00993.33/20/2017 4:0003/20/2017 4:001463/20/2017 4:001.203/20/2017 4:0090.63/20/2017 4:0022.73/20/2017 4:0027.33/20/2017 4:0029.43/20/2017 4:000.0
3/20/2017 5:0023.93/20/2017 5:00993.53/20/2017 5:0003/20/2017 5:003433/20/2017 5:000.603/20/2017 5:0089.03/20/2017 5:0022.13/20/2017 5:0026.83/20/2017 5:0029.63/20/2017 5:000.0
3/20/2017 6:0023.33/20/2017 6:00994.03/20/2017 6:0003/20/2017 6:00783/20/2017 6:001.003/20/2017 6:0093.13/20/2017 6:0022.23/20/2017 6:0026.43/20/2017 6:0029.73/20/2017 6:000.0
3/20/2017 7:0023.83/20/2017 7:00994.43/20/2017 7:00243/20/2017 7:001193/20/2017 7:001.003/20/2017 7:0092.33/20/2017 7:0022.63/20/2017 7:0026.63/20/2017 7:0029.73/20/2017 7:000.0
3/20/2017 8:0025.13/20/2017 8:00995.03/20/2017 8:001523/20/2017 8:00803/20/2017 8:001.003/20/2017 8:0086.83/20/2017 8:0022.83/20/2017 8:0027.33/20/2017 8:0029.63/20/2017 8:000.0
3/20/2017 9:0028.33/20/2017 9:00995.63/20/2017 9:004593/20/2017 9:002563/20/2017 9:001.103/20/2017 9:0070.53/20/2017 9:0022.53/20/2017 9:0029.13/20/2017 9:0030.13/20/2017 9:000.0
3/20/2017 10:0029.53/20/2017 10:00995.73/20/2017 10:005303/20/2017 10:002033/20/2017 10:001.303/20/2017 10:0065.13/20/2017 10:0022.33/20/2017 10:0030.33/20/2017 10:0030.53/20/2017 10:000.0
3/20/2017 11:0030.33/20/2017 11:00995.23/20/2017 11:006193/20/2017 11:002323/20/2017 11:002.103/20/2017 11:0061.33/20/2017 11:0022.13/20/2017 11:0031.43/20/2017 11:0030.73/20/2017 11:000.0
3/20/2017 12:0030.83/20/2017 12:00994.43/20/2017 12:007283/20/2017 12:002283/20/2017 12:003.003/20/2017 12:0060.53/20/2017 12:0022.33/20/2017 12:0032.03/20/2017 12:0030.83/20/2017 12:000.0
3/20/2017 13:0031.73/20/2017 13:00993.33/20/2017 13:008693/20/2017 13:002193/20/2017 13:002.803/20/2017 13:0056.93/20/2017 13:0022.23/20/2017 13:0032.73/20/2017 13:0031.03/20/2017 13:000.0
3/20/2017 14:0032.93/20/2017 14:00992.13/20/2017 14:009153/20/2017 14:002053/20/2017 14:002.703/20/2017 14:0052.33/20/2017 14:0021.93/20/2017 14:0033.33/20/2017 14:0031.73/20/2017 14:000.0
3/20/2017 15:0033.83/20/2017 15:00990.73/20/2017 15:007463/20/2017 15:001993/20/2017 15:002.003/20/2017 15:0050.93/20/2017 15:0022.33/20/2017 15:0033.93/20/2017 15:0032.23/20/2017 15:000.0
3/20/2017 16:0034.43/20/2017 16:00989.83/20/2017 16:005453/20/2017 16:002273/20/2017 16:001.603/20/2017 16:0048.73/20/2017 16:0022.13/20/2017 16:0034.43/20/2017 16:0032.93/20/2017 16:000.0
3/20/2017 17:0034.63/20/2017 17:00989.83/20/2017 17:003143/20/2017 17:002083/20/2017 17:001.303/20/2017 17:0046.83/20/2017 17:0021.63/20/2017 17:0034.63/20/2017 17:0033.63/20/2017 17:000.0
3/20/2017 18:0034.13/20/2017 18:00989.93/20/2017 18:00973/20/2017 18:001333/20/2017 18:001.003/20/2017 18:0047.33/20/2017 18:0021.43/20/2017 18:0034.53/20/2017 18:0034.33/20/2017 18:000.0
3/20/2017 19:0031.23/20/2017 19:00990.53/20/2017 19:0013/20/2017 19:001373/20/2017 19:001.403/20/2017 19:0060.33/20/2017 19:0022.73/20/2017 19:0033.63/20/2017 19:0033.93/20/2017 19:000.0
3/20/2017 20:0029.53/20/2017 20:00991.33/20/2017 20:0003/20/2017 20:001073/20/2017 20:001.703/20/2017 20:0068.13/20/2017 20:0023.13/20/2017 20:0032.43/20/2017 20:0033.73/20/2017 20:000.0
3/20/2017 21:0028.43/20/2017 21:00992.13/20/2017 21:0003/20/2017 21:00933/20/2017 21:002.203/20/2017 21:0070.23/20/2017 21:0022.53/20/2017 21:0031.13/20/2017 21:0034.23/20/2017 21:000.0
3/20/2017 22:0027.53/20/2017 22:00992.83/20/2017 22:0003/20/2017 22:00893/20/2017 22:001.903/20/2017 22:0071.73/20/2017 22:0022.03/20/2017 22:0030.23/20/2017 22:0034.43/20/2017 22:000.0
3/20/2017 23:0027.03/20/2017 23:00993.43/20/2017 23:0003/20/2017 23:00513/20/2017 23:001.203/20/2017 23:0072.03/20/2017 23:0021.63/20/2017 23:0029.53/20/2017 23:0034.93/20/2017 23:000.0
3/21/2017 0:0026.33/21/2017 0:00993.53/21/2017 0:0003/21/2017 0:00593/21/2017 0:001.003/21/2017 0:0077.23/21/2017 0:0022.13/21/2017 0:0029.03/21/2017 0:0034.73/21/2017 0:000.0
3/21/2017 1:0026.03/21/2017 1:00993.13/21/2017 1:0003/21/2017 1:00943/21/2017 1:001.503/21/2017 1:0079.43/21/2017 1:0022.23/21/2017 1:0028.73/21/2017 1:0034.73/21/2017 1:000.0
3/21/2017 2:0025.73/21/2017 2:00992.53/21/2017 2:0003/21/2017 2:00853/21/2017 2:001.103/21/2017 2:0082.03/21/2017 2:0022.53/21/2017 2:0028.53/21/2017 2:0034.83/21/2017 2:000.0
3/21/2017 3:0025.43/21/2017 3:00992.43/21/2017 3:0003/21/2017 3:001333/21/2017 3:001.003/21/2017 3:0085.23/21/2017 3:0022.83/21/2017 3:0028.23/21/2017 3:0035.03/21/2017 3:000.5
3/21/2017 4:0024.43/21/2017 4:00992.33/21/2017 4:0003/21/2017 4:001843/21/2017 4:001.603/21/2017 4:0087.43/21/2017 4:0022.23/21/2017 4:0027.13/21/2017 4:0034.23/21/2017 4:000.7
3/21/2017 5:0023.83/21/2017 5:00992.73/21/2017 5:0003/21/2017 5:001073/21/2017 5:001.303/21/2017 5:0088.73/21/2017 5:0021.93/21/2017 5:0026.53/21/2017 5:0034.23/21/2017 5:000.0
3/21/2017 6:0023.63/21/2017 6:00993.23/21/2017 6:0003/21/2017 6:00293/21/2017 6:001.003/21/2017 6:0089.63/21/2017 6:0021.93/21/2017 6:0026.33/21/2017 6:0034.23/21/2017 6:000.0
3/21/2017 7:0023.73/21/2017 7:00993.83/21/2017 7:00183/21/2017 7:00863/21/2017 7:002.303/21/2017 7:0090.43/21/2017 7:0022.13/21/2017 7:0026.43/21/2017 7:0034.33/21/2017 7:000.0
3/21/2017 8:0024.53/21/2017 8:00994.63/21/2017 8:00673/21/2017 8:001053/21/2017 8:004.103/21/2017 8:0089.83/21/2017 8:0022.83/21/2017 8:0027.23/21/2017 8:0034.23/21/2017 8:000.0
3/21/2017 9:0025.33/21/2017 9:00995.03/21/2017 9:001423/21/2017 9:00923/21/2017 9:001.603/21/2017 9:0083.43/21/2017 9:0022.43/21/2017 9:0027.63/21/2017 9:0034.23/21/2017 9:000.0
3/21/2017 10:0025.13/21/2017 10:00995.83/21/2017 10:00873/21/2017 10:003193/21/2017 10:003.403/21/2017 10:0087.43/21/2017 10:0022.93/21/2017 10:0027.63/21/2017 10:0034.53/21/2017 10:000.1
3/21/2017 11:0024.93/21/2017 11:00996.03/21/2017 11:002243/21/2017 11:003593/21/2017 11:002.803/21/2017 11:0087.03/21/2017 11:0022.73/21/2017 11:0027.23/21/2017 11:0034.43/21/2017 11:000.0
3/21/2017 12:0024.23/21/2017 12:00995.53/21/2017 12:001573/21/2017 12:003413/21/2017 12:003.403/21/2017 12:0087.43/21/2017 12:0022.03/21/2017 12:0026.53/21/2017 12:0034.53/21/2017 12:000.9
3/21/2017 13:0023.73/21/2017 13:00994.03/21/2017 13:00903/21/2017 13:00573/21/2017 13:003.803/21/2017 13:0092.23/21/2017 13:0022.43/21/2017 13:0026.33/21/2017 13:0033.53/21/2017 13:000.7
3/21/2017 14:0023.73/21/2017 14:00993.63/21/2017 14:00253/21/2017 14:00923/21/2017 14:002.903/21/2017 14:0092.13/21/2017 14:0022.43/21/2017 14:0026.53/21/2017 14:0032.83/21/2017 14:000.9
3/21/2017 15:0023.63/21/2017 15:00993.03/21/2017 15:00143/21/2017 15:001043/21/2017 15:003.703/21/2017 15:0094.43/21/2017 15:0022.73/21/2017 15:0026.43/21/2017 15:0029.03/21/2017 15:006.9
3/21/2017 16:0023.63/21/2017 16:00991.83/21/2017 16:00803/21/2017 16:00903/21/2017 16:004.103/21/2017 16:0093.93/21/2017 16:0022.63/21/2017 16:0026.43/21/2017 16:0024.33/21/2017 16:003.2
3/21/2017 17:0023.73/21/2017 17:00992.53/21/2017 17:00143/21/2017 17:002973/21/2017 17:000.803/21/2017 17:0092.83/21/2017 17:0022.53/21/2017 17:0026.53/21/2017 17:0023.63/21/2017 17:000.5
3/21/2017 18:0023.43/21/2017 18:00992.03/21/2017 18:0083/21/2017 18:00603/21/2017 18:002.203/21/2017 18:0094.33/21/2017 18:0022.53/21/2017 18:0026.13/21/2017 18:0022.63/21/2017 18:001.4
3/21/2017 19:0023.13/21/2017 19:00992.33/21/2017 19:0003/21/2017 19:00983/21/2017 19:002.303/21/2017 19:0094.53/21/2017 19:0022.23/21/2017 19:0025.93/21/2017 19:0021.83/21/2017 19:000.0
3/21/2017 20:0023.13/21/2017 20:00993.13/21/2017 20:0003/21/2017 20:00503/21/2017 20:001.103/21/2017 20:0095.23/21/2017 20:0022.43/21/2017 20:0025.83/21/2017 20:0021.93/21/2017 20:000.0
3/21/2017 21:0022.93/21/2017 21:00993.73/21/2017 21:0003/21/2017 21:00163/21/2017 21:001.103/21/2017 21:0095.43/21/2017 21:0022.23/21/2017 21:0025.73/21/2017 21:0022.03/21/2017 21:000.0
3/21/2017 22:0022.93/21/2017 22:00994.03/21/2017 22:0003/21/2017 22:001393/21/2017 22:001.803/21/2017 22:0096.13/21/2017 22:0022.33/21/2017 22:0025.63/21/2017 22:0022.03/21/2017 22:000.0
3/21/2017 23:0023.03/21/2017 23:00994.33/21/2017 23:0003/21/2017 23:002703/21/2017 23:001.403/21/2017 23:0096.03/21/2017 23:0022.43/21/2017 23:0025.83/21/2017 23:0021.93/21/2017 23:000.2
3/22/2017 0:0022.93/22/2017 0:00993.33/22/2017 0:0003/22/2017 0:00903/22/2017 0:002.003/22/2017 0:0096.13/22/2017 0:0022.33/22/2017 0:0025.63/22/2017 0:0021.93/22/2017 0:000.0
3/22/2017 1:0022.83/22/2017 1:00992.23/22/2017 1:0003/22/2017 1:00973/22/2017 1:001.803/22/2017 1:0095.43/22/2017 1:0022.13/22/2017 1:0025.53/22/2017 1:0021.93/22/2017 1:000.0
3/22/2017 2:0022.73/22/2017 2:00991.53/22/2017 2:0003/22/2017 2:00233/22/2017 2:001.603/22/2017 2:0095.73/22/2017 2:0022.13/22/2017 2:0025.33/22/2017 2:0021.93/22/2017 2:000.0
3/22/2017 3:0022.53/22/2017 3:00991.23/22/2017 3:0003/22/2017 3:00353/22/2017 3:001.103/22/2017 3:0096.03/22/2017 3:0021.93/22/2017 3:0025.23/22/2017 3:0021.93/22/2017 3:000.0
3/22/2017 4:0022.53/22/2017 4:00991.13/22/2017 4:0003/22/2017 4:00493/22/2017 4:000.803/22/2017 4:0095.83/22/2017 4:0021.93/22/2017 4:0025.23/22/2017 4:0021.93/22/2017 4:000.0
3/22/2017 5:0022.53/22/2017 5:00991.13/22/2017 5:0003/22/2017 5:0083/22/2017 5:000.803/22/2017 5:0096.03/22/2017 5:0021.93/22/2017 5:0025.23/22/2017 5:0022.03/22/2017 5:000.0
3/22/2017 6:0022.53/22/2017 6:00991.83/22/2017 6:0003/22/2017 6:002963/22/2017 6:000.803/22/2017 6:0096.33/22/2017 6:0022.03/22/2017 6:0025.43/22/2017 6:0022.23/22/2017 6:000.0
3/22/2017 7:0022.73/22/2017 7:00992.63/22/2017 7:00323/22/2017 7:002713/22/2017 7:000.703/22/2017 7:0096.33/22/2017 7:0022.23/22/2017 7:0025.53/22/2017 7:0022.13/22/2017 7:000.0
3/22/2017 8:0023.73/22/2017 8:00993.33/22/2017 8:001263/22/2017 8:002873/22/2017 8:001.403/22/2017 8:0092.83/22/2017 8:0022.53/22/2017 8:0026.03/22/2017 8:0022.23/22/2017 8:000.0
3/22/2017 9:0024.73/22/2017 9:00994.23/22/2017 9:002153/22/2017 9:002643/22/2017 9:001.103/22/2017 9:0088.13/22/2017 9:0022.73/22/2017 9:0026.93/22/2017 9:0022.33/22/2017 9:000.0
3/22/2017 10:0025.83/22/2017 10:00994.63/22/2017 10:003083/22/2017 10:002733/22/2017 10:001.503/22/2017 10:0084.03/22/2017 10:0023.03/22/2017 10:0027.73/22/2017 10:0022.53/22/2017 10:000.0
3/22/2017 11:0027.83/22/2017 11:00994.13/22/2017 11:007623/22/2017 11:002413/22/2017 11:001.403/22/2017 11:0074.23/22/2017 11:0022.93/22/2017 11:0028.83/22/2017 11:0022.53/22/2017 11:000.0
3/22/2017 12:0029.53/22/2017 12:00993.23/22/2017 12:008743/22/2017 12:002163/22/2017 12:001.503/22/2017 12:0067.93/22/2017 12:0023.03/22/2017 12:0030.23/22/2017 12:0023.03/22/2017 12:000.0
3/22/2017 13:0030.73/22/2017 13:00992.03/22/2017 13:009593/22/2017 13:002173/22/2017 13:002.603/22/2017 13:0062.93/22/2017 13:0022.93/22/2017 13:0031.73/22/2017 13:0023.03/22/2017 13:000.0
3/22/2017 14:0032.03/22/2017 14:00991.03/22/2017 14:009043/22/2017 14:002063/22/2017 14:002.103/22/2017 14:0059.43/22/2017 14:0023.23/22/2017 14:0032.33/22/2017 14:0023.33/22/2017 14:000.0
3/22/2017 15:0032.93/22/2017 15:00990.13/22/2017 15:007303/22/2017 15:002193/22/2017 15:001.603/22/2017 15:0055.63/22/2017 15:0022.93/22/2017 15:0033.03/22/2017 15:0023.83/22/2017 15:000.0
3/22/2017 16:0032.53/22/2017 16:00989.43/22/2017 16:004223/22/2017 16:002893/22/2017 16:001.403/22/2017 16:0055.53/22/2017 16:0022.53/22/2017 16:0033.33/22/2017 16:0024.33/22/2017 16:000.0
3/22/2017 17:0032.93/22/2017 17:00989.23/22/2017 17:002913/22/2017 17:003233/22/2017 17:001.103/22/2017 17:0053.43/22/2017 17:0022.33/22/2017 17:0033.53/22/2017 17:0024.73/22/2017 17:000.0
3/22/2017 18:0032.73/22/2017 18:00989.63/22/2017 18:00843/22/2017 18:003383/22/2017 18:000.803/22/2017 18:0052.93/22/2017 18:0021.93/22/2017 18:0033.63/22/2017 18:0025.33/22/2017 18:000.0
3/22/2017 19:0030.23/22/2017 19:00989.93/22/2017 19:0013/22/2017 19:001323/22/2017 19:000.703/22/2017 19:0062.83/22/2017 19:0022.43/22/2017 19:0032.93/22/2017 19:0024.83/22/2017 19:000.0
3/22/2017 20:0028.33/22/2017 20:00990.43/22/2017 20:0003/22/2017 20:00533/22/2017 20:000.403/22/2017 20:0074.13/22/2017 20:0023.33/22/2017 20:0031.53/22/2017 20:0024.83/22/2017 20:000.0
3/22/2017 21:0027.03/22/2017 21:00991.03/22/2017 21:0003/22/2017 21:002673/22/2017 21:000.203/22/2017 21:0081.33/22/2017 21:0023.63/22/2017 21:0030.53/22/2017 21:0024.93/22/2017 21:000.0
3/22/2017 22:0026.23/22/2017 22:00991.53/22/2017 22:0003/22/2017 22:00223/22/2017 22:000.503/22/2017 22:0085.33/22/2017 22:0023.63/22/2017 22:0029.73/22/2017 22:0025.23/22/2017 22:000.0
3/22/2017 23:0025.73/22/2017 23:00991.83/22/2017 23:0003/22/2017 23:00203/22/2017 23:000.903/22/2017 23:0087.43/22/2017 23:0023.53/22/2017 23:0029.03/22/2017 23:0025.23/22/2017 23:000.0
3/23/2017 0:0025.33/23/2017 0:00991.83/23/2017 0:0003/23/2017 0:00363/23/2017 0:000.803/23/2017 0:0089.33/23/2017 0:0023.53/23/2017 0:0028.53/23/2017 0:0025.53/23/2017 0:000.0
3/23/2017 1:0024.93/23/2017 1:00991.73/23/2017 1:0003/23/2017 1:00213/23/2017 1:000.803/23/2017 1:0089.13/23/2017 1:0023.13/23/2017 1:0028.23/23/2017 1:0025.73/23/2017 1:000.0
3/23/2017 2:0024.43/23/2017 2:00991.13/23/2017 2:0003/23/2017 2:00853/23/2017 2:001.503/23/2017 2:0090.63/23/2017 2:0022.83/23/2017 2:0027.63/23/2017 2:0025.63/23/2017 2:000.0
3/23/2017 3:0024.13/23/2017 3:00990.63/23/2017 3:0003/23/2017 3:001233/23/2017 3:002.503/23/2017 3:0091.33/23/2017 3:0022.73/23/2017 3:0027.03/23/2017 3:0026.03/23/2017 3:000.0
3/23/2017 4:0023.73/23/2017 4:00990.83/23/2017 4:0003/23/2017 4:00303/23/2017 4:001.003/23/2017 4:0093.23/23/2017 4:0022.63/23/2017 4:0026.73/23/2017 4:0026.13/23/2017 4:000.0
3/23/2017 5:0023.63/23/2017 5:00991.13/23/2017 5:0003/23/2017 5:00363/23/2017 5:001.603/23/2017 5:0092.63/23/2017 5:0022.43/23/2017 5:0026.53/23/2017 5:0026.33/23/2017 5:000.0
3/23/2017 6:0023.43/23/2017 6:00991.93/23/2017 6:0003/23/2017 6:00463/23/2017 6:001.403/23/2017 6:0092.93/23/2017 6:0022.33/23/2017 6:0026.23/23/2017 6:0025.93/23/2017 6:000.0
3/23/2017 7:0023.63/23/2017 7:00992.83/23/2017 7:00453/23/2017 7:00673/23/2017 7:001.003/23/2017 7:0092.23/23/2017 7:0022.33/23/2017 7:0026.33/23/2017 7:0026.13/23/2017 7:000.0
3/23/2017 8:0025.93/23/2017 8:00993.63/23/2017 8:002313/23/2017 8:00553/23/2017 8:001.603/23/2017 8:0084.23/23/2017 8:0023.13/23/2017 8:0027.73/23/2017 8:0026.43/23/2017 8:000.0
3/23/2017 9:0028.43/23/2017 9:00994.23/23/2017 9:004633/23/2017 9:00523/23/2017 9:001.603/23/2017 9:0073.43/23/2017 9:0023.33/23/2017 9:0029.73/23/2017 9:0026.93/23/2017 9:000.0
3/23/2017 10:0030.63/23/2017 10:00994.33/23/2017 10:006823/23/2017 10:00783/23/2017 10:001.403/23/2017 10:0064.33/23/2017 10:0023.23/23/2017 10:0031.33/23/2017 10:0027.23/23/2017 10:000.0
3/23/2017 11:0032.53/23/2017 11:00994.13/23/2017 11:008313/23/2017 11:001853/23/2017 11:001.403/23/2017 11:0058.53/23/2017 11:0023.43/23/2017 11:0032.83/23/2017 11:0027.53/23/2017 11:000.0
3/23/2017 12:0032.53/23/2017 12:00993.33/23/2017 12:009263/23/2017 12:002763/23/2017 12:002.203/23/2017 12:0057.83/23/2017 12:0023.23/23/2017 12:0033.53/23/2017 12:0027.73/23/2017 12:000.0
3/23/2017 13:0033.33/23/2017 13:00992.23/23/2017 13:009483/23/2017 13:002623/23/2017 13:002.503/23/2017 13:0052.13/23/2017 13:0022.23/23/2017 13:0034.23/23/2017 13:0027.93/23/2017 13:000.0
3/23/2017 14:0034.83/23/2017 14:00990.93/23/2017 14:008633/23/2017 14:002503/23/2017 14:002.103/23/2017 14:0041.53/23/2017 14:0019.93/23/2017 14:0035.13/23/2017 14:0028.53/23/2017 14:000.0
3/23/2017 15:0035.43/23/2017 15:00989.93/23/2017 15:007243/23/2017 15:002633/23/2017 15:001.903/23/2017 15:0038.43/23/2017 15:0019.23/23/2017 15:0035.53/23/2017 15:0029.23/23/2017 15:000.0
3/23/2017 16:0036.03/23/2017 16:00989.33/23/2017 16:005193/23/2017 16:002343/23/2017 16:001.603/23/2017 16:0038.03/23/2017 16:0019.53/23/2017 16:0035.73/23/2017 16:0030.13/23/2017 16:000.0
3/23/2017 17:0035.73/23/2017 17:00989.23/23/2017 17:002863/23/2017 17:002793/23/2017 17:001.403/23/2017 17:0038.13/23/2017 17:0019.33/23/2017 17:0035.93/23/2017 17:0030.83/23/2017 17:000.0
3/23/2017 18:0034.73/23/2017 18:00989.33/23/2017 18:00793/23/2017 18:002843/23/2017 18:001.003/23/2017 18:0041.43/23/2017 18:0019.73/23/2017 18:0035.53/23/2017 18:0031.33/23/2017 18:000.0
3/23/2017 19:0032.13/23/2017 19:00989.73/23/2017 19:0013/23/2017 19:003133/23/2017 19:000.803/23/2017 19:0050.03/23/2017 19:0020.43/23/2017 19:0034.33/23/2017 19:0031.03/23/2017 19:000.0
3/23/2017 20:0030.13/23/2017 20:00990.63/23/2017 20:0003/23/2017 20:002553/23/2017 20:000.503/23/2017 20:0060.03/23/2017 20:0021.63/23/2017 20:0032.83/23/2017 20:0031.03/23/2017 20:000.0
3/23/2017 21:0028.53/23/2017 21:00991.63/23/2017 21:0003/23/2017 21:002823/23/2017 21:000.603/23/2017 21:0071.83/23/2017 21:0023.03/23/2017 21:0031.93/23/2017 21:0031.23/23/2017 21:000.0
3/23/2017 22:0027.53/23/2017 22:00992.03/23/2017 22:0003/23/2017 22:00413/23/2017 22:000.403/23/2017 22:0077.13/23/2017 22:0023.23/23/2017 22:0031.33/23/2017 22:0031.33/23/2017 22:000.0
3/23/2017 23:0026.83/23/2017 23:00992.13/23/2017 23:0003/23/2017 23:003533/23/2017 23:000.403/23/2017 23:0081.03/23/2017 23:0023.33/23/2017 23:0030.53/23/2017 23:0031.73/23/2017 23:000.0
3/24/2017 0:0026.13/24/2017 0:00992.03/24/2017 0:0003/24/2017 0:001263/24/2017 0:001.103/24/2017 0:0084.33/24/2017 0:0023.33/24/2017 0:0029.73/24/2017 0:0031.63/24/2017 0:000.0
3/24/2017 1:0026.23/24/2017 1:00992.03/24/2017 1:0003/24/2017 1:00773/24/2017 1:002.103/24/2017 1:0077.63/24/2017 1:0022.13/24/2017 1:0028.93/24/2017 1:0032.03/24/2017 1:000.0
3/24/2017 2:0025.53/24/2017 2:00991.73/24/2017 2:0003/24/2017 2:00713/24/2017 2:001.603/24/2017 2:0079.93/24/2017 2:0021.83/24/2017 2:0028.33/24/2017 2:0032.33/24/2017 2:000.0
3/24/2017 3:0025.23/24/2017 3:00991.43/24/2017 3:0003/24/2017 3:00583/24/2017 3:001.603/24/2017 3:0081.03/24/2017 3:0021.83/24/2017 3:0027.93/24/2017 3:0032.13/24/2017 3:000.0
3/24/2017 4:0024.83/24/2017 4:00991.43/24/2017 4:0003/24/2017 4:00923/24/2017 4:001.503/24/2017 4:0083.13/24/2017 4:0021.83/24/2017 4:0027.63/24/2017 4:0032.23/24/2017 4:000.0
3/24/2017 5:0024.53/24/2017 5:00991.63/24/2017 5:0003/24/2017 5:00953/24/2017 5:001.403/24/2017 5:0084.73/24/2017 5:0021.83/24/2017 5:0027.43/24/2017 5:0032.43/24/2017 5:000.0
3/24/2017 6:0024.23/24/2017 6:00992.23/24/2017 6:0003/24/2017 6:001203/24/2017 6:001.003/24/2017 6:0085.93/24/2017 6:0021.83/24/2017 6:0027.03/24/2017 6:0032.53/24/2017 6:000.0
3/24/2017 7:0024.33/24/2017 7:00993.13/24/2017 7:00453/24/2017 7:001133/24/2017 7:000.903/24/2017 7:0086.23/24/2017 7:0021.93/24/2017 7:0026.83/24/2017 7:0032.53/24/2017 7:000.0
3/24/2017 8:0026.63/24/2017 8:00993.83/24/2017 8:002293/24/2017 8:00733/24/2017 8:001.503/24/2017 8:0076.93/24/2017 8:0022.33/24/2017 8:0028.23/24/2017 8:0032.63/24/2017 8:000.0
3/24/2017 9:0028.93/24/2017 9:00994.43/24/2017 9:004723/24/2017 9:00753/24/2017 9:002.603/24/2017 9:0065.83/24/2017 9:0021.93/24/2017 9:0030.33/24/2017 9:0033.33/24/2017 9:000.0
3/24/2017 10:0030.93/24/2017 10:00994.43/24/2017 10:006803/24/2017 10:001203/24/2017 10:003.203/24/2017 10:0059.53/24/2017 10:0022.23/24/2017 10:0031.93/24/2017 10:0033.53/24/2017 10:000.0
3/24/2017 11:0032.33/24/2017 11:00994.33/24/2017 11:008293/24/2017 11:001373/24/2017 11:003.203/24/2017 11:0057.23/24/2017 11:0022.83/24/2017 11:0033.03/24/2017 11:0034.03/24/2017 11:000.0
3/24/2017 12:0033.53/24/2017 12:00993.73/24/2017 12:009063/24/2017 12:001503/24/2017 12:002.703/24/2017 12:0054.73/24/2017 12:0023.23/24/2017 12:0034.33/24/2017 12:0034.13/24/2017 12:000.0
3/24/2017 13:0034.93/24/2017 13:00992.53/24/2017 13:008693/24/2017 13:001943/24/2017 13:002.303/24/2017 13:0049.53/24/2017 13:0022.83/24/2017 13:0035.33/24/2017 13:0034.43/24/2017 13:000.0
3/24/2017 14:0035.63/24/2017 14:00991.03/24/2017 14:008233/24/2017 14:002153/24/2017 14:002.703/24/2017 14:0047.03/24/2017 14:0022.63/24/2017 14:0035.93/24/2017 14:0035.13/24/2017 14:000.0
3/24/2017 15:0035.23/24/2017 15:00989.63/24/2017 15:005323/24/2017 15:002483/24/2017 15:002.203/24/2017 15:0045.53/24/2017 15:0021.73/24/2017 15:0036.13/24/2017 15:0035.83/24/2017 15:000.0
3/24/2017 16:0032.13/24/2017 16:00989.53/24/2017 16:00883/24/2017 16:001113/24/2017 16:003.403/24/2017 16:0054.63/24/2017 16:0021.93/24/2017 16:0033.93/24/2017 16:0036.73/24/2017 16:000.0
3/24/2017 17:0030.13/24/2017 17:00990.13/24/2017 17:00383/24/2017 17:001663/24/2017 17:003.403/24/2017 17:0059.33/24/2017 17:0021.43/24/2017 17:0032.03/24/2017 17:0036.93/24/2017 17:000.0
3/24/2017 18:0028.33/24/2017 18:00990.73/24/2017 18:00183/24/2017 18:001903/24/2017 18:002.303/24/2017 18:0064.83/24/2017 18:0021.13/24/2017 18:0030.43/24/2017 18:0037.33/24/2017 18:000.0
3/24/2017 19:0027.33/24/2017 19:00991.73/24/2017 19:0003/24/2017 19:001883/24/2017 19:002.303/24/2017 19:0067.23/24/2017 19:0020.83/24/2017 19:0029.63/24/2017 19:0037.63/24/2017 19:000.0
3/24/2017 20:0026.53/24/2017 20:00992.53/24/2017 20:0003/24/2017 20:001963/24/2017 20:001.903/24/2017 20:0073.23/24/2017 20:0021.43/24/2017 20:0028.93/24/2017 20:0038.13/24/2017 20:000.0
3/24/2017 21:0026.13/24/2017 21:00993.73/24/2017 21:0003/24/2017 21:001493/24/2017 21:001.203/24/2017 21:0077.93/24/2017 21:0022.03/24/2017 21:0028.73/24/2017 21:0037.73/24/2017 21:000.0
3/24/2017 22:0025.53/24/2017 22:00994.93/24/2017 22:0003/24/2017 22:00943/24/2017 22:004.203/24/2017 22:0080.83/24/2017 22:0022.03/24/2017 22:0028.13/24/2017 22:0038.33/24/2017 22:000.0
3/24/2017 23:0025.33/24/2017 23:00995.13/24/2017 23:0003/24/2017 23:001083/24/2017 23:002.403/24/2017 23:0080.73/24/2017 23:0021.83/24/2017 23:0028.03/24/2017 23:0038.63/24/2017 23:000.0
3/25/2017 0:0025.03/25/2017 0:00995.03/25/2017 0:0003/25/2017 0:00493/25/2017 0:001.603/25/2017 0:0081.43/25/2017 0:0021.73/25/2017 0:0027.73/25/2017 0:0038.43/25/2017 0:000.0
3/25/2017 1:0024.83/25/2017 1:00994.63/25/2017 1:0003/25/2017 1:00683/25/2017 1:001.103/25/2017 1:0080.53/25/2017 1:0021.33/25/2017 1:0027.43/25/2017 1:0038.33/25/2017 1:000.0
3/25/2017 2:0024.53/25/2017 2:00994.03/25/2017 2:0003/25/2017 2:00153/25/2017 2:000.703/25/2017 2:0082.43/25/2017 2:0021.43/25/2017 2:0027.13/25/2017 2:0038.63/25/2017 2:000.0
3/25/2017 3:0024.33/25/2017 3:00993.43/25/2017 3:0003/25/2017 3:0073/25/2017 3:000.803/25/2017 3:0083.13/25/2017 3:0021.33/25/2017 3:0027.03/25/2017 3:0038.93/25/2017 3:000.0
3/25/2017 4:0023.73/25/2017 4:00993.33/25/2017 4:0003/25/2017 4:002223/25/2017 4:000.703/25/2017 4:0086.33/25/2017 4:0021.43/25/2017 4:0026.73/25/2017 4:0039.13/25/2017 4:000.0
3/25/2017 5:0023.53/25/2017 5:00993.43/25/2017 5:0003/25/2017 5:001983/25/2017 5:001.103/25/2017 5:0089.63/25/2017 5:0021.83/25/2017 5:0026.43/25/2017 5:0039.13/25/2017 5:000.0
3/25/2017 6:0023.23/25/2017 6:00994.03/25/2017 6:0003/25/2017 6:001503/25/2017 6:000.703/25/2017 6:0091.83/25/2017 6:0021.93/25/2017 6:0026.03/25/2017 6:0038.83/25/2017 6:000.0
3/25/2017 7:0023.23/25/2017 7:00994.73/25/2017 7:00433/25/2017 7:00523/25/2017 7:000.603/25/2017 7:0092.13/25/2017 7:0021.93/25/2017 7:0025.83/25/2017 7:0038.83/25/2017 7:000.0
3/25/2017 8:0025.43/25/2017 8:00995.63/25/2017 8:001753/25/2017 8:00233/25/2017 8:000.603/25/2017 8:0084.33/25/2017 8:0022.63/25/2017 8:0027.13/25/2017 8:0038.83/25/2017 8:000.0
3/25/2017 9:0027.83/25/2017 9:00996.23/25/2017 9:004593/25/2017 9:00463/25/2017 9:001.303/25/2017 9:0071.73/25/2017 9:0022.33/25/2017 9:0028.83/25/2017 9:0039.33/25/2017 9:000.0
3/25/2017 10:0030.13/25/2017 10:00996.53/25/2017 10:005693/25/2017 10:002503/25/2017 10:001.203/25/2017 10:0061.23/25/2017 10:0021.93/25/2017 10:0030.43/25/2017 10:0040.13/25/2017 10:000.0
3/25/2017 11:0031.83/25/2017 11:00996.13/25/2017 11:008323/25/2017 11:001623/25/2017 11:001.203/25/2017 11:0054.93/25/2017 11:0021.73/25/2017 11:0031.93/25/2017 11:0039.93/25/2017 11:000.0
3/25/2017 12:0032.53/25/2017 12:00995.43/25/2017 12:009023/25/2017 12:002553/25/2017 12:002.203/25/2017 12:0050.23/25/2017 12:0020.93/25/2017 12:0032.93/25/2017 12:0040.23/25/2017 12:000.0
3/25/2017 13:0033.73/25/2017 13:00994.13/25/2017 13:009493/25/2017 13:002163/25/2017 13:001.803/25/2017 13:0047.23/25/2017 13:0021.03/25/2017 13:0033.63/25/2017 13:0040.43/25/2017 13:000.0
3/25/2017 14:0033.93/25/2017 14:00992.63/25/2017 14:009233/25/2017 14:002683/25/2017 14:002.403/25/2017 14:0047.73/25/2017 14:0021.33/25/2017 14:0034.33/25/2017 14:0041.13/25/2017 14:000.0
3/25/2017 15:0034.33/25/2017 15:00991.43/25/2017 15:007573/25/2017 15:002463/25/2017 15:002.403/25/2017 15:0046.23/25/2017 15:0021.23/25/2017 15:0034.73/25/2017 15:0041.93/25/2017 15:000.0
3/25/2017 16:0034.23/25/2017 16:00990.63/25/2017 16:005163/25/2017 16:002533/25/2017 16:001.903/25/2017 16:0047.73/25/2017 16:0021.63/25/2017 16:0034.63/25/2017 16:0042.53/25/2017 16:000.0
3/25/2017 17:0034.43/25/2017 17:00990.23/25/2017 17:002893/25/2017 17:002663/25/2017 17:001.503/25/2017 17:0046.03/25/2017 17:0021.23/25/2017 17:0034.93/25/2017 17:0043.33/25/2017 17:000.0
3/25/2017 18:0033.63/25/2017 18:00990.33/25/2017 18:00823/25/2017 18:002103/25/2017 18:001.403/25/2017 18:0049.13/25/2017 18:0021.53/25/2017 18:0034.63/25/2017 18:0043.93/25/2017 18:000.0
3/25/2017 19:0030.93/25/2017 19:00991.23/25/2017 19:0003/25/2017 19:001433/25/2017 19:001.503/25/2017 19:0059.43/25/2017 19:0022.13/25/2017 19:0033.43/25/2017 19:0043.83/25/2017 19:000.0
3/25/2017 20:0029.73/25/2017 20:00992.33/25/2017 20:0003/25/2017 20:001293/25/2017 20:001.103/25/2017 20:0065.33/25/2017 20:0022.63/25/2017 20:0032.63/25/2017 20:0043.73/25/2017 20:000.0
3/25/2017 21:0028.93/25/2017 21:00993.73/25/2017 21:0003/25/2017 21:00653/25/2017 21:001.903/25/2017 21:0068.13/25/2017 21:0022.53/25/2017 21:0031.83/25/2017 21:0044.13/25/2017 21:000.0
3/25/2017 22:0029.13/25/2017 22:00995.33/25/2017 22:0003/25/2017 22:00733/25/2017 22:004.803/25/2017 22:0066.23/25/2017 22:0022.23/25/2017 22:0031.63/25/2017 22:0044.63/25/2017 22:000.0
3/25/2017 23:0028.23/25/2017 23:00995.53/25/2017 23:0003/25/2017 23:00843/25/2017 23:004.203/25/2017 23:0069.73/25/2017 23:0022.23/25/2017 23:0030.73/25/2017 23:0044.93/25/2017 23:000.0
3/26/2017 0:0027.53/26/2017 0:00995.63/26/2017 0:0003/26/2017 0:00723/26/2017 0:003.503/26/2017 0:0066.53/26/2017 0:0020.83/26/2017 0:0029.83/26/2017 0:0045.63/26/2017 0:000.0
3/26/2017 1:0026.83/26/2017 1:00995.43/26/2017 1:0003/26/2017 1:00673/26/2017 1:003.503/26/2017 1:0065.63/26/2017 1:0019.93/26/2017 1:0029.03/26/2017 1:0045.63/26/2017 1:000.0
3/26/2017 2:0026.13/26/2017 2:00994.33/26/2017 2:0003/26/2017 2:00723/26/2017 2:003.203/26/2017 2:0068.73/26/2017 2:0020.03/26/2017 2:0028.43/26/2017 2:0045.93/26/2017 2:000.0
3/26/2017 3:0025.73/26/2017 3:00993.63/26/2017 3:0003/26/2017 3:00603/26/2017 3:003.903/26/2017 3:0070.93/26/2017 3:0020.13/26/2017 3:0028.03/26/2017 3:0046.33/26/2017 3:000.0
3/26/2017 4:0025.23/26/2017 4:00994.03/26/2017 4:0003/26/2017 4:00583/26/2017 4:003.303/26/2017 4:0072.23/26/2017 4:0019.93/26/2017 4:0027.53/26/2017 4:0046.13/26/2017 4:000.0
3/26/2017 5:0024.83/26/2017 5:00994.43/26/2017 5:0003/26/2017 5:00513/26/2017 5:003.603/26/2017 5:0072.33/26/2017 5:0019.53/26/2017 5:0027.13/26/2017 5:0046.23/26/2017 5:000.0
3/26/2017 6:0024.53/26/2017 6:00995.13/26/2017 6:0003/26/2017 6:00513/26/2017 6:003.903/26/2017 6:0070.93/26/2017 6:0018.93/26/2017 6:0026.73/26/2017 6:0046.53/26/2017 6:000.0
3/26/2017 7:0024.33/26/2017 7:00996.03/26/2017 7:00323/26/2017 7:00453/26/2017 7:004.403/26/2017 7:0067.93/26/2017 7:0018.13/26/2017 7:0026.33/26/2017 7:0046.83/26/2017 7:000.0
3/26/2017 8:0024.73/26/2017 8:00997.23/26/2017 8:002333/26/2017 8:00583/26/2017 8:004.903/26/2017 8:0062.13/26/2017 8:0017.03/26/2017 8:0026.33/26/2017 8:0046.73/26/2017 8:000.0
3/26/2017 9:0025.63/26/2017 9:00998.23/26/2017 9:004063/26/2017 9:00513/26/2017 9:005.603/26/2017 9:0058.03/26/2017 9:0016.83/26/2017 9:0026.83/26/2017 9:0047.53/26/2017 9:000.0
5/14/2017 7:0024.75/14/2017 7:00991.55/14/2017 7:001225/14/2017 7:001225/14/2017 7:001.905/14/2017 7:0091.75/14/2017 7:0023.35/14/2017 7:0027.15/14/2017 7:0090.05/14/2017 7:000.0
5/17/2017 5:0023.85/17/2017 5:00990.05/17/2017 5:0005/17/2017 5:001375/17/2017 5:001.105/17/2017 5:0091.05/17/2017 5:0022.35/17/2017 5:0026.45/17/2017 5:000.15/17/2017 5:000.0
6/1/2017 0:0027.96/1/2017 0:00990.26/1/2017 0:0006/1/2017 0:001376/1/2017 0:001.606/1/2017 0:0086.96/1/2017 0:0025.66/1/2017 0:0031.06/1/2017 0:000.16/1/2017 0:000.0
6/1/2017 1:0027.56/1/2017 1:00989.66/1/2017 1:0006/1/2017 1:001566/1/2017 1:001.906/1/2017 1:0087.56/1/2017 1:0025.36/1/2017 1:0030.66/1/2017 1:000.16/1/2017 1:000.0
6/1/2017 2:0027.36/1/2017 2:00988.96/1/2017 2:0006/1/2017 2:001626/1/2017 2:001.606/1/2017 2:0087.66/1/2017 2:0025.16/1/2017 2:0030.46/1/2017 2:000.16/1/2017 2:000.0
6/1/2017 3:0027.06/1/2017 3:00988.96/1/2017 3:0006/1/2017 3:001506/1/2017 3:001.406/1/2017 3:0088.46/1/2017 3:0025.06/1/2017 3:0030.16/1/2017 3:000.16/1/2017 3:000.0
6/1/2017 4:0026.76/1/2017 4:00988.96/1/2017 4:0006/1/2017 4:001846/1/2017 4:000.806/1/2017 4:0089.16/1/2017 4:0024.86/1/2017 4:0029.86/1/2017 4:000.16/1/2017 4:000.0
6/1/2017 5:0026.66/1/2017 5:00988.86/1/2017 5:0006/1/2017 5:001266/1/2017 5:001.406/1/2017 5:0090.46/1/2017 5:0025.06/1/2017 5:0029.66/1/2017 5:000.16/1/2017 5:000.0
6/1/2017 6:0026.36/1/2017 6:00989.26/1/2017 6:0096/1/2017 6:001126/1/2017 6:001.706/1/2017 6:0091.66/1/2017 6:0024.96/1/2017 6:0029.36/1/2017 6:000.16/1/2017 6:000.0
6/1/2017 7:0026.56/1/2017 7:00989.86/1/2017 7:00916/1/2017 7:001196/1/2017 7:002.406/1/2017 7:0090.16/1/2017 7:0024.86/1/2017 7:0029.26/1/2017 7:000.16/1/2017 7:000.0
6/1/2017 8:0027.96/1/2017 8:00990.26/1/2017 8:002466/1/2017 8:001416/1/2017 8:002.506/1/2017 8:0083.56/1/2017 8:0024.96/1/2017 8:0029.96/1/2017 8:000.16/1/2017 8:000.0
6/1/2017 9:0029.86/1/2017 9:00990.76/1/2017 9:003866/1/2017 9:001976/1/2017 9:002.006/1/2017 9:0074.76/1/2017 9:0024.96/1/2017 9:0031.06/1/2017 9:000.16/1/2017 9:000.0
6/1/2017 10:0030.76/1/2017 10:00990.76/1/2017 10:005396/1/2017 10:001976/1/2017 10:002.106/1/2017 10:0070.66/1/2017 10:0024.86/1/2017 10:0031.86/1/2017 10:000.16/1/2017 10:000.0
6/1/2017 11:0031.96/1/2017 11:00990.46/1/2017 11:005586/1/2017 11:002136/1/2017 11:002.006/1/2017 11:0067.26/1/2017 11:0025.16/1/2017 11:0032.96/1/2017 11:000.16/1/2017 11:000.0
6/1/2017 12:0032.86/1/2017 12:00989.66/1/2017 12:006696/1/2017 12:002206/1/2017 12:002.306/1/2017 12:0064.26/1/2017 12:0025.26/1/2017 12:0033.86/1/2017 12:000.16/1/2017 12:000.0
6/1/2017 13:0033.56/1/2017 13:00988.76/1/2017 13:008586/1/2017 13:002236/1/2017 13:002.806/1/2017 13:0060.86/1/2017 13:0025.06/1/2017 13:0034.66/1/2017 13:000.16/1/2017 13:000.0
6/1/2017 14:0034.06/1/2017 14:00987.76/1/2017 14:007096/1/2017 14:002176/1/2017 14:002.406/1/2017 14:0059.26/1/2017 14:0025.06/1/2017 14:0035.16/1/2017 14:000.16/1/2017 14:000.0
6/1/2017 15:0034.26/1/2017 15:00986.76/1/2017 15:004646/1/2017 15:002106/1/2017 15:002.506/1/2017 15:0058.06/1/2017 15:0024.86/1/2017 15:0035.36/1/2017 15:000.16/1/2017 15:000.0
6/1/2017 16:0034.66/1/2017 16:00986.16/1/2017 16:004636/1/2017 16:002136/1/2017 16:002.606/1/2017 16:0057.26/1/2017 16:0025.06/1/2017 16:0035.66/1/2017 16:000.16/1/2017 16:000.0
6/1/2017 17:0034.26/1/2017 17:00986.06/1/2017 17:002816/1/2017 17:002166/1/2017 17:002.606/1/2017 17:0057.16/1/2017 17:0024.66/1/2017 17:0035.66/1/2017 17:000.16/1/2017 17:000.0
6/1/2017 18:0033.66/1/2017 18:00986.36/1/2017 18:00896/1/2017 18:002056/1/2017 18:001.706/1/2017 18:0060.06/1/2017 18:0024.86/1/2017 18:0035.36/1/2017 18:000.16/1/2017 18:000.0
6/1/2017 19:0032.06/1/2017 19:00986.66/1/2017 19:0086/1/2017 19:002016/1/2017 19:001.106/1/2017 19:0066.66/1/2017 19:0025.16/1/2017 19:0034.56/1/2017 19:000.16/1/2017 19:000.0
6/1/2017 20:0030.86/1/2017 20:00987.36/1/2017 20:0006/1/2017 20:001896/1/2017 20:001.106/1/2017 20:0070.66/1/2017 20:0024.96/1/2017 20:0033.86/1/2017 20:000.16/1/2017 20:000.0
6/1/2017 21:0030.36/1/2017 21:00987.96/1/2017 21:0006/1/2017 21:001796/1/2017 21:001.406/1/2017 21:0072.26/1/2017 21:0024.86/1/2017 21:0033.26/1/2017 21:000.16/1/2017 21:000.0
6/1/2017 22:0029.76/1/2017 22:00988.56/1/2017 22:0006/1/2017 22:001736/1/2017 22:001.206/1/2017 22:0074.36/1/2017 22:0024.76/1/2017 22:0032.66/1/2017 22:000.16/1/2017 22:000.0
6/1/2017 23:0029.16/1/2017 23:00989.16/1/2017 23:0006/1/2017 23:001826/1/2017 23:001.406/1/2017 23:0076.46/1/2017 23:0024.66/1/2017 23:0032.16/1/2017 23:000.16/1/2017 23:000.0
6/2/2017 0:0028.96/2/2017 0:00989.26/2/2017 0:0006/2/2017 0:001806/2/2017 0:001.406/2/2017 0:0076.86/2/2017 0:0024.56/2/2017 0:0031.96/2/2017 0:000.16/2/2017 0:000.0
6/2/2017 1:0028.56/2/2017 1:00988.66/2/2017 1:0006/2/2017 1:001496/2/2017 1:001.106/2/2017 1:0078.96/2/2017 1:0024.66/2/2017 1:0031.46/2/2017 1:000.16/2/2017 1:000.0
6/2/2017 2:0027.96/2/2017 2:00988.26/2/2017 2:0006/2/2017 2:001766/2/2017 2:000.706/2/2017 2:0081.86/2/2017 2:0024.66/2/2017 2:0031.06/2/2017 2:000.16/2/2017 2:000.0
6/2/2017 3:0027.96/2/2017 3:00988.26/2/2017 3:0006/2/2017 3:002116/2/2017 3:001.106/2/2017 3:0081.86/2/2017 3:0024.66/2/2017 3:0030.96/2/2017 3:000.16/2/2017 3:000.0
6/2/2017 4:0027.86/2/2017 4:00988.46/2/2017 4:0006/2/2017 4:002206/2/2017 4:000.506/2/2017 4:0083.46/2/2017 4:0024.86/2/2017 4:0030.96/2/2017 4:000.16/2/2017 4:000.0
6/2/2017 5:0027.56/2/2017 5:00988.66/2/2017 5:0006/2/2017 5:00916/2/2017 5:001.006/2/2017 5:0086.86/2/2017 5:0025.26/2/2017 5:0030.66/2/2017 5:000.16/2/2017 5:000.0
6/2/2017 6:0027.36/2/2017 6:00989.06/2/2017 6:0056/2/2017 6:001266/2/2017 6:001.506/2/2017 6:0088.66/2/2017 6:0025.36/2/2017 6:0030.36/2/2017 6:000.16/2/2017 6:000.0
6/2/2017 7:0027.56/2/2017 7:00989.96/2/2017 7:00786/2/2017 7:001386/2/2017 7:001.906/2/2017 7:0088.26/2/2017 7:0025.46/2/2017 7:0030.46/2/2017 7:000.16/2/2017 7:000.0
6/2/2017 8:0029.56/2/2017 8:00990.36/2/2017 8:002486/2/2017 8:001666/2/2017 8:002.006/2/2017 8:0081.76/2/2017 8:0026.16/2/2017 8:0031.56/2/2017 8:000.16/2/2017 8:000.0
6/2/2017 9:0031.76/2/2017 9:00990.56/2/2017 9:004306/2/2017 9:002006/2/2017 9:002.606/2/2017 9:0072.46/2/2017 9:0026.26/2/2017 9:0032.86/2/2017 9:000.16/2/2017 9:000.0
6/2/2017 10:0032.56/2/2017 10:00990.56/2/2017 10:006666/2/2017 10:002116/2/2017 10:003.006/2/2017 10:0066.56/2/2017 10:0025.56/2/2017 10:0033.76/2/2017 10:000.16/2/2017 10:000.0
6/2/2017 11:0033.06/2/2017 11:00990.16/2/2017 11:005846/2/2017 11:002116/2/2017 11:003.406/2/2017 11:0063.56/2/2017 11:0025.26/2/2017 11:0034.26/2/2017 11:000.16/2/2017 11:000.0
6/2/2017 12:0032.96/2/2017 12:00989.56/2/2017 12:004056/2/2017 12:002156/2/2017 12:002.906/2/2017 12:0063.16/2/2017 12:0025.06/2/2017 12:0034.56/2/2017 12:000.16/2/2017 12:000.0
6/2/2017 13:0033.36/2/2017 13:00988.66/2/2017 13:004876/2/2017 13:002276/2/2017 13:002.306/2/2017 13:0061.06/2/2017 13:0024.86/2/2017 13:0035.06/2/2017 13:000.16/2/2017 13:000.0
6/2/2017 14:0034.36/2/2017 14:00987.76/2/2017 14:006286/2/2017 14:002466/2/2017 14:002.606/2/2017 14:0058.86/2/2017 14:0025.26/2/2017 14:0035.76/2/2017 14:000.16/2/2017 14:000.0
6/2/2017 15:0032.46/2/2017 15:00986.76/2/2017 15:003446/2/2017 15:002386/2/2017 15:003.406/2/2017 15:0064.26/2/2017 15:0024.86/2/2017 15:0033.86/2/2017 15:000.16/2/2017 15:004.8
6/2/2017 16:0028.76/2/2017 16:00986.96/2/2017 16:001536/2/2017 16:002706/2/2017 16:001.806/2/2017 16:0083.56/2/2017 16:0025.76/2/2017 16:0031.76/2/2017 16:000.16/2/2017 16:000.2
6/2/2017 17:0028.66/2/2017 17:00986.96/2/2017 17:00616/2/2017 17:001766/2/2017 17:002.006/2/2017 17:0083.76/2/2017 17:0025.66/2/2017 17:0031.36/2/2017 17:000.16/2/2017 17:000.0
6/2/2017 18:0028.16/2/2017 18:00986.86/2/2017 18:00246/2/2017 18:001436/2/2017 18:001.006/2/2017 18:0085.06/2/2017 18:0025.46/2/2017 18:0031.16/2/2017 18:000.16/2/2017 18:000.1
6/2/2017 19:0027.96/2/2017 19:00987.16/2/2017 19:0036/2/2017 19:001626/2/2017 19:001.206/2/2017 19:0085.16/2/2017 19:0025.26/2/2017 19:0031.26/2/2017 19:000.16/2/2017 19:000.0
6/2/2017 20:0027.76/2/2017 20:00987.86/2/2017 20:0006/2/2017 20:001616/2/2017 20:001.506/2/2017 20:0087.46/2/2017 20:0025.56/2/2017 20:0030.96/2/2017 20:000.16/2/2017 20:000.0
6/2/2017 21:0027.56/2/2017 21:00988.46/2/2017 21:0006/2/2017 21:001716/2/2017 21:001.706/2/2017 21:0088.26/2/2017 21:0025.46/2/2017 21:0030.86/2/2017 21:000.16/2/2017 21:000.0
6/2/2017 22:0027.26/2/2017 22:00988.96/2/2017 22:0006/2/2017 22:001476/2/2017 22:001.106/2/2017 22:0088.16/2/2017 22:0025.16/2/2017 22:0030.46/2/2017 22:000.16/2/2017 22:000.0
6/2/2017 23:0027.26/2/2017 23:00989.46/2/2017 23:0006/2/2017 23:001216/2/2017 23:001.306/2/2017 23:0088.66/2/2017 23:0025.26/2/2017 23:0030.46/2/2017 23:000.16/2/2017 23:000.0
6/3/2017 0:0027.36/3/2017 0:00989.56/3/2017 0:0006/3/2017 0:001636/3/2017 0:001.806/3/2017 0:0086.66/3/2017 0:0024.96/3/2017 0:0030.46/3/2017 0:000.16/3/2017 0:000.0
6/3/2017 1:0027.26/3/2017 1:00989.06/3/2017 1:0006/3/2017 1:001706/3/2017 1:001.906/3/2017 1:0085.36/3/2017 1:0024.66/3/2017 1:0030.26/3/2017 1:000.16/3/2017 1:000.0
6/3/2017 2:0027.36/3/2017 2:00988.36/3/2017 2:0006/3/2017 2:001756/3/2017 2:001.906/3/2017 2:0083.76/3/2017 2:0024.46/3/2017 2:0030.36/3/2017 2:000.16/3/2017 2:000.0
6/3/2017 3:0027.26/3/2017 3:00988.26/3/2017 3:0006/3/2017 3:001676/3/2017 3:001.906/3/2017 3:0083.56/3/2017 3:0024.26/3/2017 3:0030.16/3/2017 3:000.16/3/2017 3:000.0
6/3/2017 4:0026.86/3/2017 4:00988.06/3/2017 4:0006/3/2017 4:001346/3/2017 4:002.806/3/2017 4:0085.76/3/2017 4:0024.36/3/2017 4:0029.76/3/2017 4:000.16/3/2017 4:000.0
6/3/2017 5:0026.46/3/2017 5:00988.26/3/2017 5:0006/3/2017 5:001356/3/2017 5:002.406/3/2017 5:0087.46/3/2017 5:0024.26/3/2017 5:0029.36/3/2017 5:000.16/3/2017 5:000.0
6/3/2017 6:0026.36/3/2017 6:00988.96/3/2017 6:0096/3/2017 6:001526/3/2017 6:001.906/3/2017 6:0088.46/3/2017 6:0024.36/3/2017 6:0029.26/3/2017 6:000.16/3/2017 6:000.0
6/3/2017 7:0027.66/3/2017 7:00989.46/3/2017 7:00696/3/2017 7:001476/3/2017 7:001.306/3/2017 7:0085.26/3/2017 7:0025.06/3/2017 7:0029.46/3/2017 7:000.16/3/2017 7:000.0
6/3/2017 8:0029.36/3/2017 8:00989.86/3/2017 8:002556/3/2017 8:001956/3/2017 8:001.806/3/2017 8:0079.06/3/2017 8:0025.46/3/2017 8:0030.66/3/2017 8:000.16/3/2017 8:000.0
6/3/2017 9:0030.36/3/2017 9:00990.16/3/2017 9:003376/3/2017 9:001836/3/2017 9:001.806/3/2017 9:0075.96/3/2017 9:0025.66/3/2017 9:0031.36/3/2017 9:000.16/3/2017 9:000.0
6/3/2017 10:0031.76/3/2017 10:00990.06/3/2017 10:007926/3/2017 10:001996/3/2017 10:001.706/3/2017 10:0071.06/3/2017 10:0025.96/3/2017 10:0032.66/3/2017 10:000.16/3/2017 10:000.0
6/3/2017 11:0032.76/3/2017 11:00989.46/3/2017 11:004936/3/2017 11:002326/3/2017 11:002.606/3/2017 11:0065.16/3/2017 11:0025.46/3/2017 11:0034.16/3/2017 11:000.16/3/2017 11:000.0
6/3/2017 12:0033.56/3/2017 12:00988.66/3/2017 12:006386/3/2017 12:002506/3/2017 12:003.206/3/2017 12:0060.96/3/2017 12:0025.06/3/2017 12:0035.16/3/2017 12:000.16/3/2017 12:000.0
6/3/2017 13:0034.06/3/2017 13:00987.96/3/2017 13:006316/3/2017 13:002406/3/2017 13:002.906/3/2017 13:0058.26/3/2017 13:0024.76/3/2017 13:0035.46/3/2017 13:000.16/3/2017 13:000.0
6/3/2017 14:0034.36/3/2017 14:00987.16/3/2017 14:007126/3/2017 14:002506/3/2017 14:002.706/3/2017 14:0058.56/3/2017 14:0025.16/3/2017 14:0035.96/3/2017 14:000.16/3/2017 14:000.0
6/3/2017 15:0035.26/3/2017 15:00986.16/3/2017 15:007076/3/2017 15:002396/3/2017 15:003.106/3/2017 15:0054.26/3/2017 15:0024.66/3/2017 15:0036.46/3/2017 15:000.16/3/2017 15:000.0
6/3/2017 16:0034.86/3/2017 16:00985.66/3/2017 16:003746/3/2017 16:002176/3/2017 16:002.606/3/2017 16:0056.56/3/2017 16:0025.06/3/2017 16:0036.26/3/2017 16:000.16/3/2017 16:000.0
6/3/2017 17:0034.56/3/2017 17:00985.26/3/2017 17:002116/3/2017 17:002236/3/2017 17:002.406/3/2017 17:0056.76/3/2017 17:0024.76/3/2017 17:0036.16/3/2017 17:000.16/3/2017 17:000.0
6/3/2017 18:0033.96/3/2017 18:00985.46/3/2017 18:00916/3/2017 18:001966/3/2017 18:001.806/3/2017 18:0059.06/3/2017 18:0024.86/3/2017 18:0035.96/3/2017 18:000.16/3/2017 18:000.0
6/3/2017 19:0032.76/3/2017 19:00986.06/3/2017 19:0076/3/2017 19:001776/3/2017 19:001.906/3/2017 19:0064.36/3/2017 19:0025.26/3/2017 19:0035.26/3/2017 19:000.16/3/2017 19:000.0
6/3/2017 20:0031.66/3/2017 20:00986.86/3/2017 20:0006/3/2017 20:001916/3/2017 20:002.006/3/2017 20:0067.56/3/2017 20:0024.96/3/2017 20:0034.56/3/2017 20:000.16/3/2017 20:000.0
6/3/2017 21:0031.16/3/2017 21:00987.46/3/2017 21:0006/3/2017 21:001886/3/2017 21:002.606/3/2017 21:0068.96/3/2017 21:0024.86/3/2017 21:0033.96/3/2017 21:000.16/3/2017 21:000.0
6/3/2017 22:0029.76/3/2017 22:00988.36/3/2017 22:0006/3/2017 22:001926/3/2017 22:001.806/3/2017 22:0072.76/3/2017 22:0024.36/3/2017 22:0032.36/3/2017 22:000.16/3/2017 22:000.0
6/3/2017 23:0028.66/3/2017 23:00989.16/3/2017 23:0006/3/2017 23:001956/3/2017 23:001.306/3/2017 23:0076.06/3/2017 23:0024.06/3/2017 23:0031.46/3/2017 23:000.16/3/2017 23:000.0
6/4/2017 0:0028.46/4/2017 0:00989.06/4/2017 0:0006/4/2017 0:001886/4/2017 0:001.506/4/2017 0:0078.46/4/2017 0:0024.46/4/2017 0:0031.36/4/2017 0:000.16/4/2017 0:000.0
6/4/2017 1:0027.86/4/2017 1:00987.96/4/2017 1:0006/4/2017 1:001496/4/2017 1:001.506/4/2017 1:0080.86/4/2017 1:0024.36/4/2017 1:0030.76/4/2017 1:000.16/4/2017 1:000.0
6/4/2017 2:0027.26/4/2017 2:00987.26/4/2017 2:0006/4/2017 2:00876/4/2017 2:000.706/4/2017 2:0083.66/4/2017 2:0024.36/4/2017 2:0030.16/4/2017 2:000.16/4/2017 2:000.0
6/4/2017 3:0027.06/4/2017 3:00986.66/4/2017 3:0006/4/2017 3:001356/4/2017 3:001.706/4/2017 3:0086.36/4/2017 3:0024.66/4/2017 3:0030.06/4/2017 3:000.16/4/2017 3:000.0
6/4/2017 4:0027.06/4/2017 4:00986.56/4/2017 4:0006/4/2017 4:001396/4/2017 4:002.006/4/2017 4:0088.06/4/2017 4:0024.96/4/2017 4:0030.06/4/2017 4:000.16/4/2017 4:000.0
6/4/2017 5:0027.06/4/2017 5:00987.06/4/2017 5:0006/4/2017 5:001376/4/2017 5:001.906/4/2017 5:0089.26/4/2017 5:0025.16/4/2017 5:0030.26/4/2017 5:000.16/4/2017 5:000.0
6/4/2017 6:0027.06/4/2017 6:00987.46/4/2017 6:00146/4/2017 6:001426/4/2017 6:002.106/4/2017 6:0089.76/4/2017 6:0025.26/4/2017 6:0030.06/4/2017 6:000.16/4/2017 6:000.0
6/4/2017 7:0028.56/4/2017 7:00987.96/4/2017 7:00586/4/2017 7:001666/4/2017 7:002.406/4/2017 7:0084.56/4/2017 7:0025.76/4/2017 7:0030.66/4/2017 7:000.16/4/2017 7:000.0
6/4/2017 8:0030.06/4/2017 8:00988.26/4/2017 8:002096/4/2017 8:001896/4/2017 8:002.406/4/2017 8:0077.06/4/2017 8:0025.66/4/2017 8:0031.36/4/2017 8:000.16/4/2017 8:000.0
6/4/2017 9:0030.66/4/2017 9:00988.56/4/2017 9:004216/4/2017 9:001886/4/2017 9:002.206/4/2017 9:0073.36/4/2017 9:0025.46/4/2017 9:0031.86/4/2017 9:000.16/4/2017 9:000.0
6/4/2017 10:0031.66/4/2017 10:00988.66/4/2017 10:006736/4/2017 10:002016/4/2017 10:002.106/4/2017 10:0068.16/4/2017 10:0025.16/4/2017 10:0032.66/4/2017 10:000.16/4/2017 10:000.0
6/4/2017 11:0032.66/4/2017 11:00988.26/4/2017 11:004636/4/2017 11:002066/4/2017 11:001.706/4/2017 11:0064.86/4/2017 11:0025.26/4/2017 11:0033.56/4/2017 11:000.16/4/2017 11:000.0
6/4/2017 12:0033.36/4/2017 12:00987.66/4/2017 12:005076/4/2017 12:002216/4/2017 12:002.106/4/2017 12:0060.56/4/2017 12:0024.76/4/2017 12:0034.46/4/2017 12:000.16/4/2017 12:000.0
6/4/2017 13:0034.16/4/2017 13:00986.96/4/2017 13:008206/4/2017 13:002246/4/2017 13:002.306/4/2017 13:0057.36/4/2017 13:0024.56/4/2017 13:0035.26/4/2017 13:000.16/4/2017 13:000.0
6/4/2017 14:0034.86/4/2017 14:00986.06/4/2017 14:006996/4/2017 14:002106/4/2017 14:002.606/4/2017 14:0055.66/4/2017 14:0024.76/4/2017 14:0035.76/4/2017 14:000.16/4/2017 14:000.0
6/4/2017 15:0035.26/4/2017 15:00985.26/4/2017 15:006536/4/2017 15:001956/4/2017 15:002.606/4/2017 15:0054.56/4/2017 15:0024.76/4/2017 15:0035.86/4/2017 15:000.16/4/2017 15:000.0
6/4/2017 16:0035.06/4/2017 16:00984.56/4/2017 16:004746/4/2017 16:002216/4/2017 16:003.106/4/2017 16:0054.26/4/2017 16:0024.46/4/2017 16:0036.16/4/2017 16:000.16/4/2017 16:000.0
6/4/2017 17:0034.76/4/2017 17:00984.26/4/2017 17:002776/4/2017 17:002126/4/2017 17:003.006/4/2017 17:0054.86/4/2017 17:0024.36/4/2017 17:0035.96/4/2017 17:000.16/4/2017 17:000.0
6/4/2017 18:0032.76/4/2017 18:00984.46/4/2017 18:00596/4/2017 18:002016/4/2017 18:002.406/4/2017 18:0062.06/4/2017 18:0024.56/4/2017 18:0034.96/4/2017 18:000.16/4/2017 18:000.0
6/4/2017 19:0031.96/4/2017 19:00985.26/4/2017 19:00106/4/2017 19:002026/4/2017 19:001.806/4/2017 19:0065.36/4/2017 19:0024.76/4/2017 19:0034.46/4/2017 19:000.16/4/2017 19:000.0
6/4/2017 20:0031.16/4/2017 20:00986.16/4/2017 20:0006/4/2017 20:001966/4/2017 20:001.506/4/2017 20:0068.56/4/2017 20:0024.76/4/2017 20:0033.96/4/2017 20:000.16/4/2017 20:000.0
6/4/2017 21:0030.76/4/2017 21:00987.26/4/2017 21:0006/4/2017 21:001906/4/2017 21:001.806/4/2017 21:0070.46/4/2017 21:0024.86/4/2017 21:0033.66/4/2017 21:000.16/4/2017 21:000.0
6/4/2017 22:0030.16/4/2017 22:00988.16/4/2017 22:0006/4/2017 22:001726/4/2017 22:001.506/4/2017 22:0074.06/4/2017 22:0025.06/4/2017 22:0033.06/4/2017 22:000.16/4/2017 22:000.0
6/4/2017 23:0029.36/4/2017 23:00988.46/4/2017 23:0006/4/2017 23:001646/4/2017 23:001.306/4/2017 23:0077.86/4/2017 23:0025.16/4/2017 23:0032.36/4/2017 23:000.16/4/2017 23:000.0
6/5/2017 0:0028.96/5/2017 0:00988.46/5/2017 0:0006/5/2017 0:001646/5/2017 0:001.506/5/2017 0:0078.56/5/2017 0:0024.96/5/2017 0:0031.96/5/2017 0:000.16/5/2017 0:000.0
6/5/2017 1:0028.46/5/2017 1:00988.06/5/2017 1:0006/5/2017 1:001626/5/2017 1:001.606/5/2017 1:0080.16/5/2017 1:0024.76/5/2017 1:0031.56/5/2017 1:000.16/5/2017 1:000.0
6/5/2017 2:0028.26/5/2017 2:00987.56/5/2017 2:0006/5/2017 2:001756/5/2017 2:001.906/5/2017 2:0080.46/5/2017 2:0024.66/5/2017 2:0031.26/5/2017 2:000.16/5/2017 2:000.0
6/5/2017 3:0027.96/5/2017 3:00987.16/5/2017 3:0006/5/2017 3:001706/5/2017 3:002.306/5/2017 3:0081.76/5/2017 3:0024.66/5/2017 3:0030.86/5/2017 3:000.16/5/2017 3:000.0
6/5/2017 4:0027.56/5/2017 4:00987.36/5/2017 4:0006/5/2017 4:001656/5/2017 4:002.206/5/2017 4:0083.26/5/2017 4:0024.56/5/2017 4:0030.56/5/2017 4:000.16/5/2017 4:000.0
6/5/2017 5:0027.16/5/2017 5:00987.16/5/2017 5:0006/5/2017 5:001516/5/2017 5:002.606/5/2017 5:0084.46/5/2017 5:0024.36/5/2017 5:0030.16/5/2017 5:000.16/5/2017 5:000.0
6/5/2017 6:0026.96/5/2017 6:00987.96/5/2017 6:0066/5/2017 6:001366/5/2017 6:001.706/5/2017 6:0084.06/5/2017 6:0024.06/5/2017 6:0029.86/5/2017 6:000.16/5/2017 6:000.0
6/5/2017 7:0027.36/5/2017 7:00988.96/5/2017 7:00806/5/2017 7:001206/5/2017 7:002.206/5/2017 7:0083.86/5/2017 7:0024.46/5/2017 7:0029.96/5/2017 7:000.16/5/2017 7:000.0
6/5/2017 8:0028.66/5/2017 8:00989.46/5/2017 8:002326/5/2017 8:001346/5/2017 8:003.106/5/2017 8:0079.06/5/2017 8:0024.76/5/2017 8:0030.46/5/2017 8:000.16/5/2017 8:000.0
6/5/2017 9:0030.36/5/2017 9:00989.46/5/2017 9:004206/5/2017 9:001946/5/2017 9:002.406/5/2017 9:0070.46/5/2017 9:0024.46/5/2017 9:0031.36/5/2017 9:000.16/5/2017 9:000.0
6/5/2017 10:0031.46/5/2017 10:00989.46/5/2017 10:006386/5/2017 10:001866/5/2017 10:002.106/5/2017 10:0065.66/5/2017 10:0024.36/5/2017 10:0032.06/5/2017 10:000.16/5/2017 10:000.0
6/5/2017 11:0032.16/5/2017 11:00988.86/5/2017 11:005356/5/2017 11:001836/5/2017 11:002.206/5/2017 11:0062.06/5/2017 11:0024.06/5/2017 11:0032.76/5/2017 11:000.16/5/2017 11:000.0
6/5/2017 12:0033.06/5/2017 12:00987.96/5/2017 12:007556/5/2017 12:001876/5/2017 12:002.206/5/2017 12:0059.46/5/2017 12:0024.16/5/2017 12:0033.56/5/2017 12:000.16/5/2017 12:000.0
6/5/2017 13:0032.96/5/2017 13:00987.16/5/2017 13:007536/5/2017 13:002366/5/2017 13:002.106/5/2017 13:0059.86/5/2017 13:0024.16/5/2017 13:0033.96/5/2017 13:000.16/5/2017 13:000.0
6/5/2017 14:0032.16/5/2017 14:00986.46/5/2017 14:004326/5/2017 14:002216/5/2017 14:002.706/5/2017 14:0064.76/5/2017 14:0024.76/5/2017 14:0033.46/5/2017 14:000.16/5/2017 14:000.0
6/5/2017 15:0031.26/5/2017 15:00985.56/5/2017 15:004426/5/2017 15:001626/5/2017 15:002.306/5/2017 15:0072.26/5/2017 15:0025.76/5/2017 15:0032.76/5/2017 15:000.16/5/2017 15:000.0
6/5/2017 16:0033.66/5/2017 16:00984.66/5/2017 16:005836/5/2017 16:001946/5/2017 16:001.706/5/2017 16:0059.66/5/2017 16:0024.76/5/2017 16:0034.16/5/2017 16:000.16/5/2017 16:000.0
6/5/2017 17:0034.26/5/2017 17:00984.76/5/2017 17:003246/5/2017 17:002286/5/2017 17:001.206/5/2017 17:0055.66/5/2017 17:0024.16/5/2017 17:0034.76/5/2017 17:000.16/5/2017 17:000.0
6/5/2017 18:0032.46/5/2017 18:00984.86/5/2017 18:001526/5/2017 18:003126/5/2017 18:002.206/5/2017 18:0064.16/5/2017 18:0024.86/5/2017 18:0033.76/5/2017 18:000.16/5/2017 18:000.0
6/5/2017 19:0029.06/5/2017 19:00985.76/5/2017 19:0076/5/2017 19:003476/5/2017 19:002.106/5/2017 19:0074.96/5/2017 19:0024.26/5/2017 19:0031.46/5/2017 19:000.16/5/2017 19:000.0
6/5/2017 20:0028.06/5/2017 20:00986.76/5/2017 20:0006/5/2017 20:00516/5/2017 20:001.306/5/2017 20:0077.26/5/2017 20:0023.76/5/2017 20:0030.86/5/2017 20:000.16/5/2017 20:000.0
6/5/2017 21:0028.16/5/2017 21:00987.86/5/2017 21:0006/5/2017 21:00766/5/2017 21:001.206/5/2017 21:0078.66/5/2017 21:0024.16/5/2017 21:0031.06/5/2017 21:000.16/5/2017 21:000.0
6/5/2017 22:0028.16/5/2017 22:00988.56/5/2017 22:0006/5/2017 22:00566/5/2017 22:001.006/5/2017 22:0079.36/5/2017 22:0024.36/5/2017 22:0031.06/5/2017 22:000.16/5/2017 22:000.0
6/5/2017 23:0028.06/5/2017 23:00989.16/5/2017 23:0006/5/2017 23:001176/5/2017 23:001.306/5/2017 23:0082.76/5/2017 23:0024.96/5/2017 23:0030.96/5/2017 23:000.16/5/2017 23:000.0
6/6/2017 0:0027.76/6/2017 0:00989.06/6/2017 0:0006/6/2017 0:001166/6/2017 0:001.906/6/2017 0:0084.76/6/2017 0:0025.06/6/2017 0:0030.76/6/2017 0:000.16/6/2017 0:000.0
6/6/2017 1:0027.96/6/2017 1:00988.66/6/2017 1:0006/6/2017 1:001436/6/2017 1:002.906/6/2017 1:0084.66/6/2017 1:0025.16/6/2017 1:0031.06/6/2017 1:000.16/6/2017 1:000.0
6/6/2017 2:0027.96/6/2017 2:00988.16/6/2017 2:0006/6/2017 2:001646/6/2017 2:002.306/6/2017 2:0083.16/6/2017 2:0024.86/6/2017 2:0031.06/6/2017 2:000.16/6/2017 2:000.0
6/6/2017 3:0027.56/6/2017 3:00988.06/6/2017 3:0006/6/2017 3:001626/6/2017 3:002.106/6/2017 3:0081.96/6/2017 3:0024.26/6/2017 3:0030.46/6/2017 3:000.16/6/2017 3:000.0
6/6/2017 4:0026.96/6/2017 4:00988.36/6/2017 4:0006/6/2017 4:001416/6/2017 4:002.006/6/2017 4:0084.16/6/2017 4:0024.16/6/2017 4:0029.96/6/2017 4:000.16/6/2017 4:000.0
6/6/2017 5:0026.36/6/2017 5:00988.86/6/2017 5:0006/6/2017 5:00886/6/2017 5:001.406/6/2017 5:0087.66/6/2017 5:0024.26/6/2017 5:0029.26/6/2017 5:000.16/6/2017 5:000.0
6/6/2017 6:0026.06/6/2017 6:00989.36/6/2017 6:00166/6/2017 6:001046/6/2017 6:002.106/6/2017 6:0088.66/6/2017 6:0024.06/6/2017 6:0028.86/6/2017 6:000.16/6/2017 6:000.0
6/6/2017 7:0026.96/6/2017 7:00989.76/6/2017 7:00586/6/2017 7:001236/6/2017 7:002.706/6/2017 7:0086.26/6/2017 7:0024.56/6/2017 7:0029.06/6/2017 7:000.16/6/2017 7:000.0
6/6/2017 8:0028.76/6/2017 8:00990.26/6/2017 8:001976/6/2017 8:001386/6/2017 8:002.506/6/2017 8:0079.76/6/2017 8:0024.96/6/2017 8:0030.06/6/2017 8:000.16/6/2017 8:000.0
6/6/2017 9:0030.06/6/2017 9:00990.66/6/2017 9:003906/6/2017 9:001566/6/2017 9:001.906/6/2017 9:0072.86/6/2017 9:0024.76/6/2017 9:0030.96/6/2017 9:000.16/6/2017 9:000.0
6/6/2017 10:0030.66/6/2017 10:00990.86/6/2017 10:005876/6/2017 10:001536/6/2017 10:002.506/6/2017 10:0070.56/6/2017 10:0024.76/6/2017 10:0031.56/6/2017 10:000.16/6/2017 10:000.0
6/6/2017 11:0031.26/6/2017 11:00990.56/6/2017 11:004576/6/2017 11:001626/6/2017 11:002.006/6/2017 11:0068.36/6/2017 11:0024.76/6/2017 11:0032.26/6/2017 11:000.16/6/2017 11:000.0
6/6/2017 12:0031.56/6/2017 12:00989.76/6/2017 12:005386/6/2017 12:001766/6/2017 12:002.406/6/2017 12:0068.16/6/2017 12:0025.06/6/2017 12:0032.86/6/2017 12:000.16/6/2017 12:000.0
6/6/2017 13:0032.56/6/2017 13:00988.86/6/2017 13:009536/6/2017 13:001536/6/2017 13:003.006/6/2017 13:0064.46/6/2017 13:0025.06/6/2017 13:0033.66/6/2017 13:000.36/6/2017 13:000.0
6/6/2017 14:0033.56/6/2017 14:00987.66/6/2017 14:006426/6/2017 14:001746/6/2017 14:001.906/6/2017 14:0059.76/6/2017 14:0024.76/6/2017 14:0034.46/6/2017 14:000.66/6/2017 14:000.0
6/6/2017 15:0034.46/6/2017 15:00986.56/6/2017 15:006946/6/2017 15:001686/6/2017 15:001.806/6/2017 15:0056.46/6/2017 15:0024.66/6/2017 15:0034.76/6/2017 15:001.16/6/2017 15:000.0
6/6/2017 16:0035.16/6/2017 16:00985.56/6/2017 16:005956/6/2017 16:002026/6/2017 16:002.106/6/2017 16:0054.06/6/2017 16:0024.56/6/2017 16:0035.56/6/2017 16:001.96/6/2017 16:000.0
6/6/2017 17:0035.36/6/2017 17:00985.36/6/2017 17:003976/6/2017 17:001626/6/2017 17:002.506/6/2017 17:0053.06/6/2017 17:0024.36/6/2017 17:0035.56/6/2017 17:002.76/6/2017 17:000.0
6/6/2017 18:0034.56/6/2017 18:00985.86/6/2017 18:001586/6/2017 18:001656/6/2017 18:002.406/6/2017 18:0055.26/6/2017 18:0024.36/6/2017 18:0035.36/6/2017 18:003.56/6/2017 18:000.0
6/6/2017 19:0031.76/6/2017 19:00986.96/6/2017 19:0026/6/2017 19:001466/6/2017 19:002.406/6/2017 19:0064.86/6/2017 19:0024.36/6/2017 19:0034.46/6/2017 19:003.36/6/2017 19:000.0
6/6/2017 20:0030.36/6/2017 20:00988.06/6/2017 20:0006/6/2017 20:001246/6/2017 20:001.606/6/2017 20:0072.56/6/2017 20:0024.96/6/2017 20:0033.26/6/2017 20:003.46/6/2017 20:000.0
6/6/2017 21:0029.96/6/2017 21:00988.86/6/2017 21:0006/6/2017 21:001686/6/2017 21:001.006/6/2017 21:0072.76/6/2017 21:0024.56/6/2017 21:0033.06/6/2017 21:003.46/6/2017 21:000.0
6/6/2017 22:0029.76/6/2017 22:00989.56/6/2017 22:0006/6/2017 22:001556/6/2017 22:001.506/6/2017 22:0075.66/6/2017 22:0025.06/6/2017 22:0032.76/6/2017 22:003.96/6/2017 22:000.0
6/6/2017 23:0029.26/6/2017 23:00990.06/6/2017 23:0006/6/2017 23:001376/6/2017 23:001.006/6/2017 23:0079.36/6/2017 23:0025.36/6/2017 23:0032.16/6/2017 23:004.16/6/2017 23:000.0
6/7/2017 0:0028.56/7/2017 0:00989.86/7/2017 0:0006/7/2017 0:001226/7/2017 0:001.406/7/2017 0:0082.36/7/2017 0:0025.36/7/2017 0:0031.66/7/2017 0:004.26/7/2017 0:000.0
6/7/2017 1:0027.76/7/2017 1:00989.56/7/2017 1:0006/7/2017 1:00456/7/2017 1:001.706/7/2017 1:0084.16/7/2017 1:0024.86/7/2017 1:0030.56/7/2017 1:004.26/7/2017 1:000.0
6/7/2017 2:0027.56/7/2017 2:00989.16/7/2017 2:0006/7/2017 2:001236/7/2017 2:000.706/7/2017 2:0084.76/7/2017 2:0024.86/7/2017 2:0030.76/7/2017 2:004.46/7/2017 2:000.0
6/7/2017 3:0027.06/7/2017 3:00989.26/7/2017 3:0006/7/2017 3:003596/7/2017 3:001.406/7/2017 3:0085.76/7/2017 3:0024.56/7/2017 3:0029.76/7/2017 3:004.76/7/2017 3:000.0
6/7/2017 4:0026.26/7/2017 4:00989.66/7/2017 4:0006/7/2017 4:003496/7/2017 4:001.806/7/2017 4:0087.16/7/2017 4:0024.06/7/2017 4:0029.06/7/2017 4:004.96/7/2017 4:000.0
6/7/2017 5:0025.56/7/2017 5:00990.06/7/2017 5:0006/7/2017 5:00226/7/2017 5:002.306/7/2017 5:0089.86/7/2017 5:0023.86/7/2017 5:0028.36/7/2017 5:004.86/7/2017 5:000.4
6/7/2017 6:0025.46/7/2017 6:00990.06/7/2017 6:0016/7/2017 6:003336/7/2017 6:000.806/7/2017 6:0092.16/7/2017 6:0024.16/7/2017 6:0028.26/7/2017 6:003.46/7/2017 6:003.0
6/7/2017 7:0025.56/7/2017 7:00990.76/7/2017 7:00346/7/2017 7:00866/7/2017 7:000.906/7/2017 7:0093.26/7/2017 7:0024.46/7/2017 7:0028.46/7/2017 7:000.76/7/2017 7:002.6
6/7/2017 8:0026.26/7/2017 8:00991.26/7/2017 8:001046/7/2017 8:001086/7/2017 8:001.706/7/2017 8:0093.16/7/2017 8:0025.16/7/2017 8:0029.16/7/2017 8:000.16/7/2017 8:000.1
6/7/2017 9:0026.96/7/2017 9:00991.66/7/2017 9:003226/7/2017 9:001216/7/2017 9:002.506/7/2017 9:0089.06/7/2017 9:0025.06/7/2017 9:0029.46/7/2017 9:000.16/7/2017 9:000.0
6/7/2017 10:0027.86/7/2017 10:00992.16/7/2017 10:003426/7/2017 10:001316/7/2017 10:002.806/7/2017 10:0084.36/7/2017 10:0025.06/7/2017 10:0030.16/7/2017 10:000.26/7/2017 10:000.0
6/7/2017 11:0027.16/7/2017 11:00991.76/7/2017 11:002916/7/2017 11:00366/7/2017 11:003.006/7/2017 11:0086.96/7/2017 11:0024.86/7/2017 11:0029.56/7/2017 11:000.16/7/2017 11:000.1
6/7/2017 12:0028.26/7/2017 12:00990.76/7/2017 12:006536/7/2017 12:00396/7/2017 12:001.906/7/2017 12:0083.86/7/2017 12:0025.36/7/2017 12:0030.46/7/2017 12:000.16/7/2017 12:000.0
6/7/2017 13:0030.86/7/2017 13:00989.76/7/2017 13:0010096/7/2017 13:00506/7/2017 13:001.406/7/2017 13:0071.96/7/2017 13:0025.26/7/2017 13:0031.86/7/2017 13:000.46/7/2017 13:000.0
6/7/2017 14:0031.76/7/2017 14:00988.66/7/2017 14:007046/7/2017 14:00896/7/2017 14:001.506/7/2017 14:0066.76/7/2017 14:0024.86/7/2017 14:0032.66/7/2017 14:000.96/7/2017 14:000.0
6/7/2017 15:0031.86/7/2017 15:00987.56/7/2017 15:005606/7/2017 15:0026/7/2017 15:001.506/7/2017 15:0066.16/7/2017 15:0024.86/7/2017 15:0033.16/7/2017 15:001.06/7/2017 15:000.0
6/7/2017 16:0032.26/7/2017 16:00986.76/7/2017 16:004706/7/2017 16:00606/7/2017 16:001.206/7/2017 16:0064.06/7/2017 16:0024.66/7/2017 16:0033.36/7/2017 16:001.46/7/2017 16:000.0
6/7/2017 17:0033.96/7/2017 17:00986.46/7/2017 17:004376/7/2017 17:002896/7/2017 17:000.906/7/2017 17:0057.66/7/2017 17:0024.46/7/2017 17:0033.86/7/2017 17:002.26/7/2017 17:000.0
6/7/2017 18:0032.86/7/2017 18:00986.66/7/2017 18:001386/7/2017 18:00816/7/2017 18:001.606/7/2017 18:0061.26/7/2017 18:0024.46/7/2017 18:0033.66/7/2017 18:002.86/7/2017 18:000.0
6/7/2017 19:0029.16/7/2017 19:00987.56/7/2017 19:0006/7/2017 19:00956/7/2017 19:002.306/7/2017 19:0072.96/7/2017 19:0023.86/7/2017 19:0031.96/7/2017 19:002.36/7/2017 19:000.0
6/7/2017 20:0028.66/7/2017 20:00988.36/7/2017 20:0006/7/2017 20:001616/7/2017 20:002.606/7/2017 20:0077.96/7/2017 20:0024.46/7/2017 20:0031.36/7/2017 20:002.86/7/2017 20:000.0
6/7/2017 21:0027.26/7/2017 21:00989.36/7/2017 21:0006/7/2017 21:001446/7/2017 21:002.406/7/2017 21:0081.06/7/2017 21:0023.76/7/2017 21:0029.96/7/2017 21:003.16/7/2017 21:000.0
6/7/2017 22:0027.06/7/2017 22:00990.26/7/2017 22:0006/7/2017 22:001386/7/2017 22:002.206/7/2017 22:0081.56/7/2017 22:0023.66/7/2017 22:0029.86/7/2017 22:003.56/7/2017 22:000.0
6/7/2017 23:0026.86/7/2017 23:00991.06/7/2017 23:0006/7/2017 23:00466/7/2017 23:002.206/7/2017 23:0086.06/7/2017 23:0024.36/7/2017 23:0029.76/7/2017 23:003.86/7/2017 23:000.0
6/8/2017 0:0025.96/8/2017 0:00991.06/8/2017 0:0006/8/2017 0:00726/8/2017 0:002.806/8/2017 0:0090.26/8/2017 0:0024.26/8/2017 0:0028.76/8/2017 0:002.26/8/2017 0:0011.9
6/8/2017 1:0025.36/8/2017 1:00990.06/8/2017 1:0006/8/2017 1:00636/8/2017 1:001.706/8/2017 1:0094.86/8/2017 1:0024.56/8/2017 1:0028.56/8/2017 1:000.16/8/2017 1:001.6
6/8/2017 2:0025.36/8/2017 2:00989.36/8/2017 2:0006/8/2017 2:00696/8/2017 2:001.506/8/2017 2:0094.36/8/2017 2:0024.46/8/2017 2:0028.46/8/2017 2:000.16/8/2017 2:000.0
6/8/2017 3:0025.06/8/2017 3:00988.86/8/2017 3:0006/8/2017 3:00726/8/2017 3:001.706/8/2017 3:0093.66/8/2017 3:0024.06/8/2017 3:0028.06/8/2017 3:000.16/8/2017 3:000.0
6/8/2017 4:0025.06/8/2017 4:00988.76/8/2017 4:0016/8/2017 4:00666/8/2017 4:001.806/8/2017 4:0093.36/8/2017 4:0023.96/8/2017 4:0028.06/8/2017 4:000.16/8/2017 4:000.0
6/8/2017 5:0025.26/8/2017 5:00988.76/8/2017 5:0006/8/2017 5:00636/8/2017 5:001.506/8/2017 5:0094.06/8/2017 5:0024.26/8/2017 5:0028.16/8/2017 5:000.16/8/2017 5:000.0
6/8/2017 6:0025.26/8/2017 6:00989.26/8/2017 6:0046/8/2017 6:00846/8/2017 6:001.706/8/2017 6:0094.26/8/2017 6:0024.36/8/2017 6:0028.26/8/2017 6:000.16/8/2017 6:000.0
6/8/2017 7:0025.46/8/2017 7:00989.96/8/2017 7:00296/8/2017 7:00596/8/2017 7:001.906/8/2017 7:0094.46/8/2017 7:0024.56/8/2017 7:0028.36/8/2017 7:000.16/8/2017 7:000.0
6/8/2017 8:0025.66/8/2017 8:00990.56/8/2017 8:00366/8/2017 8:00806/8/2017 8:001.706/8/2017 8:0094.06/8/2017 8:0024.66/8/2017 8:0028.56/8/2017 8:000.16/8/2017 8:000.0
6/8/2017 9:0026.06/8/2017 9:00990.76/8/2017 9:001086/8/2017 9:001136/8/2017 9:002.006/8/2017 9:0092.56/8/2017 9:0024.86/8/2017 9:0028.96/8/2017 9:000.16/8/2017 9:000.0
6/8/2017 10:0026.86/8/2017 10:00990.86/8/2017 10:002736/8/2017 10:001366/8/2017 10:002.406/8/2017 10:0089.16/8/2017 10:0024.96/8/2017 10:0029.36/8/2017 10:000.16/8/2017 10:000.0
6/8/2017 11:0027.36/8/2017 11:00990.36/8/2017 11:001826/8/2017 11:001266/8/2017 11:002.606/8/2017 11:0086.56/8/2017 11:0024.96/8/2017 11:0029.66/8/2017 11:000.16/8/2017 11:009.3
6/8/2017 12:0025.96/8/2017 12:00990.16/8/2017 12:002496/8/2017 12:001186/8/2017 12:002.406/8/2017 12:0092.16/8/2017 12:0024.66/8/2017 12:0028.66/8/2017 12:000.16/8/2017 12:000.8
6/8/2017 13:0026.66/8/2017 13:00989.56/8/2017 13:002506/8/2017 13:001346/8/2017 13:002.506/8/2017 13:0089.06/8/2017 13:0024.76/8/2017 13:0028.86/8/2017 13:000.16/8/2017 13:000.7
6/8/2017 14:0025.26/8/2017 14:00988.86/8/2017 14:00806/8/2017 14:001366/8/2017 14:001.706/8/2017 14:0092.66/8/2017 14:0024.06/8/2017 14:0027.76/8/2017 14:000.16/8/2017 14:005.1
6/8/2017 15:0025.26/8/2017 15:00987.86/8/2017 15:001446/8/2017 15:001036/8/2017 15:001.706/8/2017 15:0093.76/8/2017 15:0024.26/8/2017 15:0027.86/8/2017 15:000.16/8/2017 15:000.3
6/8/2017 16:0025.96/8/2017 16:00987.56/8/2017 16:001776/8/2017 16:001276/8/2017 16:001.306/8/2017 16:0092.16/8/2017 16:0024.66/8/2017 16:0028.46/8/2017 16:000.16/8/2017 16:000.0
6/8/2017 17:0026.26/8/2017 17:00987.06/8/2017 17:002336/8/2017 17:00586/8/2017 17:001.806/8/2017 17:0090.26/8/2017 17:0024.56/8/2017 17:0028.76/8/2017 17:000.16/8/2017 17:000.0
6/8/2017 18:0026.46/8/2017 18:00987.16/8/2017 18:001296/8/2017 18:00636/8/2017 18:001.606/8/2017 18:0089.16/8/2017 18:0024.56/8/2017 18:0028.96/8/2017 18:000.16/8/2017 18:000.0
6/8/2017 19:0026.06/8/2017 19:00987.66/8/2017 19:00156/8/2017 19:00626/8/2017 19:002.106/8/2017 19:0090.16/8/2017 19:0024.36/8/2017 19:0028.76/8/2017 19:000.16/8/2017 19:000.0
6/8/2017 20:0025.66/8/2017 20:00988.06/8/2017 20:0006/8/2017 20:00786/8/2017 20:002.106/8/2017 20:0091.76/8/2017 20:0024.26/8/2017 20:0028.56/8/2017 20:000.16/8/2017 20:000.0
6/8/2017 21:0025.46/8/2017 21:00988.66/8/2017 21:0006/8/2017 21:00786/8/2017 21:002.106/8/2017 21:0092.56/8/2017 21:0024.26/8/2017 21:0028.36/8/2017 21:000.16/8/2017 21:000.0
6/8/2017 22:0025.36/8/2017 22:00989.26/8/2017 22:0006/8/2017 22:001176/8/2017 22:001.506/8/2017 22:0093.26/8/2017 22:0024.26/8/2017 22:0028.36/8/2017 22:000.16/8/2017 22:000.0
6/8/2017 23:0025.26/8/2017 23:00989.96/8/2017 23:0006/8/2017 23:00756/8/2017 23:000.606/8/2017 23:0093.86/8/2017 23:0024.26/8/2017 23:0028.26/8/2017 23:000.16/8/2017 23:000.0
6/9/2017 0:0025.06/9/2017 0:00989.96/9/2017 0:0006/9/2017 0:00666/9/2017 0:001.206/9/2017 0:0094.66/9/2017 0:0024.16/9/2017 0:0027.96/9/2017 0:000.16/9/2017 0:000.0
6/9/2017 1:0024.86/9/2017 1:00989.56/9/2017 1:0006/9/2017 1:00806/9/2017 1:001.306/9/2017 1:0094.86/9/2017 1:0024.06/9/2017 1:0027.76/9/2017 1:000.16/9/2017 1:000.0
6/9/2017 2:0024.96/9/2017 2:00989.16/9/2017 2:0006/9/2017 2:00996/9/2017 2:001.106/9/2017 2:0094.86/9/2017 2:0024.16/9/2017 2:0027.86/9/2017 2:000.16/9/2017 2:000.0
6/9/2017 3:0024.96/9/2017 3:00988.76/9/2017 3:0006/9/2017 3:001126/9/2017 3:001.206/9/2017 3:0095.06/9/2017 3:0024.16/9/2017 3:0027.86/9/2017 3:000.16/9/2017 3:000.0
6/9/2017 4:0024.96/9/2017 4:00988.56/9/2017 4:0006/9/2017 4:00416/9/2017 4:001.206/9/2017 4:0095.66/9/2017 4:0024.26/9/2017 4:0027.86/9/2017 4:000.16/9/2017 4:000.0
6/9/2017 5:0024.96/9/2017 5:00988.66/9/2017 5:0006/9/2017 5:00536/9/2017 5:001.506/9/2017 5:0095.86/9/2017 5:0024.36/9/2017 5:0027.86/9/2017 5:000.16/9/2017 5:000.0
6/9/2017 6:0025.06/9/2017 6:00988.86/9/2017 6:0066/9/2017 6:00656/9/2017 6:001.306/9/2017 6:0095.86/9/2017 6:0024.46/9/2017 6:0028.06/9/2017 6:000.16/9/2017 6:000.0
6/9/2017 7:0025.46/9/2017 7:00989.46/9/2017 7:00616/9/2017 7:001186/9/2017 7:001.406/9/2017 7:0095.16/9/2017 7:0024.66/9/2017 7:0028.36/9/2017 7:000.16/9/2017 7:000.0
6/9/2017 8:0026.16/9/2017 8:00990.16/9/2017 8:001366/9/2017 8:001426/9/2017 8:002.406/9/2017 8:0092.76/9/2017 8:0024.96/9/2017 8:0028.86/9/2017 8:000.16/9/2017 8:000.0
6/9/2017 9:0027.06/9/2017 9:00990.16/9/2017 9:002286/9/2017 9:001496/9/2017 9:001.906/9/2017 9:0088.76/9/2017 9:0025.16/9/2017 9:0029.36/9/2017 9:000.16/9/2017 9:000.0
6/9/2017 10:0028.06/9/2017 10:00990.36/9/2017 10:003626/9/2017 10:001526/9/2017 10:002.706/9/2017 10:0083.76/9/2017 10:0025.16/9/2017 10:0029.86/9/2017 10:000.16/9/2017 10:000.0
6/9/2017 11:0028.26/9/2017 11:00990.16/9/2017 11:003326/9/2017 11:001646/9/2017 11:002.306/9/2017 11:0081.76/9/2017 11:0024.86/9/2017 11:0030.26/9/2017 11:000.16/9/2017 11:000.0
6/9/2017 12:0029.76/9/2017 12:00989.56/9/2017 12:006666/9/2017 12:001576/9/2017 12:002.306/9/2017 12:0075.36/9/2017 12:0024.96/9/2017 12:0030.86/9/2017 12:000.16/9/2017 12:000.0
6/9/2017 13:0030.46/9/2017 13:00988.76/9/2017 13:008526/9/2017 13:001646/9/2017 13:002.106/9/2017 13:0072.16/9/2017 13:0024.96/9/2017 13:0031.46/9/2017 13:000.16/9/2017 13:000.0
6/9/2017 14:0032.16/9/2017 14:00987.86/9/2017 14:0010286/9/2017 14:002116/9/2017 14:001.706/9/2017 14:0065.66/9/2017 14:0024.96/9/2017 14:0032.76/9/2017 14:000.16/9/2017 14:000.0
6/9/2017 15:0032.26/9/2017 15:00986.96/9/2017 15:007446/9/2017 15:002356/9/2017 15:002.006/9/2017 15:0061.46/9/2017 15:0023.96/9/2017 15:0033.16/9/2017 15:000.16/9/2017 15:000.0
6/9/2017 16:0032.36/9/2017 16:00986.36/9/2017 16:003116/9/2017 16:001596/9/2017 16:002.006/9/2017 16:0062.86/9/2017 16:0024.46/9/2017 16:0033.16/9/2017 16:000.16/9/2017 16:000.0
6/9/2017 17:0028.46/9/2017 17:00986.36/9/2017 17:00866/9/2017 17:001536/9/2017 17:003.606/9/2017 17:0080.66/9/2017 17:0024.86/9/2017 17:0030.86/9/2017 17:000.16/9/2017 17:001.3
6/9/2017 18:0027.96/9/2017 18:00986.96/9/2017 18:00386/9/2017 18:001496/9/2017 18:003.106/9/2017 18:0084.26/9/2017 18:0025.16/9/2017 18:0030.86/9/2017 18:000.16/9/2017 18:000.0
6/9/2017 19:0027.66/9/2017 19:00987.86/9/2017 19:0026/9/2017 19:001666/9/2017 19:002.206/9/2017 19:0084.96/9/2017 19:0024.96/9/2017 19:0030.46/9/2017 19:000.16/9/2017 19:000.0
6/9/2017 20:0027.06/9/2017 20:00988.66/9/2017 20:0006/9/2017 20:002326/9/2017 20:002.106/9/2017 20:0085.16/9/2017 20:0024.46/9/2017 20:0029.86/9/2017 20:000.16/9/2017 20:000.0
6/9/2017 21:0026.26/9/2017 21:00989.86/9/2017 21:0006/9/2017 21:002946/9/2017 21:001.006/9/2017 21:0084.26/9/2017 21:0023.46/9/2017 21:0028.96/9/2017 21:000.16/9/2017 21:000.0
6/9/2017 22:0025.86/9/2017 22:00990.56/9/2017 22:0006/9/2017 22:00446/9/2017 22:001.106/9/2017 22:0087.76/9/2017 22:0023.76/9/2017 22:0028.46/9/2017 22:000.16/9/2017 22:000.8
6/9/2017 23:0025.46/9/2017 23:00990.96/9/2017 23:0006/9/2017 23:00176/9/2017 23:001.006/9/2017 23:0090.56/9/2017 23:0023.86/9/2017 23:0028.26/9/2017 23:000.16/9/2017 23:000.0
6/10/2017 0:0025.46/10/2017 0:00990.96/10/2017 0:0006/10/2017 0:00386/10/2017 0:000.906/10/2017 0:0091.76/10/2017 0:0024.06/10/2017 0:0028.26/10/2017 0:000.16/10/2017 0:000.0
6/10/2017 1:0025.46/10/2017 1:00990.26/10/2017 1:0006/10/2017 1:00466/10/2017 1:001.006/10/2017 1:0092.06/10/2017 1:0024.16/10/2017 1:0028.36/10/2017 1:000.16/10/2017 1:000.0
6/10/2017 2:0025.46/10/2017 2:00989.96/10/2017 2:0006/10/2017 2:00746/10/2017 2:001.306/10/2017 2:0093.26/10/2017 2:0024.36/10/2017 2:0028.36/10/2017 2:000.16/10/2017 2:000.0
6/10/2017 3:0025.46/10/2017 3:00989.46/10/2017 3:0006/10/2017 3:00526/10/2017 3:001.006/10/2017 3:0093.16/10/2017 3:0024.36/10/2017 3:0028.26/10/2017 3:000.16/10/2017 3:000.0
6/10/2017 4:0025.36/10/2017 4:00989.26/10/2017 4:0006/10/2017 4:001236/10/2017 4:001.906/10/2017 4:0093.76/10/2017 4:0024.36/10/2017 4:0028.26/10/2017 4:000.16/10/2017 4:000.0
6/10/2017 5:0025.16/10/2017 5:00989.46/10/2017 5:0006/10/2017 5:001266/10/2017 5:002.206/10/2017 5:0093.06/10/2017 5:0024.06/10/2017 5:0028.06/10/2017 5:000.16/10/2017 5:000.0
6/10/2017 6:0025.16/10/2017 6:00989.66/10/2017 6:0026/10/2017 6:001336/10/2017 6:001.906/10/2017 6:0092.76/10/2017 6:0023.96/10/2017 6:0027.96/10/2017 6:000.16/10/2017 6:000.0
6/10/2017 7:0025.26/10/2017 7:00990.16/10/2017 7:00206/10/2017 7:001136/10/2017 7:001.706/10/2017 7:0092.86/10/2017 7:0024.06/10/2017 7:0028.06/10/2017 7:000.16/10/2017 7:000.1
6/10/2017 8:0025.26/10/2017 8:00990.76/10/2017 8:00346/10/2017 8:001116/10/2017 8:001.606/10/2017 8:0093.56/10/2017 8:0024.26/10/2017 8:0028.06/10/2017 8:000.16/10/2017 8:000.8
6/10/2017 9:0025.86/10/2017 9:00991.06/10/2017 9:001616/10/2017 9:001046/10/2017 9:001.406/10/2017 9:0093.16/10/2017 9:0024.76/10/2017 9:0028.56/10/2017 9:000.16/10/2017 9:000.0
6/10/2017 10:0027.96/10/2017 10:00991.26/10/2017 10:003436/10/2017 10:001926/10/2017 10:001.606/10/2017 10:0086.76/10/2017 10:0025.66/10/2017 10:0030.16/10/2017 10:000.16/10/2017 10:000.0
6/10/2017 11:0027.26/10/2017 11:00991.46/10/2017 11:002226/10/2017 11:002926/10/2017 11:002.706/10/2017 11:0084.06/10/2017 11:0024.36/10/2017 11:0029.06/10/2017 11:000.16/10/2017 11:000.3
6/10/2017 12:0024.36/10/2017 12:00991.46/10/2017 12:00346/10/2017 12:003546/10/2017 12:002.006/10/2017 12:0092.86/10/2017 12:0023.16/10/2017 12:0026.96/10/2017 12:000.16/10/2017 12:0012.7
6/10/2017 13:0024.46/10/2017 13:00990.56/10/2017 13:00846/10/2017 13:00226/10/2017 13:001.606/10/2017 13:0093.86/10/2017 13:0023.46/10/2017 13:0027.16/10/2017 13:000.16/10/2017 13:001.1
6/10/2017 14:0025.06/10/2017 14:00990.46/10/2017 14:001676/10/2017 14:0006/10/2017 14:001.506/10/2017 14:0092.16/10/2017 14:0023.76/10/2017 14:0027.66/10/2017 14:000.16/10/2017 14:000.1
6/10/2017 15:0026.16/10/2017 15:00990.06/10/2017 15:002596/10/2017 15:002016/10/2017 15:001.606/10/2017 15:0089.26/10/2017 15:0024.36/10/2017 15:0028.36/10/2017 15:000.16/10/2017 15:000.0
6/10/2017 16:0026.36/10/2017 16:00989.16/10/2017 16:002206/10/2017 16:001976/10/2017 16:001.206/10/2017 16:0086.06/10/2017 16:0023.86/10/2017 16:0028.36/10/2017 16:000.16/10/2017 16:000.2
6/10/2017 17:0026.46/10/2017 17:00988.16/10/2017 17:001526/10/2017 17:001976/10/2017 17:000.706/10/2017 17:0085.56/10/2017 17:0023.86/10/2017 17:0028.46/10/2017 17:000.16/10/2017 17:000.0
6/10/2017 18:0026.36/10/2017 18:00987.66/10/2017 18:00866/10/2017 18:003136/10/2017 18:001.106/10/2017 18:0085.96/10/2017 18:0023.86/10/2017 18:0028.66/10/2017 18:000.16/10/2017 18:000.0
6/10/2017 19:0026.06/10/2017 19:00988.96/10/2017 19:0066/10/2017 19:00826/10/2017 19:001.906/10/2017 19:0088.66/10/2017 19:0024.06/10/2017 19:0028.76/10/2017 19:000.16/10/2017 19:000.0
6/10/2017 20:0025.66/10/2017 20:00989.76/10/2017 20:0006/10/2017 20:001206/10/2017 20:002.306/10/2017 20:0091.56/10/2017 20:0024.26/10/2017 20:0028.46/10/2017 20:000.16/10/2017 20:000.0
6/10/2017 21:0025.36/10/2017 21:00990.26/10/2017 21:0006/10/2017 21:001256/10/2017 21:002.306/10/2017 21:0092.96/10/2017 21:0024.16/10/2017 21:0028.16/10/2017 21:000.16/10/2017 21:000.0
6/10/2017 22:0024.96/10/2017 22:00990.86/10/2017 22:0006/10/2017 22:001626/10/2017 22:001.306/10/2017 22:0093.76/10/2017 22:0023.96/10/2017 22:0027.86/10/2017 22:000.16/10/2017 22:000.0
6/10/2017 23:0024.86/10/2017 23:00991.66/10/2017 23:0006/10/2017 23:001656/10/2017 23:001.306/10/2017 23:0094.26/10/2017 23:0023.96/10/2017 23:0027.66/10/2017 23:000.16/10/2017 23:000.0
6/11/2017 0:0024.76/11/2017 0:00991.56/11/2017 0:0006/11/2017 0:001496/11/2017 0:001.506/11/2017 0:0094.26/11/2017 0:0023.86/11/2017 0:0027.56/11/2017 0:000.16/11/2017 0:000.2
6/11/2017 1:0024.66/11/2017 1:00990.76/11/2017 1:0006/11/2017 1:001006/11/2017 1:001.506/11/2017 1:0094.66/11/2017 1:0023.86/11/2017 1:0027.56/11/2017 1:000.16/11/2017 1:000.1
6/11/2017 2:0024.36/11/2017 2:00990.56/11/2017 2:0006/11/2017 2:001856/11/2017 2:002.306/11/2017 2:0094.76/11/2017 2:0023.56/11/2017 2:0027.16/11/2017 2:000.16/11/2017 2:003.9
6/11/2017 3:0024.06/11/2017 3:00990.26/11/2017 3:0006/11/2017 3:002036/11/2017 3:001.706/11/2017 3:0095.66/11/2017 3:0023.36/11/2017 3:0026.96/11/2017 3:000.16/11/2017 3:002.9
6/11/2017 4:0024.16/11/2017 4:00990.36/11/2017 4:0006/11/2017 4:001646/11/2017 4:001.506/11/2017 4:0095.96/11/2017 4:0023.56/11/2017 4:0027.06/11/2017 4:000.16/11/2017 4:001.8
6/11/2017 5:0024.06/11/2017 5:00990.46/11/2017 5:0006/11/2017 5:001786/11/2017 5:001.206/11/2017 5:0096.16/11/2017 5:0023.46/11/2017 5:0026.96/11/2017 5:000.16/11/2017 5:000.5
6/11/2017 6:0024.16/11/2017 6:00990.76/11/2017 6:0066/11/2017 6:001736/11/2017 6:000.906/11/2017 6:0096.46/11/2017 6:0023.66/11/2017 6:0027.06/11/2017 6:000.16/11/2017 6:000.3
6/11/2017 7:0024.86/11/2017 7:00991.26/11/2017 7:001236/11/2017 7:001736/11/2017 7:001.206/11/2017 7:0095.66/11/2017 7:0024.16/11/2017 7:0027.46/11/2017 7:0048.36/11/2017 7:000.1
6/11/2017 8:0025.96/11/2017 8:00991.76/11/2017 8:002366/11/2017 8:001596/11/2017 8:001.506/11/2017 8:0092.66/11/2017 8:0024.76/11/2017 8:0028.06/11/2017 8:0050.46/11/2017 8:000.0
6/11/2017 9:0027.16/11/2017 9:00992.36/11/2017 9:003416/11/2017 9:002036/11/2017 9:001.506/11/2017 9:0087.66/11/2017 9:0024.96/11/2017 9:0028.96/11/2017 9:0016.76/11/2017 9:005.7
6/11/2017 10:0027.76/11/2017 10:00992.36/11/2017 10:004396/11/2017 10:001656/11/2017 10:001.606/11/2017 10:0083.86/11/2017 10:0024.86/11/2017 10:0029.26/11/2017 10:009.86/11/2017 10:000.0
6/11/2017 11:0028.66/11/2017 11:00991.76/11/2017 11:005146/11/2017 11:002236/11/2017 11:002.106/11/2017 11:0078.26/11/2017 11:0024.56/11/2017 11:0030.06/11/2017 11:0010.06/11/2017 11:000.0
6/11/2017 12:0029.46/11/2017 12:00991.06/11/2017 12:006336/11/2017 12:002466/11/2017 12:002.406/11/2017 12:0074.36/11/2017 12:0024.46/11/2017 12:0031.06/11/2017 12:0010.16/11/2017 12:000.0
6/11/2017 13:0030.46/11/2017 13:00990.36/11/2017 13:007096/11/2017 13:002636/11/2017 13:002.406/11/2017 13:0070.26/11/2017 13:0024.46/11/2017 13:0031.86/11/2017 13:0010.46/11/2017 13:000.0
6/11/2017 14:0030.46/11/2017 14:00989.66/11/2017 14:005556/11/2017 14:002526/11/2017 14:002.606/11/2017 14:0069.76/11/2017 14:0024.36/11/2017 14:0032.06/11/2017 14:0010.86/11/2017 14:000.0
6/11/2017 15:0030.86/11/2017 15:00988.56/11/2017 15:004726/11/2017 15:002626/11/2017 15:001.806/11/2017 15:0069.06/11/2017 15:0024.56/11/2017 15:0032.36/11/2017 15:0011.06/11/2017 15:000.0
6/11/2017 16:0031.16/11/2017 16:00987.66/11/2017 16:003326/11/2017 16:002656/11/2017 16:001.906/11/2017 16:0068.36/11/2017 16:0024.66/11/2017 16:0032.86/11/2017 16:0011.56/11/2017 16:000.0
6/11/2017 17:0031.36/11/2017 17:00987.36/11/2017 17:003186/11/2017 17:002416/11/2017 17:002.506/11/2017 17:0067.36/11/2017 17:0024.66/11/2017 17:0033.06/11/2017 17:0011.96/11/2017 17:000.0
6/11/2017 18:0030.66/11/2017 18:00987.56/11/2017 18:001236/11/2017 18:002486/11/2017 18:002.506/11/2017 18:0069.16/11/2017 18:0024.46/11/2017 18:0032.76/11/2017 18:0012.56/11/2017 18:000.0
6/11/2017 19:0029.56/11/2017 19:00988.26/11/2017 19:0096/11/2017 19:002296/11/2017 19:002.006/11/2017 19:0072.86/11/2017 19:0024.26/11/2017 19:0032.26/11/2017 19:0012.56/11/2017 19:000.0
6/11/2017 20:0029.06/11/2017 20:00989.16/11/2017 20:0006/11/2017 20:002406/11/2017 20:002.006/11/2017 20:0075.56/11/2017 20:0024.36/11/2017 20:0031.76/11/2017 20:0012.96/11/2017 20:000.0
6/11/2017 21:0028.56/11/2017 21:00990.06/11/2017 21:0006/11/2017 21:002056/11/2017 21:001.206/11/2017 21:0077.86/11/2017 21:0024.36/11/2017 21:0031.36/11/2017 21:0013.16/11/2017 21:000.0
6/11/2017 22:0028.06/11/2017 22:00990.56/11/2017 22:0006/11/2017 22:001736/11/2017 22:001.306/11/2017 22:0081.46/11/2017 22:0024.66/11/2017 22:0030.86/11/2017 22:0012.96/11/2017 22:000.0
6/11/2017 23:0027.66/11/2017 23:00990.86/11/2017 23:0006/11/2017 23:001846/11/2017 23:001.206/11/2017 23:0083.16/11/2017 23:0024.56/11/2017 23:0030.56/11/2017 23:0013.16/11/2017 23:000.0
6/12/2017 0:0027.46/12/2017 0:00990.66/12/2017 0:0006/12/2017 0:001766/12/2017 0:000.806/12/2017 0:0084.16/12/2017 0:0024.66/12/2017 0:0030.36/12/2017 0:0013.36/12/2017 0:000.0
6/12/2017 1:0027.26/12/2017 1:00989.96/12/2017 1:0006/12/2017 1:001666/12/2017 1:000.606/12/2017 1:0085.86/12/2017 1:0024.76/12/2017 1:0030.16/12/2017 1:0013.56/12/2017 1:000.0
6/12/2017 2:0027.16/12/2017 2:00989.46/12/2017 2:0006/12/2017 2:001116/12/2017 2:001.006/12/2017 2:0087.96/12/2017 2:0025.06/12/2017 2:0030.06/12/2017 2:0013.96/12/2017 2:000.0
6/12/2017 3:0026.86/12/2017 3:00988.76/12/2017 3:0006/12/2017 3:001416/12/2017 3:001.206/12/2017 3:0089.16/12/2017 3:0024.96/12/2017 3:0029.86/12/2017 3:0014.06/12/2017 3:000.0
6/12/2017 4:0026.86/12/2017 4:00988.76/12/2017 4:0006/12/2017 4:001246/12/2017 4:000.806/12/2017 4:0089.76/12/2017 4:0025.06/12/2017 4:0029.86/12/2017 4:0014.06/12/2017 4:000.0
6/12/2017 5:0026.76/12/2017 5:00988.86/12/2017 5:0006/12/2017 5:001256/12/2017 5:000.506/12/2017 5:0090.36/12/2017 5:0025.16/12/2017 5:0029.76/12/2017 5:0014.06/12/2017 5:000.0
6/12/2017 6:0026.66/12/2017 6:00989.06/12/2017 6:0066/12/2017 6:002086/12/2017 6:000.606/12/2017 6:0090.76/12/2017 6:0025.06/12/2017 6:0029.66/12/2017 6:0014.26/12/2017 6:000.0
6/12/2017 7:0027.16/12/2017 7:00989.66/12/2017 7:00746/12/2017 7:002596/12/2017 7:001.906/12/2017 7:0090.16/12/2017 7:0025.46/12/2017 7:0030.06/12/2017 7:0014.16/12/2017 7:000.0
6/12/2017 8:0027.36/12/2017 8:00989.96/12/2017 8:00696/12/2017 8:002646/12/2017 8:001.706/12/2017 8:0088.86/12/2017 8:0025.46/12/2017 8:0030.26/12/2017 8:0014.06/12/2017 8:000.0
6/12/2017 9:0027.56/12/2017 9:00990.46/12/2017 9:00926/12/2017 9:002876/12/2017 9:001.206/12/2017 9:0087.46/12/2017 9:0025.36/12/2017 9:0030.26/12/2017 9:0014.16/12/2017 9:000.0
6/12/2017 10:0028.06/12/2017 10:00990.46/12/2017 10:001996/12/2017 10:002896/12/2017 10:001.306/12/2017 10:0086.06/12/2017 10:0025.56/12/2017 10:0030.46/12/2017 10:0014.26/12/2017 10:000.0
6/12/2017 11:0028.86/12/2017 11:00989.76/12/2017 11:003596/12/2017 11:002996/12/2017 11:001.606/12/2017 11:0081.76/12/2017 11:0025.46/12/2017 11:0030.96/12/2017 11:0014.36/12/2017 11:000.0
6/12/2017 12:0029.16/12/2017 12:00989.36/12/2017 12:002546/12/2017 12:003396/12/2017 12:001.806/12/2017 12:0079.96/12/2017 12:0025.46/12/2017 12:0031.26/12/2017 12:0014.86/12/2017 12:000.0
6/12/2017 13:0029.16/12/2017 13:00989.36/12/2017 13:002536/12/2017 13:003336/12/2017 13:001.806/12/2017 13:0078.66/12/2017 13:0025.16/12/2017 13:0031.46/12/2017 13:0014.36/12/2017 13:000.0
6/12/2017 14:0029.76/12/2017 14:00988.76/12/2017 14:002526/12/2017 14:002596/12/2017 14:001.206/12/2017 14:0075.66/12/2017 14:0025.06/12/2017 14:0031.56/12/2017 14:0014.96/12/2017 14:000.0
6/12/2017 15:0030.06/12/2017 15:00987.96/12/2017 15:002966/12/2017 15:002386/12/2017 15:001.306/12/2017 15:0075.16/12/2017 15:0025.26/12/2017 15:0031.86/12/2017 15:0015.16/12/2017 15:000.0
6/12/2017 16:0029.56/12/2017 16:00987.46/12/2017 16:001936/12/2017 16:002506/12/2017 16:002.406/12/2017 16:0072.46/12/2017 16:0024.16/12/2017 16:0031.76/12/2017 16:0015.16/12/2017 16:000.0
6/12/2017 17:0029.36/12/2017 17:00987.36/12/2017 17:001436/12/2017 17:002476/12/2017 17:001.806/12/2017 17:0072.76/12/2017 17:0024.06/12/2017 17:0031.56/12/2017 17:0015.16/12/2017 17:000.0
6/12/2017 18:0028.86/12/2017 18:00987.46/12/2017 18:00446/12/2017 18:002226/12/2017 18:001.406/12/2017 18:0074.46/12/2017 18:0023.96/12/2017 18:0031.36/12/2017 18:0015.46/12/2017 18:000.0
6/12/2017 19:0028.36/12/2017 19:00988.06/12/2017 19:0066/12/2017 19:002056/12/2017 19:000.806/12/2017 19:0077.96/12/2017 19:0024.26/12/2017 19:0031.06/12/2017 19:0015.56/12/2017 19:000.0
6/12/2017 20:0027.96/12/2017 20:00988.66/12/2017 20:0006/12/2017 20:001966/12/2017 20:000.806/12/2017 20:0079.96/12/2017 20:0024.26/12/2017 20:0030.76/12/2017 20:0015.46/12/2017 20:000.0
6/12/2017 21:0027.66/12/2017 21:00989.56/12/2017 21:0006/12/2017 21:001456/12/2017 21:001.206/12/2017 21:0082.96/12/2017 21:0024.56/12/2017 21:0030.46/12/2017 21:0015.76/12/2017 21:000.0
6/12/2017 22:0027.36/12/2017 22:00990.06/12/2017 22:0006/12/2017 22:001476/12/2017 22:001.706/12/2017 22:0084.66/12/2017 22:0024.66/12/2017 22:0030.26/12/2017 22:0016.06/12/2017 22:000.0
6/12/2017 23:0027.26/12/2017 23:00990.46/12/2017 23:0006/12/2017 23:001446/12/2017 23:001.206/12/2017 23:0085.66/12/2017 23:0024.76/12/2017 23:0030.06/12/2017 23:0016.16/12/2017 23:000.0
6/13/2017 0:0027.06/13/2017 0:00990.36/13/2017 0:0006/13/2017 0:001636/13/2017 0:001.106/13/2017 0:0087.26/13/2017 0:0024.86/13/2017 0:0029.96/13/2017 0:0016.26/13/2017 0:000.0
6/13/2017 1:0026.96/13/2017 1:00989.96/13/2017 1:0006/13/2017 1:001536/13/2017 1:001.506/13/2017 1:0088.26/13/2017 1:0024.96/13/2017 1:0029.96/13/2017 1:0016.36/13/2017 1:000.0
6/13/2017 2:0026.76/13/2017 2:00989.46/13/2017 2:0006/13/2017 2:001316/13/2017 2:001.706/13/2017 2:0090.06/13/2017 2:0025.06/13/2017 2:0029.76/13/2017 2:0016.06/13/2017 2:000.0
6/13/2017 3:0026.56/13/2017 3:00989.06/13/2017 3:0006/13/2017 3:001256/13/2017 3:001.706/13/2017 3:0091.66/13/2017 3:0025.16/13/2017 3:0029.56/13/2017 3:0015.96/13/2017 3:000.0
6/13/2017 4:0026.36/13/2017 4:00988.86/13/2017 4:0006/13/2017 4:00996/13/2017 4:001.406/13/2017 4:0092.66/13/2017 4:0025.16/13/2017 4:0029.26/13/2017 4:0016.06/13/2017 4:000.0
6/13/2017 5:0026.06/13/2017 5:00989.16/13/2017 5:0006/13/2017 5:00876/13/2017 5:001.506/13/2017 5:0093.26/13/2017 5:0024.96/13/2017 5:0029.06/13/2017 5:0015.86/13/2017 5:000.4
6/13/2017 6:0025.86/13/2017 6:00989.36/13/2017 6:0046/13/2017 6:00886/13/2017 6:001.806/13/2017 6:0093.56/13/2017 6:0024.76/13/2017 6:0028.86/13/2017 6:0015.96/13/2017 6:000.0
6/13/2017 7:0025.96/13/2017 7:00989.96/13/2017 7:00326/13/2017 7:00826/13/2017 7:001.506/13/2017 7:0092.96/13/2017 7:0024.76/13/2017 7:0028.96/13/2017 7:0015.76/13/2017 7:000.0
6/13/2017 8:0026.36/13/2017 8:00990.46/13/2017 8:001326/13/2017 8:00866/13/2017 8:001.906/13/2017 8:0091.76/13/2017 8:0024.96/13/2017 8:0029.16/13/2017 8:0016.06/13/2017 8:000.0
6/13/2017 9:0027.26/13/2017 9:00990.76/13/2017 9:002626/13/2017 9:001106/13/2017 9:001.906/13/2017 9:0088.56/13/2017 9:0025.26/13/2017 9:0029.66/13/2017 9:0016.26/13/2017 9:000.0
6/13/2017 10:0028.66/13/2017 10:00990.86/13/2017 10:004266/13/2017 10:001256/13/2017 10:001.706/13/2017 10:0082.96/13/2017 10:0025.56/13/2017 10:0030.46/13/2017 10:0016.36/13/2017 10:000.0
6/13/2017 11:0030.46/13/2017 11:00990.66/13/2017 11:006116/13/2017 11:001006/13/2017 11:001.406/13/2017 11:0075.46/13/2017 11:0025.66/13/2017 11:0031.26/13/2017 11:0016.76/13/2017 11:000.0
6/13/2017 12:0032.06/13/2017 12:00990.16/13/2017 12:007596/13/2017 12:002176/13/2017 12:001.206/13/2017 12:0068.06/13/2017 12:0025.46/13/2017 12:0032.66/13/2017 12:0017.06/13/2017 12:000.0
6/13/2017 13:0032.76/13/2017 13:00989.26/13/2017 13:007936/13/2017 13:002186/13/2017 13:001.306/13/2017 13:0064.86/13/2017 13:0025.36/13/2017 13:0033.36/13/2017 13:0016.96/13/2017 13:000.0
6/13/2017 14:0033.36/13/2017 14:00988.46/13/2017 14:005616/13/2017 14:00356/13/2017 14:001.006/13/2017 14:0063.46/13/2017 14:0025.56/13/2017 14:0033.96/13/2017 14:0017.16/13/2017 14:000.0
6/13/2017 15:0032.16/13/2017 15:00987.76/13/2017 15:002726/13/2017 15:001906/13/2017 15:001.406/13/2017 15:0066.96/13/2017 15:0025.36/13/2017 15:0033.56/13/2017 15:0017.56/13/2017 15:000.0
6/13/2017 16:0029.86/13/2017 16:00987.76/13/2017 16:002486/13/2017 16:001636/13/2017 16:004.006/13/2017 16:0074.56/13/2017 16:0024.96/13/2017 16:0031.56/13/2017 16:0017.96/13/2017 16:000.4
6/13/2017 17:0024.66/13/2017 17:00988.56/13/2017 17:00206/13/2017 17:001566/13/2017 17:003.206/13/2017 17:0088.76/13/2017 17:0022.76/13/2017 17:0027.26/13/2017 17:0016.56/13/2017 17:002.8
6/13/2017 18:0024.96/13/2017 18:00988.56/13/2017 18:00226/13/2017 18:001656/13/2017 18:002.406/13/2017 18:0090.76/13/2017 18:0023.46/13/2017 18:0027.66/13/2017 18:0016.06/13/2017 18:000.2
6/13/2017 19:0025.36/13/2017 19:00989.06/13/2017 19:0026/13/2017 19:001476/13/2017 19:002.006/13/2017 19:0091.46/13/2017 19:0023.96/13/2017 19:0028.26/13/2017 19:0016.46/13/2017 19:000.0
6/13/2017 20:0025.46/13/2017 20:00989.46/13/2017 20:0006/13/2017 20:001356/13/2017 20:001.706/13/2017 20:0092.36/13/2017 20:0024.16/13/2017 20:0028.36/13/2017 20:0016.66/13/2017 20:000.0
6/13/2017 21:0025.16/13/2017 21:00990.36/13/2017 21:0006/13/2017 21:001126/13/2017 21:002.206/13/2017 21:0092.76/13/2017 21:0023.96/13/2017 21:0027.96/13/2017 21:0017.26/13/2017 21:000.0
6/13/2017 22:0025.06/13/2017 22:00991.36/13/2017 22:0006/13/2017 22:001246/13/2017 22:001.206/13/2017 22:0092.86/13/2017 22:0023.86/13/2017 22:0027.96/13/2017 22:0017.46/13/2017 22:000.0
6/13/2017 23:0025.06/13/2017 23:00991.76/13/2017 23:0006/13/2017 23:00886/13/2017 23:001.906/13/2017 23:0093.36/13/2017 23:0023.96/13/2017 23:0027.86/13/2017 23:0017.56/13/2017 23:000.0
6/14/2017 0:0024.96/14/2017 0:00991.76/14/2017 0:0006/14/2017 0:003456/14/2017 0:001.206/14/2017 0:0092.96/14/2017 0:0023.76/14/2017 0:0027.86/14/2017 0:0018.16/14/2017 0:005.5
6/14/2017 1:0024.86/14/2017 1:00991.26/14/2017 1:0006/14/2017 1:00226/14/2017 1:001.506/14/2017 1:0093.86/14/2017 1:0023.86/14/2017 1:0027.76/14/2017 1:0017.86/14/2017 1:002.2
6/14/2017 2:0024.26/14/2017 2:00990.96/14/2017 2:0006/14/2017 2:00956/14/2017 2:001.006/14/2017 2:0092.86/14/2017 2:0023.06/14/2017 2:0027.16/14/2017 2:0017.76/14/2017 2:000.0
6/14/2017 3:0024.36/14/2017 3:00990.46/14/2017 3:0006/14/2017 3:00166/14/2017 3:000.906/14/2017 3:0093.26/14/2017 3:0023.26/14/2017 3:0027.16/14/2017 3:0017.76/14/2017 3:000.0
6/14/2017 4:0024.36/14/2017 4:00990.26/14/2017 4:0006/14/2017 4:001226/14/2017 4:000.706/14/2017 4:0094.06/14/2017 4:0023.36/14/2017 4:0027.26/14/2017 4:0017.96/14/2017 4:000.0
6/14/2017 5:0024.56/14/2017 5:00990.56/14/2017 5:0006/14/2017 5:001026/14/2017 5:001.306/14/2017 5:0094.36/14/2017 5:0023.66/14/2017 5:0027.46/14/2017 5:0017.96/14/2017 5:000.0
6/14/2017 6:0024.76/14/2017 6:00990.56/14/2017 6:00186/14/2017 6:00996/14/2017 6:001.006/14/2017 6:0094.86/14/2017 6:0023.96/14/2017 6:0027.56/14/2017 6:0018.06/14/2017 6:000.0
6/14/2017 7:0025.26/14/2017 7:00991.26/14/2017 7:00636/14/2017 7:00766/14/2017 7:001.006/14/2017 7:0094.46/14/2017 7:0024.36/14/2017 7:0027.96/14/2017 7:0018.16/14/2017 7:000.0
6/14/2017 8:0025.66/14/2017 8:00991.86/14/2017 8:001276/14/2017 8:001136/14/2017 8:001.706/14/2017 8:0093.46/14/2017 8:0024.56/14/2017 8:0028.36/14/2017 8:0018.16/14/2017 8:000.0
6/14/2017 9:0027.06/14/2017 9:00992.16/14/2017 9:003436/14/2017 9:001156/14/2017 9:001.806/14/2017 9:0089.16/14/2017 9:0025.16/14/2017 9:0029.06/14/2017 9:0018.26/14/2017 9:000.0
6/14/2017 10:0027.96/14/2017 10:00992.16/14/2017 10:002846/14/2017 10:001266/14/2017 10:001.206/14/2017 10:0084.86/14/2017 10:0025.26/14/2017 10:0029.86/14/2017 10:0018.76/14/2017 10:000.0
6/14/2017 11:0029.26/14/2017 11:00991.86/14/2017 11:004576/14/2017 11:001156/14/2017 11:001.306/14/2017 11:0079.36/14/2017 11:0025.36/14/2017 11:0030.36/14/2017 11:0018.66/14/2017 11:000.0
6/14/2017 12:0030.56/14/2017 12:00991.16/14/2017 12:007246/14/2017 12:002356/14/2017 12:001.506/14/2017 12:0073.36/14/2017 12:0025.36/14/2017 12:0031.76/14/2017 12:0019.06/14/2017 12:000.0
6/14/2017 13:0031.76/14/2017 13:00990.46/14/2017 13:008936/14/2017 13:001916/14/2017 13:001.606/14/2017 13:0068.36/14/2017 13:0025.26/14/2017 13:0032.46/14/2017 13:0018.76/14/2017 13:000.0
6/14/2017 14:0032.36/14/2017 14:00989.86/14/2017 14:006366/14/2017 14:002256/14/2017 14:001.106/14/2017 14:0065.36/14/2017 14:0025.06/14/2017 14:0033.16/14/2017 14:0018.96/14/2017 14:000.0
6/14/2017 15:0032.56/14/2017 15:00989.06/14/2017 15:003446/14/2017 15:001076/14/2017 15:001.106/14/2017 15:0064.66/14/2017 15:0025.06/14/2017 15:0033.56/14/2017 15:0019.26/14/2017 15:000.0
6/14/2017 16:0032.06/14/2017 16:00988.46/14/2017 16:005106/14/2017 16:003326/14/2017 16:001.806/14/2017 16:0068.66/14/2017 16:0025.66/14/2017 16:0033.46/14/2017 16:0019.66/14/2017 16:000.0
6/14/2017 17:0031.46/14/2017 17:00988.16/14/2017 17:003956/14/2017 17:00756/14/2017 17:003.106/14/2017 17:0071.66/14/2017 17:0025.76/14/2017 17:0032.86/14/2017 17:0020.46/14/2017 17:000.1
6/14/2017 18:0028.86/14/2017 18:00988.46/14/2017 18:001086/14/2017 18:001156/14/2017 18:002.306/14/2017 18:0079.66/14/2017 18:0025.06/14/2017 18:0031.36/14/2017 18:0020.46/14/2017 18:000.0
6/14/2017 19:0028.46/14/2017 19:00989.26/14/2017 19:0026/14/2017 19:002196/14/2017 19:001.906/14/2017 19:0084.26/14/2017 19:0025.66/14/2017 19:0031.16/14/2017 19:0020.56/14/2017 19:000.0
6/14/2017 20:0027.46/14/2017 20:00990.56/14/2017 20:0006/14/2017 20:002016/14/2017 20:002.906/14/2017 20:0086.16/14/2017 20:0024.96/14/2017 20:0030.36/14/2017 20:0020.66/14/2017 20:000.0
6/14/2017 21:0025.96/14/2017 21:00991.36/14/2017 21:0006/14/2017 21:002236/14/2017 21:003.206/14/2017 21:0085.46/14/2017 21:0023.36/14/2017 21:0028.56/14/2017 21:0021.26/14/2017 21:000.0
6/14/2017 22:0025.46/14/2017 22:00992.06/14/2017 22:0006/14/2017 22:001916/14/2017 22:001.806/14/2017 22:0089.06/14/2017 22:0023.56/14/2017 22:0028.06/14/2017 22:0021.36/14/2017 22:000.6
6/14/2017 23:0025.16/14/2017 23:00991.96/14/2017 23:0006/14/2017 23:002316/14/2017 23:000.806/14/2017 23:0091.06/14/2017 23:0023.66/14/2017 23:0027.96/14/2017 23:0021.26/14/2017 23:000.2
6/15/2017 0:0025.16/15/2017 0:00992.36/15/2017 0:0006/15/2017 0:001626/15/2017 0:001.006/15/2017 0:0091.66/15/2017 0:0023.76/15/2017 0:0027.96/15/2017 0:0021.26/15/2017 0:000.0
6/15/2017 1:0025.26/15/2017 1:00991.66/15/2017 1:0006/15/2017 1:00856/15/2017 1:001.506/15/2017 1:0091.96/15/2017 1:0023.96/15/2017 1:0028.06/15/2017 1:0021.36/15/2017 1:000.0
6/15/2017 2:0025.06/15/2017 2:00991.36/15/2017 2:0006/15/2017 2:00756/15/2017 2:002.006/15/2017 2:0092.76/15/2017 2:0023.86/15/2017 2:0027.86/15/2017 2:0021.56/15/2017 2:000.0
6/15/2017 3:0024.96/15/2017 3:00991.46/15/2017 3:0006/15/2017 3:001286/15/2017 3:003.506/15/2017 3:0093.26/15/2017 3:0023.86/15/2017 3:0027.76/15/2017 3:0021.36/15/2017 3:000.0
6/15/2017 4:0024.96/15/2017 4:00991.26/15/2017 4:0006/15/2017 4:001266/15/2017 4:002.206/15/2017 4:0093.06/15/2017 4:0023.86/15/2017 4:0027.76/15/2017 4:0021.56/15/2017 4:000.0
6/15/2017 5:0024.86/15/2017 5:00990.86/15/2017 5:0006/15/2017 5:00596/15/2017 5:001.306/15/2017 5:0093.66/15/2017 5:0023.86/15/2017 5:0027.66/15/2017 5:0022.06/15/2017 5:000.0
6/15/2017 6:0024.86/15/2017 6:00991.26/15/2017 6:0036/15/2017 6:00996/15/2017 6:001.806/15/2017 6:0094.06/15/2017 6:0023.86/15/2017 6:0027.66/15/2017 6:0022.16/15/2017 6:000.0
6/15/2017 7:0025.06/15/2017 7:00992.06/15/2017 7:00126/15/2017 7:001426/15/2017 7:002.506/15/2017 7:0094.36/15/2017 7:0024.16/15/2017 7:0027.96/15/2017 7:0022.36/15/2017 7:000.0
6/15/2017 8:0025.46/15/2017 8:00992.06/15/2017 8:00866/15/2017 8:001566/15/2017 8:001.806/15/2017 8:0093.56/15/2017 8:0024.46/15/2017 8:0028.26/15/2017 8:0022.16/15/2017 8:000.0
6/15/2017 9:0026.66/15/2017 9:00992.46/15/2017 9:002256/15/2017 9:001736/15/2017 9:001.406/15/2017 9:0091.36/15/2017 9:0025.16/15/2017 9:0028.96/15/2017 9:0022.16/15/2017 9:000.1
6/15/2017 10:0028.46/15/2017 10:00992.76/15/2017 10:004746/15/2017 10:002456/15/2017 10:002.706/15/2017 10:0083.76/15/2017 10:0025.56/15/2017 10:0030.16/15/2017 10:0022.36/15/2017 10:000.4
6/15/2017 11:0025.16/15/2017 11:00993.16/15/2017 11:001236/15/2017 11:002916/15/2017 11:003.106/15/2017 11:0089.16/15/2017 11:0023.36/15/2017 11:0027.56/15/2017 11:0019.16/15/2017 11:008.6
6/15/2017 12:0024.66/15/2017 12:00992.86/15/2017 12:001176/15/2017 12:002506/15/2017 12:001.506/15/2017 12:0092.46/15/2017 12:0023.46/15/2017 12:0027.26/15/2017 12:0012.06/15/2017 12:004.6
6/15/2017 13:0025.06/15/2017 13:00992.36/15/2017 13:00996/15/2017 13:002756/15/2017 13:000.606/15/2017 13:0092.16/15/2017 13:0023.76/15/2017 13:0027.66/15/2017 13:0010.76/15/2017 13:002.3
6/15/2017 14:0025.56/15/2017 14:00991.76/15/2017 14:001786/15/2017 14:002126/15/2017 14:000.606/15/2017 14:0091.16/15/2017 14:0024.06/15/2017 14:0027.96/15/2017 14:0010.16/15/2017 14:001.1
6/15/2017 15:0026.66/15/2017 15:00991.06/15/2017 15:003196/15/2017 15:001746/15/2017 15:001.106/15/2017 15:0088.26/15/2017 15:0024.66/15/2017 15:0028.46/15/2017 15:0010.26/15/2017 15:000.0
6/15/2017 16:0027.86/15/2017 16:00990.36/15/2017 16:003386/15/2017 16:002266/15/2017 16:000.606/15/2017 16:0083.86/15/2017 16:0024.96/15/2017 16:0029.26/15/2017 16:0010.56/15/2017 16:000.0
6/15/2017 17:0028.76/15/2017 17:00989.56/15/2017 17:003636/15/2017 17:001366/15/2017 17:001.506/15/2017 17:0080.06/15/2017 17:0025.06/15/2017 17:0029.76/15/2017 17:0010.96/15/2017 17:000.0
6/15/2017 18:0028.06/15/2017 18:00989.56/15/2017 18:001596/15/2017 18:001466/15/2017 18:002.506/15/2017 18:0081.76/15/2017 18:0024.76/15/2017 18:0029.86/15/2017 18:0011.16/15/2017 18:000.0
6/15/2017 19:0027.16/15/2017 19:00989.86/15/2017 19:00126/15/2017 19:001316/15/2017 19:002.306/15/2017 19:0085.26/15/2017 19:0024.56/15/2017 19:0029.76/15/2017 19:0011.06/15/2017 19:000.0
6/15/2017 20:0026.66/15/2017 20:00990.46/15/2017 20:0006/15/2017 20:001386/15/2017 20:001.606/15/2017 20:0087.86/15/2017 20:0024.56/15/2017 20:0029.46/15/2017 20:0010.66/15/2017 20:001.6
6/15/2017 21:0026.26/15/2017 21:00990.86/15/2017 21:0006/15/2017 21:001556/15/2017 21:000.806/15/2017 21:0091.36/15/2017 21:0024.76/15/2017 21:0029.36/15/2017 21:0010.36/15/2017 21:000.0
6/15/2017 22:0026.46/15/2017 22:00991.36/15/2017 22:0006/15/2017 22:001466/15/2017 22:001.306/15/2017 22:0092.46/15/2017 22:0025.16/15/2017 22:0029.56/15/2017 22:0010.56/15/2017 22:000.0
6/15/2017 23:0026.26/15/2017 23:00991.66/15/2017 23:0006/15/2017 23:00996/15/2017 23:000.706/15/2017 23:0092.86/15/2017 23:0025.06/15/2017 23:0029.36/15/2017 23:0010.66/15/2017 23:000.0
6/16/2017 0:0026.26/16/2017 0:00991.76/16/2017 0:0006/16/2017 0:00866/16/2017 0:001.106/16/2017 0:0093.86/16/2017 0:0025.26/16/2017 0:0029.26/16/2017 0:0010.66/16/2017 0:000.0
6/16/2017 1:0025.96/16/2017 1:00991.26/16/2017 1:0006/16/2017 1:001116/16/2017 1:001.506/16/2017 1:0094.56/16/2017 1:0025.06/16/2017 1:0028.86/16/2017 1:0010.86/16/2017 1:000.0
6/16/2017 2:0025.76/16/2017 2:00990.76/16/2017 2:0006/16/2017 2:001096/16/2017 2:001.106/16/2017 2:0095.26/16/2017 2:0025.06/16/2017 2:0028.76/16/2017 2:0010.86/16/2017 2:000.0
6/16/2017 3:0025.56/16/2017 3:00990.66/16/2017 3:0006/16/2017 3:00836/16/2017 3:001.106/16/2017 3:0095.66/16/2017 3:0024.86/16/2017 3:0028.56/16/2017 3:0010.86/16/2017 3:000.0
6/16/2017 4:0025.46/16/2017 4:00990.76/16/2017 4:0006/16/2017 4:00656/16/2017 4:000.806/16/2017 4:0095.96/16/2017 4:0024.86/16/2017 4:0028.36/16/2017 4:0011.06/16/2017 4:000.0
6/16/2017 5:0025.16/16/2017 5:00990.96/16/2017 5:0006/16/2017 5:00906/16/2017 5:001.106/16/2017 5:0096.26/16/2017 5:0024.56/16/2017 5:0028.16/16/2017 5:0010.96/16/2017 5:000.0
6/16/2017 6:0025.26/16/2017 6:00991.06/16/2017 6:00136/16/2017 6:00776/16/2017 6:000.806/16/2017 6:0096.26/16/2017 6:0024.66/16/2017 6:0028.06/16/2017 6:0011.26/16/2017 6:000.0
6/16/2017 7:0026.16/16/2017 7:00991.56/16/2017 7:001136/16/2017 7:001146/16/2017 7:001.406/16/2017 7:0093.46/16/2017 7:0025.06/16/2017 7:0028.16/16/2017 7:0011.06/16/2017 7:000.0
6/16/2017 8:0026.56/16/2017 8:00991.96/16/2017 8:002376/16/2017 8:001246/16/2017 8:001.406/16/2017 8:0092.66/16/2017 8:0025.36/16/2017 8:0028.56/16/2017 8:0011.06/16/2017 8:000.0
6/16/2017 9:0028.56/16/2017 9:00992.16/16/2017 9:003356/16/2017 9:002416/16/2017 9:000.906/16/2017 9:0085.76/16/2017 9:0025.96/16/2017 9:0029.76/16/2017 9:0011.36/16/2017 9:000.0
6/16/2017 10:0029.76/16/2017 10:00992.06/16/2017 10:005356/16/2017 10:002606/16/2017 10:001.106/16/2017 10:0080.06/16/2017 10:0026.06/16/2017 10:0031.06/16/2017 10:0011.66/16/2017 10:000.0
6/16/2017 11:0031.16/16/2017 11:00991.46/16/2017 11:003626/16/2017 11:002426/16/2017 11:001.506/16/2017 11:0073.36/16/2017 11:0025.86/16/2017 11:0032.46/16/2017 11:0011.66/16/2017 11:000.0
6/16/2017 12:0031.96/16/2017 12:00990.96/16/2017 12:006386/16/2017 12:002366/16/2017 12:002.306/16/2017 12:0066.96/16/2017 12:0025.16/16/2017 12:0033.36/16/2017 12:0011.86/16/2017 12:000.0
6/16/2017 13:0032.76/16/2017 13:00990.16/16/2017 13:009046/16/2017 13:002286/16/2017 13:002.206/16/2017 13:0062.56/16/2017 13:0024.76/16/2017 13:0033.96/16/2017 13:0011.96/16/2017 13:000.0
6/16/2017 14:0033.46/16/2017 14:00989.26/16/2017 14:009006/16/2017 14:002436/16/2017 14:002.206/16/2017 14:0058.06/16/2017 14:0024.16/16/2017 14:0034.36/16/2017 14:0012.26/16/2017 14:000.0
6/16/2017 15:0033.66/16/2017 15:00988.46/16/2017 15:007716/16/2017 15:002536/16/2017 15:002.406/16/2017 15:0055.06/16/2017 15:0023.46/16/2017 15:0034.66/16/2017 15:0013.26/16/2017 15:000.0
6/16/2017 16:0033.96/16/2017 16:00987.96/16/2017 16:005426/16/2017 16:002556/16/2017 16:002.506/16/2017 16:0054.26/16/2017 16:0023.46/16/2017 16:0034.96/16/2017 16:0013.76/16/2017 16:000.0
6/16/2017 17:0033.96/16/2017 17:00987.86/16/2017 17:003646/16/2017 17:002506/16/2017 17:002.006/16/2017 17:0055.36/16/2017 17:0023.86/16/2017 17:0034.96/16/2017 17:0014.36/16/2017 17:000.0
6/16/2017 18:0033.26/16/2017 18:00987.96/16/2017 18:001396/16/2017 18:002686/16/2017 18:001.906/16/2017 18:0056.86/16/2017 18:0023.66/16/2017 18:0034.66/16/2017 18:0015.16/16/2017 18:000.0
6/16/2017 19:0031.66/16/2017 19:00988.26/16/2017 19:00116/16/2017 19:002606/16/2017 19:000.906/16/2017 19:0063.36/16/2017 19:0023.96/16/2017 19:0033.96/16/2017 19:0015.36/16/2017 19:000.0
6/16/2017 20:0030.36/16/2017 20:00988.66/16/2017 20:0006/16/2017 20:002196/16/2017 20:000.306/16/2017 20:0068.96/16/2017 20:0024.06/16/2017 20:0033.56/16/2017 20:0015.26/16/2017 20:000.0
6/16/2017 21:0029.76/16/2017 21:00989.06/16/2017 21:0006/16/2017 21:002166/16/2017 21:000.606/16/2017 21:0074.46/16/2017 21:0024.76/16/2017 21:0033.16/16/2017 21:0015.36/16/2017 21:000.0
6/16/2017 22:0029.26/16/2017 22:00989.36/16/2017 22:0006/16/2017 22:002686/16/2017 22:000.906/16/2017 22:0079.56/16/2017 22:0025.46/16/2017 22:0032.46/16/2017 22:0015.56/16/2017 22:000.0
6/16/2017 23:0028.66/16/2017 23:00989.66/16/2017 23:0006/16/2017 23:002846/16/2017 23:000.706/16/2017 23:0079.06/16/2017 23:0024.76/16/2017 23:0031.76/16/2017 23:0015.96/16/2017 23:000.0
6/17/2017 0:0028.26/17/2017 0:00989.66/17/2017 0:0006/17/2017 0:002766/17/2017 0:000.706/17/2017 0:0081.86/17/2017 0:0024.96/17/2017 0:0031.46/17/2017 0:0015.86/17/2017 0:000.0
6/17/2017 1:0028.06/17/2017 1:00989.16/17/2017 1:0006/17/2017 1:002726/17/2017 1:001.006/17/2017 1:0082.76/17/2017 1:0024.96/17/2017 1:0031.06/17/2017 1:0016.16/17/2017 1:000.0
6/17/2017 2:0027.66/17/2017 2:00988.66/17/2017 2:0006/17/2017 2:002956/17/2017 2:000.806/17/2017 2:0083.66/17/2017 2:0024.66/17/2017 2:0030.66/17/2017 2:0016.36/17/2017 2:000.0
6/17/2017 3:0027.46/17/2017 3:00988.66/17/2017 3:0006/17/2017 3:002016/17/2017 3:000.806/17/2017 3:0085.76/17/2017 3:0024.96/17/2017 3:0030.46/17/2017 3:0016.46/17/2017 3:000.0
6/17/2017 4:0027.36/17/2017 4:00988.56/17/2017 4:0006/17/2017 4:001746/17/2017 4:000.506/17/2017 4:0086.06/17/2017 4:0024.86/17/2017 4:0030.56/17/2017 4:0016.46/17/2017 4:000.0
6/17/2017 5:0027.46/17/2017 5:00988.46/17/2017 5:0006/17/2017 5:001546/17/2017 5:000.806/17/2017 5:0087.36/17/2017 5:0025.26/17/2017 5:0030.56/17/2017 5:0016.76/17/2017 5:000.0
6/17/2017 6:0027.46/17/2017 6:00988.76/17/2017 6:0046/17/2017 6:001156/17/2017 6:000.906/17/2017 6:0089.06/17/2017 6:0025.56/17/2017 6:0030.46/17/2017 6:0016.76/17/2017 6:000.0
6/17/2017 7:0027.56/17/2017 7:00989.36/17/2017 7:00376/17/2017 7:001096/17/2017 7:000.906/17/2017 7:0090.86/17/2017 7:0025.96/17/2017 7:0030.46/17/2017 7:0016.76/17/2017 7:000.1
6/17/2017 8:0028.16/17/2017 8:00989.26/17/2017 8:001746/17/2017 8:001396/17/2017 8:001.406/17/2017 8:0087.16/17/2017 8:0025.86/17/2017 8:0030.66/17/2017 8:0016.66/17/2017 8:000.0
6/17/2017 9:0030.06/17/2017 9:00989.36/17/2017 9:003326/17/2017 9:001576/17/2017 9:001.406/17/2017 9:0074.46/17/2017 9:0025.06/17/2017 9:0031.16/17/2017 9:0017.36/17/2017 9:000.0
6/17/2017 10:0031.06/17/2017 10:00989.56/17/2017 10:004586/17/2017 10:001486/17/2017 10:001.206/17/2017 10:0069.66/17/2017 10:0024.96/17/2017 10:0031.76/17/2017 10:0017.56/17/2017 10:000.0
6/17/2017 11:0030.76/17/2017 11:00989.16/17/2017 11:003586/17/2017 11:001066/17/2017 11:001.706/17/2017 11:0071.86/17/2017 11:0025.16/17/2017 11:0032.16/17/2017 11:0017.86/17/2017 11:000.0
6/17/2017 12:0030.76/17/2017 12:00988.86/17/2017 12:003056/17/2017 12:001356/17/2017 12:001.606/17/2017 12:0073.36/17/2017 12:0025.46/17/2017 12:0032.36/17/2017 12:0018.06/17/2017 12:000.0
6/17/2017 13:0031.26/17/2017 13:00988.26/17/2017 13:003506/17/2017 13:001686/17/2017 13:001.406/17/2017 13:0071.36/17/2017 13:0025.56/17/2017 13:0032.56/17/2017 13:0018.16/17/2017 13:000.0
6/17/2017 14:0030.66/17/2017 14:00987.56/17/2017 14:002546/17/2017 14:002156/17/2017 14:001.606/17/2017 14:0071.86/17/2017 14:0025.06/17/2017 14:0032.46/17/2017 14:0018.36/17/2017 14:000.0
6/17/2017 15:0029.86/17/2017 15:00987.26/17/2017 15:002516/17/2017 15:003086/17/2017 15:001.206/17/2017 15:0077.26/17/2017 15:0025.56/17/2017 15:0032.06/17/2017 15:0018.06/17/2017 15:000.2
6/17/2017 16:0030.36/17/2017 16:00986.56/17/2017 16:001986/17/2017 16:001206/17/2017 16:001.306/17/2017 16:0074.66/17/2017 16:0025.46/17/2017 16:0032.36/17/2017 16:0018.36/17/2017 16:000.0
6/17/2017 17:0029.86/17/2017 17:00986.46/17/2017 17:002186/17/2017 17:001676/17/2017 17:002.306/17/2017 17:0074.76/17/2017 17:0024.96/17/2017 17:0031.66/17/2017 17:0018.66/17/2017 17:000.0
6/17/2017 18:0028.86/17/2017 18:00986.76/17/2017 18:00976/17/2017 18:001586/17/2017 18:002.006/17/2017 18:0074.76/17/2017 18:0023.96/17/2017 18:0030.96/17/2017 18:0018.96/17/2017 18:000.0
6/17/2017 19:0027.96/17/2017 19:00987.46/17/2017 19:0076/17/2017 19:001606/17/2017 19:001.506/17/2017 19:0080.26/17/2017 19:0024.26/17/2017 19:0030.56/17/2017 19:0019.06/17/2017 19:000.1
6/17/2017 20:0027.26/17/2017 20:00987.66/17/2017 20:0006/17/2017 20:001206/17/2017 20:002.106/17/2017 20:0084.16/17/2017 20:0024.46/17/2017 20:0030.06/17/2017 20:0018.86/17/2017 20:000.3
6/17/2017 21:0026.76/17/2017 21:00988.06/17/2017 21:0006/17/2017 21:00926/17/2017 21:001.206/17/2017 21:0088.56/17/2017 21:0024.76/17/2017 21:0029.66/17/2017 21:0018.56/17/2017 21:000.1
6/17/2017 22:0026.66/17/2017 22:00988.76/17/2017 22:0006/17/2017 22:001736/17/2017 22:000.806/17/2017 22:0090.06/17/2017 22:0024.96/17/2017 22:0029.76/17/2017 22:0018.56/17/2017 22:000.0
6/17/2017 23:0026.66/17/2017 23:00988.66/17/2017 23:0006/17/2017 23:00826/17/2017 23:001.106/17/2017 23:0091.46/17/2017 23:0025.26/17/2017 23:0029.66/17/2017 23:0018.76/17/2017 23:000.0
6/18/2017 0:0026.36/18/2017 0:00988.46/18/2017 0:0006/18/2017 0:00606/18/2017 0:001.506/18/2017 0:0093.06/18/2017 0:0025.26/18/2017 0:0029.36/18/2017 0:0019.06/18/2017 0:000.0
6/18/2017 1:0026.16/18/2017 1:00988.16/18/2017 1:0006/18/2017 1:00846/18/2017 1:001.806/18/2017 1:0093.76/18/2017 1:0025.16/18/2017 1:0029.06/18/2017 1:0019.26/18/2017 1:000.0
6/18/2017 2:0025.96/18/2017 2:00987.66/18/2017 2:0006/18/2017 2:00956/18/2017 2:002.406/18/2017 2:0094.46/18/2017 2:0025.06/18/2017 2:0028.86/18/2017 2:0019.36/18/2017 2:000.0
6/18/2017 3:0025.66/18/2017 3:00987.26/18/2017 3:0006/18/2017 3:00906/18/2017 3:002.106/18/2017 3:0094.96/18/2017 3:0024.86/18/2017 3:0028.56/18/2017 3:0019.36/18/2017 3:000.0
6/18/2017 4:0025.56/18/2017 4:00987.26/18/2017 4:0006/18/2017 4:001026/18/2017 4:001.506/18/2017 4:0095.66/18/2017 4:0024.86/18/2017 4:0028.46/18/2017 4:0019.36/18/2017 4:000.0
6/18/2017 5:0025.66/18/2017 5:00987.36/18/2017 5:0006/18/2017 5:00846/18/2017 5:001.106/18/2017 5:0096.06/18/2017 5:0025.06/18/2017 5:0028.46/18/2017 5:0019.46/18/2017 5:000.0
6/18/2017 6:0025.66/18/2017 6:00987.46/18/2017 6:0036/18/2017 6:00916/18/2017 6:001.306/18/2017 6:0096.56/18/2017 6:0025.16/18/2017 6:0028.56/18/2017 6:0019.56/18/2017 6:000.0
6/18/2017 7:0025.76/18/2017 7:00987.56/18/2017 7:00546/18/2017 7:00836/18/2017 7:001.506/18/2017 7:0096.46/18/2017 7:0025.26/18/2017 7:0028.66/18/2017 7:0019.46/18/2017 7:000.0
6/18/2017 8:0026.66/18/2017 8:00987.76/18/2017 8:001946/18/2017 8:001346/18/2017 8:001.906/18/2017 8:0093.86/18/2017 8:0025.66/18/2017 8:0029.26/18/2017 8:0019.86/18/2017 8:000.0
6/18/2017 9:0027.56/18/2017 9:00988.26/18/2017 9:002906/18/2017 9:001346/18/2017 9:002.506/18/2017 9:0090.46/18/2017 9:0025.96/18/2017 9:0029.96/18/2017 9:0019.96/18/2017 9:000.0
7/16/2017 12:0027.97/16/2017 12:00985.07/16/2017 12:002987/16/2017 12:002847/16/2017 12:002.407/16/2017 12:0086.17/16/2017 12:0025.47/16/2017 12:0030.47/16/2017 12:004.87/16/2017 12:000.1
7/16/2017 13:0028.97/16/2017 13:00984.47/16/2017 13:004237/16/2017 13:002937/16/2017 13:003.007/16/2017 13:0082.07/16/2017 13:0025.67/16/2017 13:0031.07/16/2017 13:005.27/16/2017 13:000.0
7/16/2017 14:0028.97/16/2017 14:00983.57/16/2017 14:003557/16/2017 14:002977/16/2017 14:003.407/16/2017 14:0080.37/16/2017 14:0025.27/16/2017 14:0031.17/16/2017 14:005.47/16/2017 14:000.0
7/16/2017 15:0029.07/16/2017 15:00982.87/16/2017 15:003547/16/2017 15:002967/16/2017 15:003.107/16/2017 15:0079.77/16/2017 15:0025.27/16/2017 15:0031.27/16/2017 15:005.57/16/2017 15:000.0
7/16/2017 16:0028.37/16/2017 16:00982.47/16/2017 16:001997/16/2017 16:002957/16/2017 16:003.107/16/2017 16:0081.27/16/2017 16:0024.87/16/2017 16:0030.77/16/2017 16:005.67/16/2017 16:000.0
7/16/2017 17:0027.37/16/2017 17:00982.37/16/2017 17:00827/16/2017 17:002787/16/2017 17:001.907/16/2017 17:0084.97/16/2017 17:0024.67/16/2017 17:0030.07/16/2017 17:005.47/16/2017 17:000.1
7/16/2017 18:0027.07/16/2017 18:00982.27/16/2017 18:00397/16/2017 18:002817/16/2017 18:001.807/16/2017 18:0087.17/16/2017 18:0024.77/16/2017 18:0029.77/16/2017 18:005.57/16/2017 18:000.1
7/16/2017 19:0026.87/16/2017 19:00982.37/16/2017 19:0057/16/2017 19:002737/16/2017 19:001.207/16/2017 19:0089.97/16/2017 19:0025.17/16/2017 19:0029.67/16/2017 19:005.67/16/2017 19:000.0
7/16/2017 20:0026.97/16/2017 20:00982.87/16/2017 20:0007/16/2017 20:002447/16/2017 20:001.507/16/2017 20:0091.97/16/2017 20:0025.57/16/2017 20:0029.97/16/2017 20:005.47/16/2017 20:000.0
7/16/2017 21:0026.97/16/2017 21:00983.17/16/2017 21:0007/16/2017 21:002397/16/2017 21:002.007/16/2017 21:0092.47/16/2017 21:0025.67/16/2017 21:0030.17/16/2017 21:005.77/16/2017 21:000.0
7/16/2017 22:0026.57/16/2017 22:00983.47/16/2017 22:0007/16/2017 22:002527/16/2017 22:003.007/16/2017 22:0092.07/16/2017 22:0025.27/16/2017 22:0029.67/16/2017 22:004.97/16/2017 22:002.1
7/16/2017 23:0026.17/16/2017 23:00983.37/16/2017 23:0007/16/2017 23:002507/16/2017 23:002.007/16/2017 23:0092.67/16/2017 23:0024.97/16/2017 23:0029.27/16/2017 23:004.77/16/2017 23:000.4
7/17/2017 0:0026.27/17/2017 0:00982.67/17/2017 0:0007/17/2017 0:002347/17/2017 0:002.707/17/2017 0:0094.17/17/2017 0:0025.37/17/2017 0:0029.37/17/2017 0:003.57/17/2017 0:002.8
7/17/2017 1:0025.87/17/2017 1:00981.67/17/2017 1:0007/17/2017 1:002317/17/2017 1:003.507/17/2017 1:0094.77/17/2017 1:0025.07/17/2017 1:0028.97/17/2017 1:003.77/17/2017 1:005.0
7/17/2017 2:0025.27/17/2017 2:00981.17/17/2017 2:0007/17/2017 2:002247/17/2017 2:003.107/17/2017 2:0094.67/17/2017 2:0024.37/17/2017 2:0028.37/17/2017 2:003.07/17/2017 2:002.3
7/17/2017 3:0025.07/17/2017 3:00980.77/17/2017 3:0007/17/2017 3:001967/17/2017 3:002.607/17/2017 3:0095.47/17/2017 3:0024.37/17/2017 3:0027.97/17/2017 3:002.97/17/2017 3:003.5
7/17/2017 4:0024.97/17/2017 4:00980.77/17/2017 4:0007/17/2017 4:001857/17/2017 4:002.407/17/2017 4:0096.07/17/2017 4:0024.37/17/2017 4:0027.97/17/2017 4:002.97/17/2017 4:004.1
7/17/2017 5:0024.67/17/2017 5:00981.17/17/2017 5:0007/17/2017 5:001857/17/2017 5:002.707/17/2017 5:0096.37/17/2017 5:0024.07/17/2017 5:0027.67/17/2017 5:003.87/17/2017 5:0011.8
7/17/2017 6:0024.47/17/2017 6:00981.57/17/2017 6:0017/17/2017 6:001757/17/2017 6:003.007/17/2017 6:0096.87/17/2017 6:0023.97/17/2017 6:0027.57/17/2017 6:003.87/17/2017 6:004.7
7/17/2017 7:0024.47/17/2017 7:00982.67/17/2017 7:00167/17/2017 7:001677/17/2017 7:003.607/17/2017 7:0096.37/17/2017 7:0023.87/17/2017 7:0027.57/17/2017 7:003.57/17/2017 7:001.2
7/17/2017 8:0024.57/17/2017 8:00983.87/17/2017 8:00487/17/2017 8:001597/17/2017 8:004.107/17/2017 8:0095.37/17/2017 8:0023.87/17/2017 8:0027.67/17/2017 8:003.87/17/2017 8:001.1
7/17/2017 9:0024.87/17/2017 9:00984.97/17/2017 9:00987/17/2017 9:001577/17/2017 9:004.207/17/2017 9:0095.07/17/2017 9:0024.07/17/2017 9:0027.77/17/2017 9:003.47/17/2017 9:003.1
7/17/2017 10:0025.47/17/2017 10:00985.77/17/2017 10:002177/17/2017 10:001587/17/2017 10:003.507/17/2017 10:0094.47/17/2017 10:0024.57/17/2017 10:0028.27/17/2017 10:003.17/17/2017 10:002.1
7/17/2017 11:0026.27/17/2017 11:00985.87/17/2017 11:003147/17/2017 11:001597/17/2017 11:003.207/17/2017 11:0091.97/17/2017 11:0024.97/17/2017 11:0028.87/17/2017 11:003.07/17/2017 11:000.4
7/17/2017 12:0027.17/17/2017 12:00986.07/17/2017 12:002837/17/2017 12:001667/17/2017 12:003.007/17/2017 12:0086.57/17/2017 12:0024.77/17/2017 12:0029.57/17/2017 12:004.07/17/2017 12:000.0
7/17/2017 13:0027.77/17/2017 13:00985.87/17/2017 13:002747/17/2017 13:001787/17/2017 13:002.407/17/2017 13:0082.57/17/2017 13:0024.57/17/2017 13:0029.87/17/2017 13:004.27/17/2017 13:000.0
7/17/2017 14:0029.47/17/2017 14:00985.27/17/2017 14:005997/17/2017 14:001927/17/2017 14:002.107/17/2017 14:0076.07/17/2017 14:0024.87/17/2017 14:0030.77/17/2017 14:004.47/17/2017 14:000.0
7/17/2017 15:0030.37/17/2017 15:00984.67/17/2017 15:005737/17/2017 15:002007/17/2017 15:002.307/17/2017 15:0070.67/17/2017 15:0024.47/17/2017 15:0031.37/17/2017 15:004.87/17/2017 15:000.0
7/17/2017 16:0030.17/17/2017 16:00984.27/17/2017 16:003707/17/2017 16:001647/17/2017 16:002.107/17/2017 16:0071.57/17/2017 16:0024.57/17/2017 16:0031.37/17/2017 16:004.87/17/2017 16:000.0
7/17/2017 17:0029.87/17/2017 17:00984.37/17/2017 17:001947/17/2017 17:001317/17/2017 17:002.307/17/2017 17:0073.77/17/2017 17:0024.77/17/2017 17:0031.67/17/2017 17:005.17/17/2017 17:000.0
7/17/2017 18:0028.97/17/2017 18:00984.97/17/2017 18:001287/17/2017 18:001347/17/2017 18:003.307/17/2017 18:0077.47/17/2017 18:0024.67/17/2017 18:0031.17/17/2017 18:004.97/17/2017 18:000.0
7/17/2017 19:0027.47/17/2017 19:00986.37/17/2017 19:00167/17/2017 19:001267/17/2017 19:004.207/17/2017 19:0083.77/17/2017 19:0024.57/17/2017 19:0030.07/17/2017 19:005.17/17/2017 19:000.0
7/17/2017 20:0026.37/17/2017 20:00987.67/17/2017 20:0007/17/2017 20:001517/17/2017 20:004.107/17/2017 20:0086.97/17/2017 20:0024.07/17/2017 20:0029.07/17/2017 20:005.17/17/2017 20:000.0
7/17/2017 21:0025.67/17/2017 21:00988.67/17/2017 21:0007/17/2017 21:001387/17/2017 21:003.807/17/2017 21:0090.17/17/2017 21:0023.97/17/2017 21:0028.47/17/2017 21:005.57/17/2017 21:000.2
7/17/2017 22:0025.57/17/2017 22:00989.47/17/2017 22:0007/17/2017 22:001317/17/2017 22:003.107/17/2017 22:0091.77/17/2017 22:0024.17/17/2017 22:0028.37/17/2017 22:005.67/17/2017 22:000.0
7/17/2017 23:0025.67/17/2017 23:00990.17/17/2017 23:0007/17/2017 23:001267/17/2017 23:003.307/17/2017 23:0092.67/17/2017 23:0024.47/17/2017 23:0028.47/17/2017 23:005.97/17/2017 23:000.0
7/18/2017 0:0025.57/18/2017 0:00990.17/18/2017 0:0007/18/2017 0:001527/18/2017 0:003.607/18/2017 0:0091.97/18/2017 0:0024.27/18/2017 0:0028.47/18/2017 0:006.07/18/2017 0:000.1
7/18/2017 1:0025.17/18/2017 1:00989.57/18/2017 1:0007/18/2017 1:001657/18/2017 1:002.507/18/2017 1:0093.47/18/2017 1:0024.07/18/2017 1:0028.07/18/2017 1:005.67/18/2017 1:000.2
7/18/2017 2:0025.07/18/2017 2:00989.37/18/2017 2:0007/18/2017 2:001597/18/2017 2:002.107/18/2017 2:0093.97/18/2017 2:0024.07/18/2017 2:0028.07/18/2017 2:005.67/18/2017 2:000.0
7/18/2017 3:0025.17/18/2017 3:00989.37/18/2017 3:0007/18/2017 3:001547/18/2017 3:002.707/18/2017 3:0093.07/18/2017 3:0024.07/18/2017 3:0027.97/18/2017 3:005.77/18/2017 3:000.0
7/18/2017 4:0024.97/18/2017 4:00989.47/18/2017 4:0007/18/2017 4:001517/18/2017 4:002.807/18/2017 4:0092.77/18/2017 4:0023.77/18/2017 4:0027.77/18/2017 4:005.77/18/2017 4:000.0
7/18/2017 5:0025.07/18/2017 5:00989.77/18/2017 5:0007/18/2017 5:001507/18/2017 5:003.007/18/2017 5:0092.67/18/2017 5:0023.87/18/2017 5:0027.87/18/2017 5:005.87/18/2017 5:000.0
7/18/2017 6:0025.07/18/2017 6:00990.27/18/2017 6:0027/18/2017 6:001587/18/2017 6:002.507/18/2017 6:0092.27/18/2017 6:0023.77/18/2017 6:0027.77/18/2017 6:005.97/18/2017 6:000.0
7/18/2017 7:0025.17/18/2017 7:00990.67/18/2017 7:00447/18/2017 7:001577/18/2017 7:002.407/18/2017 7:0091.47/18/2017 7:0023.77/18/2017 7:0027.87/18/2017 7:006.07/18/2017 7:000.0
7/18/2017 8:0025.67/18/2017 8:00991.17/18/2017 8:001357/18/2017 8:001527/18/2017 8:002.507/18/2017 8:0089.97/18/2017 8:0023.97/18/2017 8:0028.07/18/2017 8:006.17/18/2017 8:000.0
7/18/2017 9:0027.07/18/2017 9:00992.17/18/2017 9:003927/18/2017 9:001557/18/2017 9:002.307/18/2017 9:0086.07/18/2017 9:0024.57/18/2017 9:0028.77/18/2017 9:006.37/18/2017 9:000.0
7/18/2017 10:0028.27/18/2017 10:00992.07/18/2017 10:004957/18/2017 10:001767/18/2017 10:002.207/18/2017 10:0081.47/18/2017 10:0024.87/18/2017 10:0029.67/18/2017 10:006.67/18/2017 10:000.0
7/18/2017 11:0029.27/18/2017 11:00991.77/18/2017 11:005947/18/2017 11:002067/18/2017 11:002.607/18/2017 11:0076.07/18/2017 11:0024.67/18/2017 11:0030.57/18/2017 11:006.87/18/2017 11:000.0
7/18/2017 12:0029.97/18/2017 12:00991.27/18/2017 12:005287/18/2017 12:002097/18/2017 12:002.507/18/2017 12:0073.07/18/2017 12:0024.67/18/2017 12:0031.27/18/2017 12:006.87/18/2017 12:000.0
7/18/2017 13:0030.67/18/2017 13:00990.97/18/2017 13:007377/18/2017 13:002027/18/2017 13:002.207/18/2017 13:0070.17/18/2017 13:0024.67/18/2017 13:0031.67/18/2017 13:007.17/18/2017 13:000.0
7/18/2017 14:0031.47/18/2017 14:00989.97/18/2017 14:007817/18/2017 14:002067/18/2017 14:002.007/18/2017 14:0066.67/18/2017 14:0024.57/18/2017 14:0032.27/18/2017 14:007.37/18/2017 14:000.0
7/18/2017 15:0031.47/18/2017 15:00988.77/18/2017 15:005317/18/2017 15:002147/18/2017 15:002.007/18/2017 15:0066.37/18/2017 15:0024.47/18/2017 15:0032.37/18/2017 15:007.67/18/2017 15:000.0
7/18/2017 16:0032.07/18/2017 16:00988.27/18/2017 16:005777/18/2017 16:002137/18/2017 16:001.407/18/2017 16:0064.47/18/2017 16:0024.57/18/2017 16:0032.47/18/2017 16:007.87/18/2017 16:000.0
7/18/2017 17:0032.97/18/2017 17:00987.87/18/2017 17:003937/18/2017 17:002227/18/2017 17:001.307/18/2017 17:0059.27/18/2017 17:0024.07/18/2017 17:0032.97/18/2017 17:008.77/18/2017 17:000.0
7/18/2017 18:0033.17/18/2017 18:00987.97/18/2017 18:001957/18/2017 18:002497/18/2017 18:000.707/18/2017 18:0058.17/18/2017 18:0023.87/18/2017 18:0033.07/18/2017 18:008.97/18/2017 18:000.0
7/18/2017 19:0031.07/18/2017 19:00988.67/18/2017 19:00167/18/2017 19:001707/18/2017 19:001.007/18/2017 19:0065.57/18/2017 19:0023.97/18/2017 19:0032.87/18/2017 19:008.87/18/2017 19:000.0
7/18/2017 20:0029.77/18/2017 20:00989.57/18/2017 20:0007/18/2017 20:00897/18/2017 20:001.307/18/2017 20:0075.97/18/2017 20:0025.17/18/2017 20:0032.57/18/2017 20:008.77/18/2017 20:000.0
7/18/2017 21:0029.27/18/2017 21:00990.27/18/2017 21:0007/18/2017 21:00537/18/2017 21:002.107/18/2017 21:0078.87/18/2017 21:0025.27/18/2017 21:0032.07/18/2017 21:009.07/18/2017 21:000.0
7/18/2017 22:0028.37/18/2017 22:00991.17/18/2017 22:0007/18/2017 22:00787/18/2017 22:002.907/18/2017 22:0084.17/18/2017 22:0025.47/18/2017 22:0031.27/18/2017 22:009.37/18/2017 22:000.0
7/18/2017 23:0025.27/18/2017 23:00992.57/18/2017 23:0007/18/2017 23:001897/18/2017 23:002.507/18/2017 23:0089.67/18/2017 23:0023.47/18/2017 23:0027.87/18/2017 23:007.47/18/2017 23:0032.6
7/19/2017 0:0024.67/19/2017 0:00992.27/19/2017 0:0007/19/2017 0:00657/19/2017 0:001.107/19/2017 0:0095.07/19/2017 0:0023.87/19/2017 0:0027.77/19/2017 0:002.77/19/2017 0:003.9
7/19/2017 1:0024.97/19/2017 1:00991.37/19/2017 1:0007/19/2017 1:001627/19/2017 1:001.307/19/2017 1:0095.67/19/2017 1:0024.27/19/2017 1:0028.27/19/2017 1:002.97/19/2017 1:002.3
7/19/2017 2:0025.17/19/2017 2:00990.67/19/2017 2:0007/19/2017 2:001457/19/2017 2:003.107/19/2017 2:0095.47/19/2017 2:0024.47/19/2017 2:0028.17/19/2017 2:002.57/19/2017 2:000.1
7/19/2017 3:0025.17/19/2017 3:00990.07/19/2017 3:0017/19/2017 3:001747/19/2017 3:002.007/19/2017 3:0095.37/19/2017 3:0024.47/19/2017 3:0028.17/19/2017 3:002.97/19/2017 3:000.0
7/19/2017 4:0025.27/19/2017 4:00989.87/19/2017 4:0017/19/2017 4:001767/19/2017 4:001.907/19/2017 4:0095.07/19/2017 4:0024.47/19/2017 4:0028.37/19/2017 4:003.17/19/2017 4:000.0
7/19/2017 5:0025.37/19/2017 5:00990.07/19/2017 5:0017/19/2017 5:001647/19/2017 5:002.307/19/2017 5:0094.67/19/2017 5:0024.47/19/2017 5:0028.37/19/2017 5:003.37/19/2017 5:000.0
7/19/2017 6:0025.17/19/2017 6:00990.27/19/2017 6:0027/19/2017 6:002017/19/2017 6:002.507/19/2017 6:0093.97/19/2017 6:0024.17/19/2017 6:0028.07/19/2017 6:003.37/19/2017 6:001.9
7/19/2017 7:0024.17/19/2017 7:00990.77/19/2017 7:00377/19/2017 7:002247/19/2017 7:002.807/19/2017 7:0095.27/19/2017 7:0023.47/19/2017 7:0026.97/19/2017 7:002.87/19/2017 7:008.9
7/19/2017 8:0024.47/19/2017 8:00991.27/19/2017 8:001047/19/2017 8:002337/19/2017 8:002.307/19/2017 8:0095.57/19/2017 8:0023.77/19/2017 8:0027.27/19/2017 8:002.57/19/2017 8:003.6
7/19/2017 9:0024.97/19/2017 9:00991.87/19/2017 9:00997/19/2017 9:002297/19/2017 9:002.507/19/2017 9:0093.47/19/2017 9:0023.87/19/2017 9:0027.77/19/2017 9:002.87/19/2017 9:000.0
7/19/2017 10:0025.27/19/2017 10:00991.97/19/2017 10:001557/19/2017 10:002227/19/2017 10:002.107/19/2017 10:0092.97/19/2017 10:0024.07/19/2017 10:0027.77/19/2017 10:002.67/19/2017 10:000.6
7/19/2017 11:0025.47/19/2017 11:00991.37/19/2017 11:002167/19/2017 11:002227/19/2017 11:002.007/19/2017 11:0093.77/19/2017 11:0024.47/19/2017 11:0027.97/19/2017 11:001.87/19/2017 11:000.6
7/19/2017 12:0025.97/19/2017 12:00990.77/19/2017 12:002607/19/2017 12:002207/19/2017 12:002.407/19/2017 12:0091.77/19/2017 12:0024.57/19/2017 12:0028.37/19/2017 12:002.67/19/2017 12:000.0
7/19/2017 13:0027.37/19/2017 13:00989.87/19/2017 13:005557/19/2017 13:002237/19/2017 13:002.607/19/2017 13:0086.17/19/2017 13:0024.87/19/2017 13:0029.37/19/2017 13:003.17/19/2017 13:000.0
7/19/2017 14:0028.27/19/2017 14:00988.77/19/2017 14:005047/19/2017 14:002327/19/2017 14:002.507/19/2017 14:0080.57/19/2017 14:0024.67/19/2017 14:0030.07/19/2017 14:003.27/19/2017 14:000.0
7/19/2017 15:0029.57/19/2017 15:00987.57/19/2017 15:006257/19/2017 15:002557/19/2017 15:002.107/19/2017 15:0075.27/19/2017 15:0024.77/19/2017 15:0030.97/19/2017 15:003.77/19/2017 15:000.0
7/19/2017 16:0029.77/19/2017 16:00986.57/19/2017 16:004217/19/2017 16:002557/19/2017 16:002.407/19/2017 16:0072.07/19/2017 16:0024.27/19/2017 16:0031.27/19/2017 16:004.07/19/2017 16:000.0
7/19/2017 17:0029.07/19/2017 17:00986.27/19/2017 17:001797/19/2017 17:002727/19/2017 17:001.707/19/2017 17:0074.47/19/2017 17:0024.17/19/2017 17:0031.07/19/2017 17:003.97/19/2017 17:000.0
7/19/2017 18:0028.77/19/2017 18:00986.67/19/2017 18:00917/19/2017 18:002927/19/2017 18:001.007/19/2017 18:0077.57/19/2017 18:0024.57/19/2017 18:0030.97/19/2017 18:004.17/19/2017 18:000.0
7/19/2017 19:0028.27/19/2017 19:00987.17/19/2017 19:00147/19/2017 19:00227/19/2017 19:000.607/19/2017 19:0079.07/19/2017 19:0024.37/19/2017 19:0030.97/19/2017 19:004.27/19/2017 19:000.0
7/19/2017 20:0027.67/19/2017 20:00988.17/19/2017 20:0007/19/2017 20:001377/19/2017 20:000.407/19/2017 20:0083.37/19/2017 20:0024.67/19/2017 20:0030.87/19/2017 20:003.97/19/2017 20:000.0
7/19/2017 21:0027.77/19/2017 21:00988.57/19/2017 21:0007/19/2017 21:001117/19/2017 21:001.007/19/2017 21:0086.37/19/2017 21:0025.37/19/2017 21:0030.77/19/2017 21:003.97/19/2017 21:000.0
7/19/2017 22:0027.57/19/2017 22:00989.07/19/2017 22:0007/19/2017 22:001167/19/2017 22:001.307/19/2017 22:0087.87/19/2017 22:0025.47/19/2017 22:0030.57/19/2017 22:003.97/19/2017 22:000.0
7/19/2017 23:0027.47/19/2017 23:00989.27/19/2017 23:0007/19/2017 23:001257/19/2017 23:001.207/19/2017 23:0088.87/19/2017 23:0025.57/19/2017 23:0030.47/19/2017 23:004.27/19/2017 23:000.0
7/20/2017 0:0027.27/20/2017 0:00988.87/20/2017 0:0007/20/2017 0:001517/20/2017 0:001.307/20/2017 0:0087.07/20/2017 0:0024.97/20/2017 0:0030.27/20/2017 0:004.77/20/2017 0:000.0
7/20/2017 1:0027.07/20/2017 1:00988.57/20/2017 1:0007/20/2017 1:001647/20/2017 1:001.207/20/2017 1:0087.77/20/2017 1:0024.97/20/2017 1:0029.97/20/2017 1:004.87/20/2017 1:000.3
7/20/2017 2:0026.27/20/2017 2:00987.87/20/2017 2:0007/20/2017 2:001937/20/2017 2:000.907/20/2017 2:0089.47/20/2017 2:0024.47/20/2017 2:0029.27/20/2017 2:003.97/20/2017 2:000.2
7/20/2017 3:0026.17/20/2017 3:00987.17/20/2017 3:0007/20/2017 3:001027/20/2017 3:001.707/20/2017 3:0090.87/20/2017 3:0024.67/20/2017 3:0029.07/20/2017 3:003.97/20/2017 3:000.1
7/20/2017 4:0026.17/20/2017 4:00987.27/20/2017 4:0007/20/2017 4:001147/20/2017 4:001.807/20/2017 4:0091.37/20/2017 4:0024.67/20/2017 4:0029.07/20/2017 4:004.07/20/2017 4:000.0
7/20/2017 5:0026.17/20/2017 5:00987.47/20/2017 5:0007/20/2017 5:001407/20/2017 5:002.407/20/2017 5:0091.17/20/2017 5:0024.67/20/2017 5:0029.07/20/2017 5:004.17/20/2017 5:000.0
7/20/2017 6:0026.07/20/2017 6:00987.77/20/2017 6:0027/20/2017 6:001627/20/2017 6:001.607/20/2017 6:0091.67/20/2017 6:0024.67/20/2017 6:0028.97/20/2017 6:004.37/20/2017 6:000.0
7/20/2017 7:0026.37/20/2017 7:00988.17/20/2017 7:00777/20/2017 7:001637/20/2017 7:001.707/20/2017 7:0091.07/20/2017 7:0024.87/20/2017 7:0029.07/20/2017 7:004.57/20/2017 7:000.0
7/20/2017 8:0027.37/20/2017 8:00988.67/20/2017 8:002117/20/2017 8:001547/20/2017 8:002.207/20/2017 8:0087.77/20/2017 8:0025.27/20/2017 8:0029.47/20/2017 8:004.67/20/2017 8:000.0
7/20/2017 9:0027.37/20/2017 9:00989.07/20/2017 9:001927/20/2017 9:001457/20/2017 9:002.407/20/2017 9:0087.37/20/2017 9:0025.17/20/2017 9:0029.67/20/2017 9:004.87/20/2017 9:000.0
7/20/2017 10:0027.77/20/2017 10:00989.37/20/2017 10:001897/20/2017 10:001567/20/2017 10:002.407/20/2017 10:0085.07/20/2017 10:0025.07/20/2017 10:0029.87/20/2017 10:004.87/20/2017 10:000.0
7/20/2017 11:0027.67/20/2017 11:00989.37/20/2017 11:002107/20/2017 11:001597/20/2017 11:002.307/20/2017 11:0084.77/20/2017 11:0024.97/20/2017 11:0029.87/20/2017 11:004.87/20/2017 11:000.0
7/20/2017 12:0028.67/20/2017 12:00988.77/20/2017 12:003557/20/2017 12:001747/20/2017 12:001.807/20/2017 12:0081.87/20/2017 12:0025.37/20/2017 12:0030.27/20/2017 12:005.17/20/2017 12:000.0
7/20/2017 13:0029.57/20/2017 13:00987.97/20/2017 13:004257/20/2017 13:001577/20/2017 13:001.407/20/2017 13:0077.77/20/2017 13:0025.37/20/2017 13:0030.57/20/2017 13:005.67/20/2017 13:000.0
7/20/2017 14:0030.87/20/2017 14:00986.97/20/2017 14:005597/20/2017 14:001957/20/2017 14:000.907/20/2017 14:0071.17/20/2017 14:0025.07/20/2017 14:0031.27/20/2017 14:005.97/20/2017 14:000.0
7/20/2017 15:0030.27/20/2017 15:00986.07/20/2017 15:003687/20/2017 15:001867/20/2017 15:001.707/20/2017 15:0074.47/20/2017 15:0025.27/20/2017 15:0031.17/20/2017 15:006.17/20/2017 15:000.0
7/20/2017 16:0029.17/20/2017 16:00985.57/20/2017 16:001867/20/2017 16:001697/20/2017 16:001.607/20/2017 16:0079.87/20/2017 16:0025.37/20/2017 16:0030.97/20/2017 16:005.97/20/2017 16:000.0
8/12/2017 5:0027.28/12/2017 5:00990.18/12/2017 5:0008/12/2017 5:001438/12/2017 5:001.208/12/2017 5:0090.18/12/2017 5:0025.58/12/2017 5:0030.38/12/2017 5:006.38/12/2017 5:000.0
8/12/2017 6:0026.98/12/2017 6:00990.38/12/2017 6:0028/12/2017 6:001558/12/2017 6:001.008/12/2017 6:0091.38/12/2017 6:0025.48/12/2017 6:0030.18/12/2017 6:006.68/12/2017 6:000.0
8/12/2017 7:0028.38/12/2017 7:00990.78/12/2017 7:00938/12/2017 7:001528/12/2017 7:001.408/12/2017 7:0087.88/12/2017 7:0026.28/12/2017 7:0030.38/12/2017 7:006.58/12/2017 7:000.0
8/12/2017 8:0030.68/12/2017 8:00991.18/12/2017 8:003628/12/2017 8:001558/12/2017 8:001.608/12/2017 8:0077.88/12/2017 8:0026.48/12/2017 8:0031.38/12/2017 8:006.98/12/2017 8:000.0
8/12/2017 9:0032.18/12/2017 9:00991.58/12/2017 9:005618/12/2017 9:001658/12/2017 9:001.408/12/2017 9:0071.58/12/2017 9:0026.48/12/2017 9:0032.28/12/2017 9:007.68/12/2017 9:000.0
8/12/2017 10:0032.58/12/2017 10:00991.58/12/2017 10:006928/12/2017 10:002168/12/2017 10:001.108/12/2017 10:0066.58/12/2017 10:0025.58/12/2017 10:0032.98/12/2017 10:008.08/12/2017 10:000.0
8/12/2017 11:0033.28/12/2017 11:00991.28/12/2017 11:008658/12/2017 11:002088/12/2017 11:001.408/12/2017 11:0064.08/12/2017 11:0025.58/12/2017 11:0033.68/12/2017 11:008.18/12/2017 11:000.0
8/12/2017 12:0033.38/12/2017 12:00990.68/12/2017 12:008798/12/2017 12:002178/12/2017 12:001.408/12/2017 12:0062.58/12/2017 12:0025.28/12/2017 12:0033.98/12/2017 12:007.98/12/2017 12:000.0
8/12/2017 13:0034.18/12/2017 13:00989.68/12/2017 13:009138/12/2017 13:002188/12/2017 13:001.108/12/2017 13:0059.88/12/2017 13:0025.38/12/2017 13:0034.48/12/2017 13:008.18/12/2017 13:000.0
8/12/2017 14:0034.58/12/2017 14:00988.88/12/2017 14:008948/12/2017 14:002818/12/2017 14:001.308/12/2017 14:0057.88/12/2017 14:0025.18/12/2017 14:0034.88/12/2017 14:008.68/12/2017 14:000.0
8/12/2017 15:0034.98/12/2017 15:00988.38/12/2017 15:006908/12/2017 15:002228/12/2017 15:001.308/12/2017 15:0056.38/12/2017 15:0025.08/12/2017 15:0035.28/12/2017 15:009.18/12/2017 15:000.0
8/12/2017 16:0035.28/12/2017 16:00987.78/12/2017 16:005798/12/2017 16:002248/12/2017 16:001.508/12/2017 16:0055.58/12/2017 16:0025.08/12/2017 16:0035.48/12/2017 16:009.98/12/2017 16:000.0
8/12/2017 17:0035.08/12/2017 17:00987.48/12/2017 17:002898/12/2017 17:002158/12/2017 17:001.108/12/2017 17:0056.48/12/2017 17:0025.18/12/2017 17:0035.58/12/2017 17:0010.58/12/2017 17:000.0
8/12/2017 18:0033.98/12/2017 18:00987.08/12/2017 18:00918/12/2017 18:001498/12/2017 18:001.308/12/2017 18:0062.48/12/2017 18:0025.88/12/2017 18:0035.28/12/2017 18:0010.98/12/2017 18:000.0
8/12/2017 19:0031.98/12/2017 19:00987.28/12/2017 19:0068/12/2017 19:001268/12/2017 19:000.808/12/2017 19:0074.68/12/2017 19:0026.98/12/2017 19:0034.78/12/2017 19:0010.88/12/2017 19:000.0
8/12/2017 20:0030.98/12/2017 20:00988.18/12/2017 20:0008/12/2017 20:001258/12/2017 20:001.108/12/2017 20:0082.58/12/2017 20:0027.68/12/2017 20:0034.38/12/2017 20:0010.98/12/2017 20:000.0
8/12/2017 21:0030.38/12/2017 21:00989.28/12/2017 21:0008/12/2017 21:001338/12/2017 21:000.708/12/2017 21:0085.08/12/2017 21:0027.68/12/2017 21:0033.98/12/2017 21:0011.28/12/2017 21:000.0
8/12/2017 22:0029.88/12/2017 22:00989.98/12/2017 22:0008/12/2017 22:001468/12/2017 22:000.808/12/2017 22:0086.08/12/2017 22:0027.38/12/2017 22:0033.38/12/2017 22:0011.68/12/2017 22:000.0
8/12/2017 23:0029.38/12/2017 23:00990.68/12/2017 23:0008/12/2017 23:001778/12/2017 23:001.008/12/2017 23:0083.18/12/2017 23:0026.28/12/2017 23:0032.68/12/2017 23:0011.48/12/2017 23:000.0
8/13/2017 0:0028.88/13/2017 0:00990.78/13/2017 0:0008/13/2017 0:001578/13/2017 0:001.108/13/2017 0:0084.98/13/2017 0:0026.18/13/2017 0:0032.18/13/2017 0:0011.98/13/2017 0:000.0
8/13/2017 1:0028.48/13/2017 1:00990.68/13/2017 1:0008/13/2017 1:001478/13/2017 1:000.808/13/2017 1:0087.88/13/2017 1:0026.38/13/2017 1:0031.78/13/2017 1:0012.38/13/2017 1:000.0
8/13/2017 2:0028.18/13/2017 2:00990.48/13/2017 2:0008/13/2017 2:001378/13/2017 2:001.408/13/2017 2:0089.98/13/2017 2:0026.48/13/2017 2:0031.48/13/2017 2:0012.18/13/2017 2:000.0
8/13/2017 3:0027.88/13/2017 3:00990.28/13/2017 3:0008/13/2017 3:00688/13/2017 3:000.608/13/2017 3:0091.28/13/2017 3:0026.38/13/2017 3:0031.08/13/2017 3:0012.38/13/2017 3:000.0
8/13/2017 4:0027.68/13/2017 4:00990.28/13/2017 4:0008/13/2017 4:00598/13/2017 4:000.808/13/2017 4:0092.68/13/2017 4:0026.48/13/2017 4:0030.88/13/2017 4:0012.48/13/2017 4:000.0
8/13/2017 5:0027.48/13/2017 5:00990.28/13/2017 5:0008/13/2017 5:00838/13/2017 5:001.208/13/2017 5:0093.88/13/2017 5:0026.48/13/2017 5:0030.58/13/2017 5:0012.78/13/2017 5:000.0
8/13/2017 6:0027.18/13/2017 6:00990.48/13/2017 6:0048/13/2017 6:001028/13/2017 6:001.608/13/2017 6:0094.28/13/2017 6:0026.28/13/2017 6:0030.38/13/2017 6:0012.98/13/2017 6:000.0
8/13/2017 7:0027.58/13/2017 7:00991.08/13/2017 7:00668/13/2017 7:001208/13/2017 7:002.108/13/2017 7:0092.98/13/2017 7:0026.38/13/2017 7:0030.38/13/2017 7:0012.88/13/2017 7:000.0
8/13/2017 8:0029.28/13/2017 8:00991.58/13/2017 8:003028/13/2017 8:001408/13/2017 8:001.708/13/2017 8:0087.88/13/2017 8:0027.08/13/2017 8:0031.08/13/2017 8:0013.18/13/2017 8:000.0
8/13/2017 9:0031.88/13/2017 9:00991.68/13/2017 9:005798/13/2017 9:001628/13/2017 9:002.008/13/2017 9:0075.98/13/2017 9:0027.18/13/2017 9:0032.68/13/2017 9:0013.98/13/2017 9:000.0
8/13/2017 10:0032.98/13/2017 10:00991.68/13/2017 10:007078/13/2017 10:001728/13/2017 10:002.208/13/2017 10:0066.98/13/2017 10:0026.08/13/2017 10:0033.78/13/2017 10:0014.08/13/2017 10:000.0
8/13/2017 11:0033.58/13/2017 11:00991.48/13/2017 11:007278/13/2017 11:001988/13/2017 11:002.108/13/2017 11:0063.78/13/2017 11:0025.88/13/2017 11:0034.58/13/2017 11:0014.38/13/2017 11:000.0
8/13/2017 12:0034.28/13/2017 12:00991.08/13/2017 12:009358/13/2017 12:001828/13/2017 12:002.108/13/2017 12:0061.38/13/2017 12:0025.88/13/2017 12:0034.98/13/2017 12:0014.38/13/2017 12:000.0
8/13/2017 13:0035.08/13/2017 13:00990.18/13/2017 13:009448/13/2017 13:001628/13/2017 13:001.308/13/2017 13:0060.08/13/2017 13:0026.28/13/2017 13:0035.38/13/2017 13:0014.68/13/2017 13:000.0
8/13/2017 14:0035.08/13/2017 14:00989.48/13/2017 14:008998/13/2017 14:002248/13/2017 14:002.308/13/2017 14:0058.98/13/2017 14:0025.88/13/2017 14:0035.88/13/2017 14:0015.18/13/2017 14:000.0
8/13/2017 15:0035.48/13/2017 15:00988.68/13/2017 15:007788/13/2017 15:002178/13/2017 15:001.808/13/2017 15:0056.78/13/2017 15:0025.68/13/2017 15:0035.98/13/2017 15:0015.78/13/2017 15:000.0
8/13/2017 16:0036.28/13/2017 16:00987.78/13/2017 16:005768/13/2017 16:002038/13/2017 16:001.108/13/2017 16:0054.58/13/2017 16:0025.68/13/2017 16:0036.08/13/2017 16:0016.38/13/2017 16:000.0
8/13/2017 17:0036.38/13/2017 17:00987.58/13/2017 17:003688/13/2017 17:001448/13/2017 17:001.408/13/2017 17:0054.58/13/2017 17:0025.78/13/2017 17:0036.08/13/2017 17:0017.38/13/2017 17:000.0
8/13/2017 18:0034.88/13/2017 18:00987.68/13/2017 18:001328/13/2017 18:001568/13/2017 18:001.708/13/2017 18:0060.38/13/2017 18:0026.08/13/2017 18:0035.78/13/2017 18:0017.98/13/2017 18:000.0
8/13/2017 19:0032.18/13/2017 19:00988.28/13/2017 19:0058/13/2017 19:001568/13/2017 19:001.708/13/2017 19:0072.08/13/2017 19:0026.58/13/2017 19:0034.98/13/2017 19:0017.98/13/2017 19:000.0
8/13/2017 20:0031.28/13/2017 20:00989.18/13/2017 20:0008/13/2017 20:001628/13/2017 20:001.008/13/2017 20:0078.08/13/2017 20:0027.08/13/2017 20:0034.48/13/2017 20:0017.88/13/2017 20:000.0
8/13/2017 21:0030.58/13/2017 21:00990.08/13/2017 21:0008/13/2017 21:002528/13/2017 21:002.008/13/2017 21:0076.78/13/2017 21:0026.08/13/2017 21:0033.58/13/2017 21:0018.38/13/2017 21:000.0
8/13/2017 22:0029.58/13/2017 22:00990.48/13/2017 22:0008/13/2017 22:001318/13/2017 22:001.108/13/2017 22:0074.88/13/2017 22:0024.68/13/2017 22:0032.48/13/2017 22:0018.68/13/2017 22:000.0
8/13/2017 23:0029.38/13/2017 23:00991.28/13/2017 23:0008/13/2017 23:002278/13/2017 23:001.108/13/2017 23:0080.98/13/2017 23:0025.88/13/2017 23:0032.48/13/2017 23:0019.18/13/2017 23:000.0
8/14/2017 0:0028.98/14/2017 0:00991.38/14/2017 0:0008/14/2017 0:001898/14/2017 0:000.708/14/2017 0:0086.28/14/2017 0:0026.48/14/2017 0:0032.18/14/2017 0:0019.38/14/2017 0:000.0
8/14/2017 1:0028.68/14/2017 1:00990.98/14/2017 1:0008/14/2017 1:00268/14/2017 1:000.408/14/2017 1:0090.58/14/2017 1:0027.08/14/2017 1:0031.88/14/2017 1:0019.58/14/2017 1:000.0
8/14/2017 2:0028.38/14/2017 2:00990.58/14/2017 2:0008/14/2017 2:00868/14/2017 2:000.808/14/2017 2:0092.58/14/2017 2:0027.08/14/2017 2:0031.58/14/2017 2:0019.28/14/2017 2:000.0
8/14/2017 3:0028.08/14/2017 3:00990.38/14/2017 3:0008/14/2017 3:002898/14/2017 3:000.408/14/2017 3:0093.38/14/2017 3:0026.98/14/2017 3:0031.38/14/2017 3:0019.38/14/2017 3:000.0
8/14/2017 4:0027.88/14/2017 4:00990.68/14/2017 4:0008/14/2017 4:00528/14/2017 4:000.708/14/2017 4:0094.28/14/2017 4:0026.98/14/2017 4:0031.28/14/2017 4:0019.58/14/2017 4:000.0
8/14/2017 5:0027.78/14/2017 5:00990.68/14/2017 5:0008/14/2017 5:001188/14/2017 5:000.608/14/2017 5:0094.78/14/2017 5:0026.98/14/2017 5:0031.08/14/2017 5:0019.68/14/2017 5:000.0
8/14/2017 6:0027.68/14/2017 6:00990.98/14/2017 6:0048/14/2017 6:001158/14/2017 6:001.208/14/2017 6:0094.98/14/2017 6:0026.88/14/2017 6:0031.08/14/2017 6:0019.98/14/2017 6:000.0
8/14/2017 7:0028.58/14/2017 7:00991.28/14/2017 7:001048/14/2017 7:001288/14/2017 7:001.508/14/2017 7:0090.88/14/2017 7:0026.98/14/2017 7:0031.08/14/2017 7:0019.98/14/2017 7:000.0
8/14/2017 8:0029.98/14/2017 8:00991.08/14/2017 8:003308/14/2017 8:001218/14/2017 8:002.008/14/2017 8:0084.78/14/2017 8:0027.18/14/2017 8:0031.58/14/2017 8:0020.38/14/2017 8:000.0
8/14/2017 9:0031.58/14/2017 9:00991.28/14/2017 9:005228/14/2017 9:001178/14/2017 9:001.208/14/2017 9:0077.38/14/2017 9:0027.18/14/2017 9:0032.28/14/2017 9:0050.98/14/2017 9:000.2
8/14/2017 10:0032.68/14/2017 10:00991.38/14/2017 10:007248/14/2017 10:002158/14/2017 10:001.508/14/2017 10:0069.98/14/2017 10:0026.58/14/2017 10:0033.48/14/2017 10:0010.38/14/2017 10:004.4
8/14/2017 11:0033.48/14/2017 11:00991.08/14/2017 11:008868/14/2017 11:002058/14/2017 11:001.308/14/2017 11:0066.88/14/2017 11:0026.58/14/2017 11:0034.08/14/2017 11:006.68/14/2017 11:000.0
8/14/2017 12:0034.08/14/2017 12:00990.48/14/2017 12:008608/14/2017 12:001638/14/2017 12:001.508/14/2017 12:0064.48/14/2017 12:0026.48/14/2017 12:0034.78/14/2017 12:006.78/14/2017 12:000.0
8/14/2017 13:0034.78/14/2017 13:00989.78/14/2017 13:009318/14/2017 13:001888/14/2017 13:001.708/14/2017 13:0060.28/14/2017 13:0025.98/14/2017 13:0035.28/14/2017 13:006.88/14/2017 13:000.0
8/14/2017 14:0034.78/14/2017 14:00989.08/14/2017 14:008258/14/2017 14:002278/14/2017 14:002.208/14/2017 14:0060.18/14/2017 14:0025.98/14/2017 14:0035.88/14/2017 14:007.28/14/2017 14:000.0
8/14/2017 15:0035.68/14/2017 15:00988.28/14/2017 15:008068/14/2017 15:001898/14/2017 15:002.508/14/2017 15:0057.48/14/2017 15:0026.08/14/2017 15:0036.08/14/2017 15:007.88/14/2017 15:000.0
8/14/2017 16:0034.08/14/2017 16:00987.68/14/2017 16:005918/14/2017 16:001518/14/2017 16:003.308/14/2017 16:0065.18/14/2017 16:0026.68/14/2017 16:0034.98/14/2017 16:008.58/14/2017 16:000.0
8/14/2017 17:0033.48/14/2017 17:00987.58/14/2017 17:002698/14/2017 17:001788/14/2017 17:002.208/14/2017 17:0064.18/14/2017 17:0025.88/14/2017 17:0034.48/14/2017 17:009.38/14/2017 17:000.0
8/14/2017 18:0031.38/14/2017 18:00988.08/14/2017 18:00498/14/2017 18:001928/14/2017 18:001.208/14/2017 18:0070.08/14/2017 18:0025.28/14/2017 18:0033.58/14/2017 18:009.58/14/2017 18:000.0
8/14/2017 19:0030.28/14/2017 19:00988.78/14/2017 19:0048/14/2017 19:002548/14/2017 19:001.208/14/2017 19:0077.08/14/2017 19:0025.88/14/2017 19:0032.98/14/2017 19:009.78/14/2017 19:000.0
8/14/2017 20:0029.18/14/2017 20:00989.68/14/2017 20:0008/14/2017 20:002468/14/2017 20:000.808/14/2017 20:0081.68/14/2017 20:0025.78/14/2017 20:0032.08/14/2017 20:009.88/14/2017 20:000.0
8/14/2017 21:0028.88/14/2017 21:00990.18/14/2017 21:0008/14/2017 21:00328/14/2017 21:000.608/14/2017 21:0084.48/14/2017 21:0026.08/14/2017 21:0031.98/14/2017 21:0010.28/14/2017 21:000.0
8/14/2017 22:0028.58/14/2017 22:00990.78/14/2017 22:0008/14/2017 22:00338/14/2017 22:000.908/14/2017 22:0087.88/14/2017 22:0026.48/14/2017 22:0031.68/14/2017 22:0010.68/14/2017 22:000.0
8/14/2017 23:0028.38/14/2017 23:00990.98/14/2017 23:0008/14/2017 23:00528/14/2017 23:000.808/14/2017 23:0090.38/14/2017 23:0026.68/14/2017 23:0031.48/14/2017 23:0010.88/14/2017 23:000.0
8/15/2017 0:0027.98/15/2017 0:00990.98/15/2017 0:0008/15/2017 0:00298/15/2017 0:000.908/15/2017 0:0092.08/15/2017 0:0026.68/15/2017 0:0031.18/15/2017 0:0010.78/15/2017 0:000.0
8/15/2017 1:0027.88/15/2017 1:00990.08/15/2017 1:0008/15/2017 1:001038/15/2017 1:001.608/15/2017 1:0093.48/15/2017 1:0026.78/15/2017 1:0030.98/15/2017 1:0010.98/15/2017 1:000.0
8/15/2017 2:0027.58/15/2017 2:00989.78/15/2017 2:0008/15/2017 2:001198/15/2017 2:001.208/15/2017 2:0093.78/15/2017 2:0026.58/15/2017 2:0030.78/15/2017 2:0011.28/15/2017 2:000.0
8/15/2017 3:0027.58/15/2017 3:00989.58/15/2017 3:0008/15/2017 3:001938/15/2017 3:000.908/15/2017 3:0094.18/15/2017 3:0026.58/15/2017 3:0030.88/15/2017 3:0011.38/15/2017 3:000.0
8/15/2017 4:0027.58/15/2017 4:00989.18/15/2017 4:0008/15/2017 4:001648/15/2017 4:001.508/15/2017 4:0092.78/15/2017 4:0026.38/15/2017 4:0030.78/15/2017 4:0011.68/15/2017 4:000.0
8/15/2017 5:0027.48/15/2017 5:00988.88/15/2017 5:0008/15/2017 5:001368/15/2017 5:001.308/15/2017 5:0092.88/15/2017 5:0026.28/15/2017 5:0030.68/15/2017 5:0011.88/15/2017 5:000.0
8/15/2017 6:0027.38/15/2017 6:00990.08/15/2017 6:0018/15/2017 6:00748/15/2017 6:001.108/15/2017 6:0093.68/15/2017 6:0026.38/15/2017 6:0030.48/15/2017 6:0012.08/15/2017 6:000.0
8/15/2017 7:0027.08/15/2017 7:00990.98/15/2017 7:00448/15/2017 7:00578/15/2017 7:001.908/15/2017 7:0094.58/15/2017 7:0026.18/15/2017 7:0030.08/15/2017 7:0012.08/15/2017 7:000.0
8/15/2017 8:0027.38/15/2017 8:00990.98/15/2017 8:001468/15/2017 8:00938/15/2017 8:001.808/15/2017 8:0093.38/15/2017 8:0026.28/15/2017 8:0030.08/15/2017 8:0012.08/15/2017 8:000.0
8/15/2017 9:0028.68/15/2017 9:00991.18/15/2017 9:002768/15/2017 9:001398/15/2017 9:001.808/15/2017 9:0089.18/15/2017 9:0026.78/15/2017 9:0030.98/15/2017 9:0012.18/15/2017 9:000.0
8/15/2017 10:0030.38/15/2017 10:00990.78/15/2017 10:004988/15/2017 10:001508/15/2017 10:002.108/15/2017 10:0079.28/15/2017 10:0026.48/15/2017 10:0031.58/15/2017 10:0012.68/15/2017 10:000.0
8/15/2017 11:0030.98/15/2017 11:00990.58/15/2017 11:004188/15/2017 11:001928/15/2017 11:001.608/15/2017 11:0073.28/15/2017 11:0025.68/15/2017 11:0032.08/15/2017 11:0013.08/15/2017 11:000.0
8/15/2017 12:0031.28/15/2017 12:00990.28/15/2017 12:005088/15/2017 12:002058/15/2017 12:001.808/15/2017 12:0071.38/15/2017 12:0025.58/15/2017 12:0032.38/15/2017 12:0012.98/15/2017 12:000.0
8/15/2017 13:0031.88/15/2017 13:00989.48/15/2017 13:005888/15/2017 13:002148/15/2017 13:002.108/15/2017 13:0070.58/15/2017 13:0025.88/15/2017 13:0032.98/15/2017 13:0013.28/15/2017 13:000.0
8/15/2017 14:0032.28/15/2017 14:00988.38/15/2017 14:005008/15/2017 14:001988/15/2017 14:002.008/15/2017 14:0070.08/15/2017 14:0026.18/15/2017 14:0033.28/15/2017 14:0013.48/15/2017 14:000.0
8/15/2017 15:0031.98/15/2017 15:00987.28/15/2017 15:003968/15/2017 15:001558/15/2017 15:002.208/15/2017 15:0071.58/15/2017 15:0026.28/15/2017 15:0033.28/15/2017 15:0013.88/15/2017 15:000.0
8/15/2017 16:0032.08/15/2017 16:00986.28/15/2017 16:002928/15/2017 16:001638/15/2017 16:001.608/15/2017 16:0070.98/15/2017 16:0026.18/15/2017 16:0033.38/15/2017 16:0014.08/15/2017 16:000.0
8/15/2017 17:0031.48/15/2017 17:00986.28/15/2017 17:002408/15/2017 17:001308/15/2017 17:002.008/15/2017 17:0075.28/15/2017 17:0026.68/15/2017 17:0033.38/15/2017 17:0014.18/15/2017 17:000.0
8/15/2017 18:0030.88/15/2017 18:00986.58/15/2017 18:001098/15/2017 18:001378/15/2017 18:002.608/15/2017 18:0075.78/15/2017 18:0026.18/15/2017 18:0033.18/15/2017 18:0014.78/15/2017 18:000.0
8/15/2017 19:0029.58/15/2017 19:00987.48/15/2017 19:0038/15/2017 19:001468/15/2017 19:001.608/15/2017 19:0080.98/15/2017 19:0026.08/15/2017 19:0032.68/15/2017 19:0014.48/15/2017 19:000.0
8/15/2017 20:0028.98/15/2017 20:00988.68/15/2017 20:0008/15/2017 20:001238/15/2017 20:001.108/15/2017 20:0086.08/15/2017 20:0026.48/15/2017 20:0032.18/15/2017 20:0014.68/15/2017 20:000.0
8/15/2017 21:0027.18/15/2017 21:00990.18/15/2017 21:0008/15/2017 21:002748/15/2017 21:003.908/15/2017 21:0084.78/15/2017 21:0024.48/15/2017 21:0029.68/15/2017 21:0015.08/15/2017 21:000.1
8/15/2017 22:0024.58/15/2017 22:00990.98/15/2017 22:0008/15/2017 22:003258/15/2017 22:002.908/15/2017 22:0090.68/15/2017 22:0022.98/15/2017 22:0027.18/15/2017 22:0014.68/15/2017 22:000.4
8/15/2017 23:0024.48/15/2017 23:00991.18/15/2017 23:0008/15/2017 23:003148/15/2017 23:002.108/15/2017 23:0092.08/15/2017 23:0023.18/15/2017 23:0027.08/15/2017 23:0014.88/15/2017 23:000.2
8/16/2017 0:0024.38/16/2017 0:00990.38/16/2017 0:0008/16/2017 0:003128/16/2017 0:001.108/16/2017 0:0093.18/16/2017 0:0023.28/16/2017 0:0027.08/16/2017 0:0014.98/16/2017 0:000.0
8/16/2017 1:0024.28/16/2017 1:00989.58/16/2017 1:0008/16/2017 1:00338/16/2017 1:000.908/16/2017 1:0093.88/16/2017 1:0023.28/16/2017 1:0026.98/16/2017 1:0015.28/16/2017 1:000.0
8/16/2017 2:0024.28/16/2017 2:00989.38/16/2017 2:0008/16/2017 2:001288/16/2017 2:000.508/16/2017 2:0094.58/16/2017 2:0023.38/16/2017 2:0026.98/16/2017 2:0015.38/16/2017 2:000.0
8/16/2017 3:0024.38/16/2017 3:00989.28/16/2017 3:0008/16/2017 3:00848/16/2017 3:001.008/16/2017 3:0094.88/16/2017 3:0023.58/16/2017 3:0027.08/16/2017 3:0015.48/16/2017 3:000.0
8/16/2017 4:0024.38/16/2017 4:00989.28/16/2017 4:0008/16/2017 4:00758/16/2017 4:001.008/16/2017 4:0095.18/16/2017 4:0023.58/16/2017 4:0027.18/16/2017 4:0015.58/16/2017 4:000.0
8/16/2017 5:0024.28/16/2017 5:00989.28/16/2017 5:0008/16/2017 5:00828/16/2017 5:001.708/16/2017 5:0095.68/16/2017 5:0023.58/16/2017 5:0026.98/16/2017 5:0015.78/16/2017 5:000.0
8/16/2017 6:0024.18/16/2017 6:00989.18/16/2017 6:0018/16/2017 6:00808/16/2017 6:002.408/16/2017 6:0095.98/16/2017 6:0023.58/16/2017 6:0026.88/16/2017 6:0015.98/16/2017 6:000.0
8/16/2017 7:0024.28/16/2017 7:00989.88/16/2017 7:00618/16/2017 7:001048/16/2017 7:002.108/16/2017 7:0094.88/16/2017 7:0023.48/16/2017 7:0026.98/16/2017 7:0015.98/16/2017 7:000.0
8/16/2017 8:0025.28/16/2017 8:00990.88/16/2017 8:002088/16/2017 8:001078/16/2017 8:001.708/16/2017 8:0092.28/16/2017 8:0023.98/16/2017 8:0027.48/16/2017 8:0016.18/16/2017 8:000.0
8/16/2017 9:0026.28/16/2017 9:00991.08/16/2017 9:003208/16/2017 9:001018/16/2017 9:002.208/16/2017 9:0088.08/16/2017 9:0024.18/16/2017 9:0028.28/16/2017 9:0016.48/16/2017 9:000.0
8/16/2017 10:0026.58/16/2017 10:00990.98/16/2017 10:002338/16/2017 10:001208/16/2017 10:001.908/16/2017 10:0086.38/16/2017 10:0024.18/16/2017 10:0028.58/16/2017 10:0016.48/16/2017 10:000.0
8/16/2017 11:0028.08/16/2017 11:00990.68/16/2017 11:004418/16/2017 11:001268/16/2017 11:001.408/16/2017 11:0080.28/16/2017 11:0024.38/16/2017 11:0029.28/16/2017 11:0016.78/16/2017 11:000.0
8/16/2017 12:0028.88/16/2017 12:00989.88/16/2017 12:004618/16/2017 12:001168/16/2017 12:001.508/16/2017 12:0076.58/16/2017 12:0024.38/16/2017 12:0029.98/16/2017 12:0017.08/16/2017 12:000.0
8/16/2017 13:0030.28/16/2017 13:00988.98/16/2017 13:005978/16/2017 13:001368/16/2017 13:001.408/16/2017 13:0070.38/16/2017 13:0024.38/16/2017 13:0030.78/16/2017 13:0017.28/16/2017 13:000.0
8/16/2017 14:0030.88/16/2017 14:00988.18/16/2017 14:006268/16/2017 14:00878/16/2017 14:001.108/16/2017 14:0068.28/16/2017 14:0024.38/16/2017 14:0031.38/16/2017 14:0017.38/16/2017 14:000.0
8/16/2017 15:0031.48/16/2017 15:00986.98/16/2017 15:007368/16/2017 15:00608/16/2017 15:001.108/16/2017 15:0066.28/16/2017 15:0024.48/16/2017 15:0031.98/16/2017 15:0017.58/16/2017 15:000.0
8/16/2017 16:0031.78/16/2017 16:00986.08/16/2017 16:005828/16/2017 16:00928/16/2017 16:002.008/16/2017 16:0066.48/16/2017 16:0024.78/16/2017 16:0032.38/16/2017 16:0017.98/16/2017 16:000.0
8/16/2017 17:0030.48/16/2017 17:00985.98/16/2017 17:002558/16/2017 17:00838/16/2017 17:001.908/16/2017 17:0072.58/16/2017 17:0025.08/16/2017 17:0032.28/16/2017 17:0018.38/16/2017 17:000.0
8/16/2017 18:0029.78/16/2017 18:00986.28/16/2017 18:00678/16/2017 18:00978/16/2017 18:001.708/16/2017 18:0075.38/16/2017 18:0024.98/16/2017 18:0032.08/16/2017 18:0018.38/16/2017 18:000.0
8/16/2017 19:0026.38/16/2017 19:00987.38/16/2017 19:0028/16/2017 19:001488/16/2017 19:003.708/16/2017 19:0086.28/16/2017 19:0023.98/16/2017 19:0028.98/16/2017 19:0014.08/16/2017 19:0019.2
8/16/2017 20:0025.18/16/2017 20:00988.58/16/2017 20:0008/16/2017 20:001498/16/2017 20:002.108/16/2017 20:0093.58/16/2017 20:0024.18/16/2017 20:0028.38/16/2017 20:006.18/16/2017 20:005.1
8/16/2017 21:0025.28/16/2017 21:00989.48/16/2017 21:0008/16/2017 21:00928/16/2017 21:002.108/16/2017 21:0093.48/16/2017 21:0024.18/16/2017 21:0028.38/16/2017 21:004.68/16/2017 21:002.0
8/16/2017 22:0025.48/16/2017 22:00990.08/16/2017 22:0008/16/2017 22:001258/16/2017 22:000.708/16/2017 22:0094.58/16/2017 22:0024.58/16/2017 22:0028.48/16/2017 22:004.68/16/2017 22:000.2
8/16/2017 23:0025.78/16/2017 23:00990.28/16/2017 23:0008/16/2017 23:001778/16/2017 23:001.008/16/2017 23:0095.08/16/2017 23:0024.98/16/2017 23:0028.78/16/2017 23:004.48/16/2017 23:000.1
8/17/2017 0:0025.88/17/2017 0:00989.88/17/2017 0:0008/17/2017 0:00618/17/2017 0:000.708/17/2017 0:0095.48/17/2017 0:0025.18/17/2017 0:0028.88/17/2017 0:004.58/17/2017 0:000.0
8/17/2017 1:0025.78/17/2017 1:00989.58/17/2017 1:0008/17/2017 1:00548/17/2017 1:001.108/17/2017 1:0095.98/17/2017 1:0025.18/17/2017 1:0028.68/17/2017 1:004.78/17/2017 1:000.0
8/17/2017 2:0025.78/17/2017 2:00988.98/17/2017 2:0008/17/2017 2:001148/17/2017 2:000.808/17/2017 2:0096.38/17/2017 2:0025.18/17/2017 2:0028.78/17/2017 2:004.98/17/2017 2:000.0
8/17/2017 3:0025.68/17/2017 3:00988.48/17/2017 3:0008/17/2017 3:002268/17/2017 3:001.108/17/2017 3:0095.58/17/2017 3:0024.98/17/2017 3:0028.78/17/2017 3:004.98/17/2017 3:000.0
8/17/2017 4:0025.48/17/2017 4:00988.28/17/2017 4:0008/17/2017 4:003398/17/2017 4:000.908/17/2017 4:0094.28/17/2017 4:0024.58/17/2017 4:0028.38/17/2017 4:005.18/17/2017 4:000.0
8/17/2017 5:0025.38/17/2017 5:00988.48/17/2017 5:0008/17/2017 5:002948/17/2017 5:001.208/17/2017 5:0094.48/17/2017 5:0024.48/17/2017 5:0028.28/17/2017 5:005.18/17/2017 5:000.0
8/17/2017 6:0025.28/17/2017 6:00989.18/17/2017 6:0038/17/2017 6:003138/17/2017 6:001.108/17/2017 6:0094.08/17/2017 6:0024.28/17/2017 6:0028.18/17/2017 6:005.18/17/2017 6:000.0
8/17/2017 7:0025.58/17/2017 7:00989.68/17/2017 7:00768/17/2017 7:003568/17/2017 7:000.608/17/2017 7:0093.78/17/2017 7:0024.58/17/2017 7:0028.28/17/2017 7:005.18/17/2017 7:000.0
8/17/2017 8:0026.18/17/2017 8:00990.38/17/2017 8:001738/17/2017 8:00238/17/2017 8:001.308/17/2017 8:0091.48/17/2017 8:0024.78/17/2017 8:0028.58/17/2017 8:005.28/17/2017 8:000.0
8/17/2017 9:0027.68/17/2017 9:00991.08/17/2017 9:004338/17/2017 9:00228/17/2017 9:001.008/17/2017 9:0085.68/17/2017 9:0025.08/17/2017 9:0029.28/17/2017 9:005.58/17/2017 9:000.0
8/17/2017 10:0029.18/17/2017 10:00990.98/17/2017 10:006308/17/2017 10:00258/17/2017 10:001.108/17/2017 10:0078.28/17/2017 10:0025.08/17/2017 10:0030.08/17/2017 10:006.18/17/2017 10:000.0
8/17/2017 11:0029.68/17/2017 11:00990.48/17/2017 11:007648/17/2017 11:00768/17/2017 11:001.708/17/2017 11:0075.98/17/2017 11:0025.08/17/2017 11:0030.68/17/2017 11:006.18/17/2017 11:000.0
8/17/2017 12:0029.78/17/2017 12:00990.08/17/2017 12:005448/17/2017 12:001058/17/2017 12:001.908/17/2017 12:0076.78/17/2017 12:0025.28/17/2017 12:0031.08/17/2017 12:006.28/17/2017 12:000.0
8/17/2017 13:0031.38/17/2017 13:00989.08/17/2017 13:0010078/17/2017 13:001028/17/2017 13:001.308/17/2017 13:0069.38/17/2017 13:0025.18/17/2017 13:0031.98/17/2017 13:006.38/17/2017 13:000.0
8/17/2017 14:0031.78/17/2017 14:00987.88/17/2017 14:008098/17/2017 14:00938/17/2017 14:001.808/17/2017 14:0065.28/17/2017 14:0024.48/17/2017 14:0032.68/17/2017 14:006.78/17/2017 14:000.0
8/17/2017 15:0032.78/17/2017 15:00986.78/17/2017 15:006638/17/2017 15:001138/17/2017 15:001.308/17/2017 15:0061.28/17/2017 15:0024.38/17/2017 15:0033.08/17/2017 15:007.08/17/2017 15:000.0
8/17/2017 16:0033.48/17/2017 16:00986.08/17/2017 16:005358/17/2017 16:001378/17/2017 16:001.108/17/2017 16:0059.48/17/2017 16:0024.58/17/2017 16:0033.48/17/2017 16:007.48/17/2017 16:000.0
8/17/2017 17:0033.58/17/2017 17:00986.08/17/2017 17:003308/17/2017 17:001298/17/2017 17:001.208/17/2017 17:0055.98/17/2017 17:0023.68/17/2017 17:0033.68/17/2017 17:008.38/17/2017 17:000.0
8/17/2017 18:0031.88/17/2017 18:00986.38/17/2017 18:00838/17/2017 18:001128/17/2017 18:001.408/17/2017 18:0065.78/17/2017 18:0024.78/17/2017 18:0033.38/17/2017 18:008.28/17/2017 18:000.0
8/17/2017 19:0030.08/17/2017 19:00987.18/17/2017 19:0048/17/2017 19:001108/17/2017 19:001.308/17/2017 19:0076.38/17/2017 19:0025.48/17/2017 19:0032.88/17/2017 19:008.18/17/2017 19:000.0
8/17/2017 20:0029.08/17/2017 20:00987.98/17/2017 20:0008/17/2017 20:00938/17/2017 20:001.808/17/2017 20:0081.88/17/2017 20:0025.78/17/2017 20:0032.18/17/2017 20:008.18/17/2017 20:000.0
8/17/2017 21:0027.98/17/2017 21:00989.08/17/2017 21:0008/17/2017 21:00528/17/2017 21:002.808/17/2017 21:0080.08/17/2017 21:0024.28/17/2017 21:0030.68/17/2017 21:008.58/17/2017 21:000.0
8/17/2017 22:0027.38/17/2017 22:00990.18/17/2017 22:0008/17/2017 22:00568/17/2017 22:002.408/17/2017 22:0079.38/17/2017 22:0023.58/17/2017 22:0029.98/17/2017 22:009.18/17/2017 22:000.0
8/17/2017 23:0026.98/17/2017 23:00990.48/17/2017 23:0008/17/2017 23:0048/17/2017 23:000.908/17/2017 23:0081.98/17/2017 23:0023.68/17/2017 23:0029.68/17/2017 23:009.38/17/2017 23:000.0
8/18/2017 0:0026.68/18/2017 0:00990.08/18/2017 0:0008/18/2017 0:00158/18/2017 0:001.008/18/2017 0:0085.08/18/2017 0:0023.98/18/2017 0:0029.38/18/2017 0:009.88/18/2017 0:000.0
8/18/2017 1:0026.48/18/2017 1:00989.78/18/2017 1:0008/18/2017 1:00628/18/2017 1:000.908/18/2017 1:0087.68/18/2017 1:0024.38/18/2017 1:0029.28/18/2017 1:0010.18/18/2017 1:000.0
8/18/2017 2:0026.38/18/2017 2:00989.08/18/2017 2:0008/18/2017 2:00638/18/2017 2:001.108/18/2017 2:0088.38/18/2017 2:0024.38/18/2017 2:0029.08/18/2017 2:009.98/18/2017 2:000.0
8/18/2017 3:0026.08/18/2017 3:00989.08/18/2017 3:0008/18/2017 3:001278/18/2017 3:000.908/18/2017 3:0089.58/18/2017 3:0024.28/18/2017 3:0028.88/18/2017 3:009.78/18/2017 3:000.0
8/18/2017 4:0026.08/18/2017 4:00989.28/18/2017 4:0008/18/2017 4:001518/18/2017 4:000.808/18/2017 4:0091.08/18/2017 4:0024.58/18/2017 4:0028.98/18/2017 4:009.98/18/2017 4:000.0
8/18/2017 5:0026.18/18/2017 5:00989.48/18/2017 5:0008/18/2017 5:001298/18/2017 5:001.108/18/2017 5:0092.48/18/2017 5:0024.88/18/2017 5:0028.98/18/2017 5:0010.18/18/2017 5:000.0
8/18/2017 6:0025.98/18/2017 6:00990.08/18/2017 6:0018/18/2017 6:001158/18/2017 6:001.608/18/2017 6:0092.98/18/2017 6:0024.78/18/2017 6:0028.88/18/2017 6:0010.28/18/2017 6:000.0
8/18/2017 7:0026.38/18/2017 7:00990.68/18/2017 7:00988/18/2017 7:001178/18/2017 7:001.908/18/2017 7:0091.78/18/2017 7:0024.98/18/2017 7:0028.98/18/2017 7:0010.28/18/2017 7:000.0
8/18/2017 8:0027.58/18/2017 8:00991.18/18/2017 8:002298/18/2017 8:001338/18/2017 8:001.908/18/2017 8:0086.38/18/2017 8:0025.18/18/2017 8:0029.58/18/2017 8:0010.88/18/2017 8:000.0
8/18/2017 9:0028.78/18/2017 9:00991.68/18/2017 9:003168/18/2017 9:001258/18/2017 9:001.408/18/2017 9:0080.38/18/2017 9:0025.08/18/2017 9:0029.98/18/2017 9:0011.18/18/2017 9:000.0
8/18/2017 10:0029.48/18/2017 10:00991.48/18/2017 10:006978/18/2017 10:00688/18/2017 10:001.708/18/2017 10:0077.08/18/2017 10:0025.08/18/2017 10:0030.68/18/2017 10:0011.38/18/2017 10:000.0
8/18/2017 11:0030.58/18/2017 11:00990.98/18/2017 11:007438/18/2017 11:00718/18/2017 11:001.408/18/2017 11:0071.68/18/2017 11:0024.98/18/2017 11:0031.38/18/2017 11:0011.68/18/2017 11:000.0
8/18/2017 12:0031.18/18/2017 12:00990.78/18/2017 12:006158/18/2017 12:00948/18/2017 12:001.308/18/2017 12:0069.48/18/2017 12:0024.98/18/2017 12:0032.08/18/2017 12:0011.98/18/2017 12:000.0
8/18/2017 13:0032.38/18/2017 13:00990.18/18/2017 13:006598/18/2017 13:001158/18/2017 13:000.908/18/2017 13:0065.38/18/2017 13:0025.08/18/2017 13:0032.78/18/2017 13:0011.88/18/2017 13:000.0
8/18/2017 14:0032.98/18/2017 14:00989.08/18/2017 14:006298/18/2017 14:001928/18/2017 14:001.008/18/2017 14:0061.98/18/2017 14:0024.78/18/2017 14:0033.08/18/2017 14:0012.38/18/2017 14:000.0
8/18/2017 15:0033.18/18/2017 15:00987.88/18/2017 15:006588/18/2017 15:001728/18/2017 15:001.308/18/2017 15:0062.78/18/2017 15:0025.18/18/2017 15:0033.48/18/2017 15:0012.68/18/2017 15:000.0
8/18/2017 16:0032.58/18/2017 16:00987.68/18/2017 16:003038/18/2017 16:00788/18/2017 16:001.208/18/2017 16:0064.38/18/2017 16:0025.08/18/2017 16:0033.68/18/2017 16:0013.28/18/2017 16:000.0
8/18/2017 17:0026.98/18/2017 17:00988.28/18/2017 17:00198/18/2017 17:00488/18/2017 17:005.808/18/2017 17:0081.48/18/2017 17:0023.58/18/2017 17:0029.08/18/2017 17:0013.28/18/2017 17:001.1
8/18/2017 18:0025.68/18/2017 18:00988.78/18/2017 18:00258/18/2017 18:00638/18/2017 18:001.908/18/2017 18:0089.08/18/2017 18:0023.78/18/2017 18:0028.38/18/2017 18:0012.58/18/2017 18:000.1
8/18/2017 19:0025.78/18/2017 19:00989.48/18/2017 19:0038/18/2017 19:00618/18/2017 19:001.708/18/2017 19:0089.88/18/2017 19:0024.08/18/2017 19:0028.58/18/2017 19:0013.08/18/2017 19:000.0
8/18/2017 20:0025.78/18/2017 20:00990.08/18/2017 20:0008/18/2017 20:00608/18/2017 20:001.608/18/2017 20:0090.88/18/2017 20:0024.28/18/2017 20:0028.58/18/2017 20:0013.38/18/2017 20:000.0
8/18/2017 21:0025.68/18/2017 21:00990.98/18/2017 21:0008/18/2017 21:00638/18/2017 21:001.308/18/2017 21:0091.38/18/2017 21:0024.28/18/2017 21:0028.58/18/2017 21:0013.48/18/2017 21:000.0
8/18/2017 22:0025.48/18/2017 22:00991.38/18/2017 22:0008/18/2017 22:00388/18/2017 22:001.308/18/2017 22:0091.58/18/2017 22:0024.08/18/2017 22:0028.38/18/2017 22:0013.98/18/2017 22:000.0
8/18/2017 23:0025.58/18/2017 23:00991.78/18/2017 23:0008/18/2017 23:00738/18/2017 23:001.008/18/2017 23:0091.78/18/2017 23:0024.18/18/2017 23:0028.58/18/2017 23:0014.08/18/2017 23:000.0
8/19/2017 0:0025.68/19/2017 0:00991.58/19/2017 0:0008/19/2017 0:001178/19/2017 0:000.908/19/2017 0:0090.98/19/2017 0:0024.18/19/2017 0:0028.58/19/2017 0:0014.08/19/2017 0:000.0
8/19/2017 1:0025.68/19/2017 1:00991.08/19/2017 1:0008/19/2017 1:00638/19/2017 1:001.008/19/2017 1:0090.88/19/2017 1:0024.18/19/2017 1:0028.58/19/2017 1:0014.28/19/2017 1:000.0
8/19/2017 2:0025.48/19/2017 2:00990.18/19/2017 2:0008/19/2017 2:00558/19/2017 2:001.008/19/2017 2:0090.68/19/2017 2:0023.88/19/2017 2:0028.28/19/2017 2:0014.38/19/2017 2:000.0
8/19/2017 3:0025.28/19/2017 3:00989.68/19/2017 3:0008/19/2017 3:00808/19/2017 3:000.308/19/2017 3:0091.78/19/2017 3:0023.88/19/2017 3:0028.18/19/2017 3:0014.48/19/2017 3:000.0
8/19/2017 4:0025.28/19/2017 4:00990.08/19/2017 4:0008/19/2017 4:00498/19/2017 4:000.408/19/2017 4:0092.98/19/2017 4:0024.08/19/2017 4:0028.18/19/2017 4:0014.48/19/2017 4:000.0
8/19/2017 5:0025.38/19/2017 5:00990.18/19/2017 5:0008/19/2017 5:00238/19/2017 5:000.908/19/2017 5:0092.98/19/2017 5:0024.18/19/2017 5:0028.18/19/2017 5:0014.68/19/2017 5:000.0
8/19/2017 6:0025.38/19/2017 6:00990.38/19/2017 6:0018/19/2017 6:00188/19/2017 6:001.008/19/2017 6:0092.68/19/2017 6:0024.18/19/2017 6:0028.18/19/2017 6:0014.78/19/2017 6:000.0
8/19/2017 7:0025.68/19/2017 7:00990.68/19/2017 7:00378/19/2017 7:001018/19/2017 7:000.308/19/2017 7:0093.48/19/2017 7:0024.58/19/2017 7:0028.28/19/2017 7:0014.68/19/2017 7:000.0
8/19/2017 8:0026.78/19/2017 8:00991.28/19/2017 8:001488/19/2017 8:003428/19/2017 8:000.708/19/2017 8:0090.68/19/2017 8:0025.18/19/2017 8:0028.98/19/2017 8:0014.78/19/2017 8:000.0
8/19/2017 9:0028.28/19/2017 9:00991.68/19/2017 9:003848/19/2017 9:003258/19/2017 9:000.908/19/2017 9:0084.18/19/2017 9:0025.38/19/2017 9:0029.78/19/2017 9:0015.08/19/2017 9:000.0
8/19/2017 10:0028.88/19/2017 10:00991.68/19/2017 10:005568/19/2017 10:00438/19/2017 10:002.008/19/2017 10:0078.38/19/2017 10:0024.78/19/2017 10:0030.38/19/2017 10:0015.38/19/2017 10:000.0
8/19/2017 11:0029.48/19/2017 11:00991.18/19/2017 11:006268/19/2017 11:00508/19/2017 11:002.508/19/2017 11:0074.88/19/2017 11:0024.58/19/2017 11:0031.08/19/2017 11:0015.78/19/2017 11:000.0
8/19/2017 12:0029.88/19/2017 12:00990.88/19/2017 12:006278/19/2017 12:00428/19/2017 12:002.508/19/2017 12:0072.98/19/2017 12:0024.58/19/2017 12:0031.48/19/2017 12:0015.68/19/2017 12:000.0
8/19/2017 13:0029.98/19/2017 13:00990.28/19/2017 13:005218/19/2017 13:00498/19/2017 13:002.808/19/2017 13:0072.48/19/2017 13:0024.58/19/2017 13:0031.78/19/2017 13:0015.98/19/2017 13:000.0
8/19/2017 14:0030.48/19/2017 14:00989.38/19/2017 14:005738/19/2017 14:00458/19/2017 14:002.608/19/2017 14:0071.08/19/2017 14:0024.68/19/2017 14:0032.28/19/2017 14:0016.18/19/2017 14:000.0
8/19/2017 15:0030.88/19/2017 15:00988.38/19/2017 15:005228/19/2017 15:00418/19/2017 15:002.908/19/2017 15:0069.88/19/2017 15:0024.78/19/2017 15:0032.78/19/2017 15:0016.68/19/2017 15:000.0
8/19/2017 16:0031.38/19/2017 16:00987.48/19/2017 16:004818/19/2017 16:00468/19/2017 16:003.008/19/2017 16:0068.28/19/2017 16:0024.88/19/2017 16:0033.28/19/2017 16:0017.08/19/2017 16:000.0
8/19/2017 17:0031.08/19/2017 17:00987.18/19/2017 17:002668/19/2017 17:00668/19/2017 17:003.308/19/2017 17:0067.98/19/2017 17:0024.58/19/2017 17:0033.08/19/2017 17:0017.58/19/2017 17:000.0
8/19/2017 18:0030.18/19/2017 18:00987.68/19/2017 18:00928/19/2017 18:00678/19/2017 18:002.708/19/2017 18:0072.38/19/2017 18:0024.68/19/2017 18:0032.58/19/2017 18:0017.88/19/2017 18:000.0
8/19/2017 19:0029.18/19/2017 19:00988.38/19/2017 19:0048/19/2017 19:00798/19/2017 19:002.608/19/2017 19:0074.38/19/2017 19:0024.18/19/2017 19:0031.78/19/2017 19:0018.18/19/2017 19:000.0
8/19/2017 20:0028.38/19/2017 20:00989.18/19/2017 20:0008/19/2017 20:00858/19/2017 20:002.808/19/2017 20:0076.88/19/2017 20:0023.98/19/2017 20:0031.18/19/2017 20:0018.28/19/2017 20:000.0
8/19/2017 21:0028.08/19/2017 21:00990.28/19/2017 21:0008/19/2017 21:00918/19/2017 21:002.008/19/2017 21:0079.38/19/2017 21:0024.28/19/2017 21:0030.78/19/2017 21:0018.58/19/2017 21:000.0
8/19/2017 22:0027.48/19/2017 22:00990.98/19/2017 22:0008/19/2017 22:001138/19/2017 22:002.308/19/2017 22:0082.88/19/2017 22:0024.38/19/2017 22:0030.28/19/2017 22:0018.88/19/2017 22:000.0
8/19/2017 23:0027.08/19/2017 23:00991.18/19/2017 23:0008/19/2017 23:001338/19/2017 23:002.008/19/2017 23:0086.08/19/2017 23:0024.58/19/2017 23:0029.98/19/2017 23:0019.28/19/2017 23:000.0
8/20/2017 0:0026.78/20/2017 0:00990.78/20/2017 0:0008/20/2017 0:001348/20/2017 0:001.908/20/2017 0:0089.38/20/2017 0:0024.98/20/2017 0:0029.58/20/2017 0:0019.28/20/2017 0:000.0
8/20/2017 1:0026.48/20/2017 1:00990.28/20/2017 1:0008/20/2017 1:001558/20/2017 1:001.708/20/2017 1:0091.28/20/2017 1:0024.98/20/2017 1:0029.28/20/2017 1:0019.18/20/2017 1:000.0
8/20/2017 2:0026.18/20/2017 2:00990.18/20/2017 2:0008/20/2017 2:001488/20/2017 2:001.408/20/2017 2:0092.28/20/2017 2:0024.88/20/2017 2:0028.98/20/2017 2:0018.98/20/2017 2:000.8
8/20/2017 3:0025.78/20/2017 3:00989.28/20/2017 3:0008/20/2017 3:003488/20/2017 3:000.808/20/2017 3:0093.58/20/2017 3:0024.68/20/2017 3:0028.58/20/2017 3:0018.58/20/2017 3:000.0
8/20/2017 4:0025.58/20/2017 4:00989.58/20/2017 4:0008/20/2017 4:0058/20/2017 4:000.408/20/2017 4:0094.58/20/2017 4:0024.68/20/2017 4:0028.58/20/2017 4:0018.68/20/2017 4:000.0
8/20/2017 5:0025.68/20/2017 5:00990.08/20/2017 5:0008/20/2017 5:00948/20/2017 5:000.408/20/2017 5:0094.78/20/2017 5:0024.88/20/2017 5:0028.68/20/2017 5:0018.68/20/2017 5:000.0
8/20/2017 6:0025.78/20/2017 6:00990.38/20/2017 6:0028/20/2017 6:00948/20/2017 6:001.008/20/2017 6:0094.98/20/2017 6:0024.98/20/2017 6:0028.68/20/2017 6:0018.68/20/2017 6:000.0
8/20/2017 7:0026.18/20/2017 7:00990.68/20/2017 7:00878/20/2017 7:001068/20/2017 7:001.608/20/2017 7:0094.18/20/2017 7:0025.28/20/2017 7:0028.88/20/2017 7:0018.68/20/2017 7:000.0
8/20/2017 8:0027.38/20/2017 8:00990.78/20/2017 8:003398/20/2017 8:00778/20/2017 8:003.108/20/2017 8:0087.38/20/2017 8:0025.18/20/2017 8:0029.58/20/2017 8:0019.08/20/2017 8:000.0
8/20/2017 9:0028.38/20/2017 9:00991.18/20/2017 9:004848/20/2017 9:00698/20/2017 9:003.508/20/2017 9:0081.98/20/2017 9:0025.08/20/2017 9:0030.38/20/2017 9:0019.48/20/2017 9:000.0
8/20/2017 10:0029.28/20/2017 10:00990.98/20/2017 10:005998/20/2017 10:00778/20/2017 10:002.508/20/2017 10:0077.28/20/2017 10:0024.98/20/2017 10:0030.98/20/2017 10:0019.58/20/2017 10:000.0
8/20/2017 11:0030.68/20/2017 11:00990.48/20/2017 11:006888/20/2017 11:001218/20/2017 11:002.208/20/2017 11:0071.68/20/2017 11:0025.08/20/2017 11:0031.68/20/2017 11:0020.08/20/2017 11:000.0
8/20/2017 12:0031.58/20/2017 12:00989.88/20/2017 12:005688/20/2017 12:001418/20/2017 12:001.908/20/2017 12:0068.68/20/2017 12:0025.18/20/2017 12:0032.18/20/2017 12:0020.18/20/2017 12:000.0
8/20/2017 13:0031.88/20/2017 13:00989.18/20/2017 13:006948/20/2017 13:001248/20/2017 13:002.208/20/2017 13:0067.48/20/2017 13:0025.18/20/2017 13:0032.88/20/2017 13:0020.38/20/2017 13:000.0
8/20/2017 14:0032.08/20/2017 14:00988.28/20/2017 14:006438/20/2017 14:001398/20/2017 14:002.508/20/2017 14:0066.98/20/2017 14:0025.28/20/2017 14:0033.18/20/2017 14:0020.38/20/2017 14:000.0
8/20/2017 15:0032.98/20/2017 15:00987.18/20/2017 15:005218/20/2017 15:001458/20/2017 15:002.208/20/2017 15:0062.48/20/2017 15:0024.88/20/2017 15:0033.68/20/2017 15:0021.28/20/2017 15:000.0
8/20/2017 16:0032.08/20/2017 16:00986.58/20/2017 16:003308/20/2017 16:00978/20/2017 16:002.108/20/2017 16:0065.38/20/2017 16:0024.78/20/2017 16:0033.78/20/2017 16:0011.98/20/2017 16:000.0
8/20/2017 17:0032.28/20/2017 17:00986.08/20/2017 17:002208/20/2017 17:001508/20/2017 17:001.908/20/2017 17:0066.28/20/2017 17:0025.28/20/2017 17:0033.78/20/2017 17:003.48/20/2017 17:000.0
8/20/2017 18:0032.48/20/2017 18:00986.38/20/2017 18:001688/20/2017 18:002128/20/2017 18:001.908/20/2017 18:0067.28/20/2017 18:0025.68/20/2017 18:0033.58/20/2017 18:003.98/20/2017 18:000.0
8/20/2017 19:0030.08/20/2017 19:00986.78/20/2017 19:0078/20/2017 19:001898/20/2017 19:001.108/20/2017 19:0075.28/20/2017 19:0025.28/20/2017 19:0032.78/20/2017 19:004.08/20/2017 19:000.0
8/20/2017 20:0029.28/20/2017 20:00987.48/20/2017 20:0008/20/2017 20:001908/20/2017 20:001.008/20/2017 20:0078.68/20/2017 20:0025.28/20/2017 20:0032.28/20/2017 20:003.88/20/2017 20:000.0
8/20/2017 21:0028.78/20/2017 21:00988.28/20/2017 21:0008/20/2017 21:001818/20/2017 21:000.808/20/2017 21:0082.08/20/2017 21:0025.48/20/2017 21:0031.78/20/2017 21:004.08/20/2017 21:000.0
8/20/2017 22:0028.48/20/2017 22:00989.48/20/2017 22:0008/20/2017 22:00588/20/2017 22:001.608/20/2017 22:0084.08/20/2017 22:0025.58/20/2017 22:0031.48/20/2017 22:004.18/20/2017 22:000.0
8/20/2017 23:0027.38/20/2017 23:00990.08/20/2017 23:0008/20/2017 23:00168/20/2017 23:002.508/20/2017 23:0086.88/20/2017 23:0025.08/20/2017 23:0030.08/20/2017 23:004.48/20/2017 23:002.5
8/21/2017 0:0024.58/21/2017 0:00990.78/21/2017 0:0008/21/2017 0:00328/21/2017 0:003.908/21/2017 0:0094.48/21/2017 0:0023.68/21/2017 0:0027.48/21/2017 0:007.68/21/2017 0:0047.6
8/21/2017 1:0023.78/21/2017 1:00990.18/21/2017 1:0008/21/2017 1:00178/21/2017 1:001.008/21/2017 1:0096.68/21/2017 1:0023.28/21/2017 1:0027.18/21/2017 1:004.78/21/2017 1:000.7
8/21/2017 2:0024.48/21/2017 2:00989.68/21/2017 2:0008/21/2017 2:00438/21/2017 2:001.308/21/2017 2:0096.98/21/2017 2:0024.08/21/2017 2:0027.48/21/2017 2:004.78/21/2017 2:000.0
8/21/2017 3:0024.68/21/2017 3:00989.08/21/2017 3:0008/21/2017 3:00658/21/2017 3:002.008/21/2017 3:0097.18/21/2017 3:0024.28/21/2017 3:0027.58/21/2017 3:004.88/21/2017 3:000.1
8/21/2017 4:0024.68/21/2017 4:00988.48/21/2017 4:0008/21/2017 4:00368/21/2017 4:001.408/21/2017 4:0096.98/21/2017 4:0024.28/21/2017 4:0027.58/21/2017 4:004.98/21/2017 4:000.0
8/21/2017 5:0024.68/21/2017 5:00988.58/21/2017 5:0008/21/2017 5:001028/21/2017 5:001.308/21/2017 5:0096.88/21/2017 5:0024.18/21/2017 5:0027.58/21/2017 5:005.18/21/2017 5:000.0
8/21/2017 6:0024.48/21/2017 6:00988.58/21/2017 6:0058/21/2017 6:001548/21/2017 6:001.508/21/2017 6:0096.88/21/2017 6:0023.98/21/2017 6:0027.38/21/2017 6:005.28/21/2017 6:000.0
8/21/2017 7:0024.88/21/2017 7:00989.18/21/2017 7:00708/21/2017 7:002258/21/2017 7:000.508/21/2017 7:0096.08/21/2017 7:0024.28/21/2017 7:0027.48/21/2017 7:0021.88/21/2017 7:000.0
8/21/2017 8:0025.88/21/2017 8:00989.78/21/2017 8:001708/21/2017 8:001568/21/2017 8:001.108/21/2017 8:0091.38/21/2017 8:0024.48/21/2017 8:0027.98/21/2017 8:0022.18/21/2017 8:000.0
8/21/2017 9:0026.88/21/2017 9:00990.28/21/2017 9:002698/21/2017 9:001298/21/2017 9:001.408/21/2017 9:0087.48/21/2017 9:0024.68/21/2017 9:0028.88/21/2017 9:0022.18/21/2017 9:000.0
8/21/2017 10:0028.58/21/2017 10:00990.48/21/2017 10:004138/21/2017 10:001518/21/2017 10:001.408/21/2017 10:0080.08/21/2017 10:0024.88/21/2017 10:0029.98/21/2017 10:0022.28/21/2017 10:000.0
8/21/2017 11:0030.18/21/2017 11:00990.18/21/2017 11:006618/21/2017 11:001568/21/2017 11:001.508/21/2017 11:0072.68/21/2017 11:0024.78/21/2017 11:0031.18/21/2017 11:0022.58/21/2017 11:000.0
8/21/2017 12:0031.08/21/2017 12:00989.68/21/2017 12:005028/21/2017 12:001728/21/2017 12:001.408/21/2017 12:0069.38/21/2017 12:0024.88/21/2017 12:0031.88/21/2017 12:0022.88/21/2017 12:000.0
8/21/2017 13:0031.78/21/2017 13:00988.38/21/2017 13:005558/21/2017 13:001888/21/2017 13:000.908/21/2017 13:0069.08/21/2017 13:0025.48/21/2017 13:0032.58/21/2017 13:006.98/21/2017 13:000.0
8/21/2017 14:0031.78/21/2017 14:00987.68/21/2017 14:004158/21/2017 14:001598/21/2017 14:001.408/21/2017 14:0068.88/21/2017 14:0025.38/21/2017 14:0032.78/21/2017 14:006.98/21/2017 14:000.0
8/21/2017 15:0033.08/21/2017 15:00986.78/21/2017 15:006678/21/2017 15:001978/21/2017 15:001.408/21/2017 15:0062.48/21/2017 15:0024.98/21/2017 15:0033.28/21/2017 15:007.28/21/2017 15:000.0
8/21/2017 16:0032.28/21/2017 16:00986.08/21/2017 16:003068/21/2017 16:001808/21/2017 16:001.308/21/2017 16:0067.08/21/2017 16:0025.48/21/2017 16:0033.18/21/2017 16:007.78/21/2017 16:000.0
8/21/2017 17:0033.48/21/2017 17:00985.78/21/2017 17:003538/21/2017 17:001988/21/2017 17:001.308/21/2017 17:0062.08/21/2017 17:0025.28/21/2017 17:0033.58/21/2017 17:007.98/21/2017 17:000.0
8/21/2017 18:0031.88/21/2017 18:00985.58/21/2017 18:00988/21/2017 18:002258/21/2017 18:001.608/21/2017 18:0065.88/21/2017 18:0024.78/21/2017 18:0033.18/21/2017 18:008.58/21/2017 18:000.0
8/21/2017 19:0028.98/21/2017 19:00985.88/21/2017 19:0028/21/2017 19:002188/21/2017 19:001.408/21/2017 19:0080.08/21/2017 19:0025.28/21/2017 19:0031.68/21/2017 19:008.18/21/2017 19:000.0
8/21/2017 20:0028.18/21/2017 20:00986.88/21/2017 20:0008/21/2017 20:002428/21/2017 20:001.108/21/2017 20:0084.68/21/2017 20:0025.38/21/2017 20:0031.08/21/2017 20:008.28/21/2017 20:000.0
8/21/2017 21:0027.88/21/2017 21:00987.88/21/2017 21:0008/21/2017 21:001888/21/2017 21:000.808/21/2017 21:0087.08/21/2017 21:0025.58/21/2017 21:0030.88/21/2017 21:008.18/21/2017 21:000.0
8/21/2017 22:0027.48/21/2017 22:00988.68/21/2017 22:0008/21/2017 22:001558/21/2017 22:001.008/21/2017 22:0089.88/21/2017 22:0025.78/21/2017 22:0030.68/21/2017 22:008.38/21/2017 22:000.0
8/21/2017 23:0027.28/21/2017 23:00989.18/21/2017 23:0008/21/2017 23:001438/21/2017 23:000.608/21/2017 23:0090.98/21/2017 23:0025.78/21/2017 23:0030.48/21/2017 23:008.68/21/2017 23:000.0
8/22/2017 0:0026.98/22/2017 0:00989.28/22/2017 0:0008/22/2017 0:002068/22/2017 0:000.808/22/2017 0:0090.58/22/2017 0:0025.38/22/2017 0:0030.38/22/2017 0:008.98/22/2017 0:000.0
8/22/2017 1:0026.88/22/2017 1:00988.48/22/2017 1:0008/22/2017 1:002638/22/2017 1:000.608/22/2017 1:0090.58/22/2017 1:0025.28/22/2017 1:0030.08/22/2017 1:009.18/22/2017 1:000.0
8/22/2017 2:0026.78/22/2017 2:00987.58/22/2017 2:0008/22/2017 2:002858/22/2017 2:001.008/22/2017 2:0091.38/22/2017 2:0025.28/22/2017 2:0029.78/22/2017 2:009.18/22/2017 2:000.0
8/22/2017 3:0026.58/22/2017 3:00987.28/22/2017 3:0008/22/2017 3:003068/22/2017 3:000.908/22/2017 3:0092.68/22/2017 3:0025.38/22/2017 3:0029.58/22/2017 3:009.18/22/2017 3:000.0
8/22/2017 4:0026.58/22/2017 4:00986.98/22/2017 4:0008/22/2017 4:0068/22/2017 4:000.908/22/2017 4:0094.28/22/2017 4:0025.68/22/2017 4:0029.58/22/2017 4:009.28/22/2017 4:000.0
8/22/2017 5:0026.48/22/2017 5:00987.38/22/2017 5:0008/22/2017 5:00898/22/2017 5:000.908/22/2017 5:0095.28/22/2017 5:0025.68/22/2017 5:0029.48/22/2017 5:009.28/22/2017 5:000.0
8/22/2017 6:0026.28/22/2017 6:00987.58/22/2017 6:0028/22/2017 6:001648/22/2017 6:000.708/22/2017 6:0095.98/22/2017 6:0025.68/22/2017 6:0029.28/22/2017 6:009.28/22/2017 6:000.0
8/22/2017 7:0027.08/22/2017 7:00987.88/22/2017 7:00848/22/2017 7:002208/22/2017 7:000.708/22/2017 7:0094.78/22/2017 7:0026.28/22/2017 7:0029.58/22/2017 7:009.38/22/2017 7:000.0
8/22/2017 8:0028.48/22/2017 8:00988.18/22/2017 8:002648/22/2017 8:002328/22/2017 8:001.108/22/2017 8:0089.48/22/2017 8:0026.68/22/2017 8:0030.38/22/2017 8:009.98/22/2017 8:000.0
8/22/2017 9:0030.28/22/2017 9:00988.28/22/2017 9:005588/22/2017 9:002518/22/2017 9:001.208/22/2017 9:0080.28/22/2017 9:0026.58/22/2017 9:0031.38/22/2017 9:0010.58/22/2017 9:000.0
8/22/2017 10:0031.38/22/2017 10:00988.28/22/2017 10:007558/22/2017 10:002278/22/2017 10:001.908/22/2017 10:0072.98/22/2017 10:0025.98/22/2017 10:0032.48/22/2017 10:0010.98/22/2017 10:000.0
8/22/2017 11:0031.78/22/2017 11:00988.18/22/2017 11:007538/22/2017 11:002288/22/2017 11:001.708/22/2017 11:0069.08/22/2017 11:0025.48/22/2017 11:0032.98/22/2017 11:0010.78/22/2017 11:000.0
8/22/2017 12:0032.48/22/2017 12:00987.58/22/2017 12:006318/22/2017 12:002358/22/2017 12:001.408/22/2017 12:0065.68/22/2017 12:0025.28/22/2017 12:0033.48/22/2017 12:0010.98/22/2017 12:000.0
8/22/2017 13:0033.18/22/2017 13:00986.88/22/2017 13:009238/22/2017 13:002938/22/2017 13:001.008/22/2017 13:0064.48/22/2017 13:0025.68/22/2017 13:0034.18/22/2017 13:0011.08/22/2017 13:000.0
8/22/2017 14:0034.38/22/2017 14:00985.98/22/2017 14:008938/22/2017 14:002138/22/2017 14:001.608/22/2017 14:0060.58/22/2017 14:0025.68/22/2017 14:0034.78/22/2017 14:0011.38/22/2017 14:000.0
8/22/2017 15:0034.68/22/2017 15:00984.98/22/2017 15:007568/22/2017 15:002398/22/2017 15:002.108/22/2017 15:0058.98/22/2017 15:0025.58/22/2017 15:0035.48/22/2017 15:0012.08/22/2017 15:000.0
8/22/2017 16:0034.68/22/2017 16:00984.48/22/2017 16:005008/22/2017 16:002338/22/2017 16:001.608/22/2017 16:0058.78/22/2017 16:0025.48/22/2017 16:0035.58/22/2017 16:0012.48/22/2017 16:000.0
8/22/2017 17:0034.18/22/2017 17:00984.18/22/2017 17:001828/22/2017 17:002558/22/2017 17:000.908/22/2017 17:0060.38/22/2017 17:0025.48/22/2017 17:0035.38/22/2017 17:0013.08/22/2017 17:000.0
8/22/2017 18:0033.28/22/2017 18:00984.28/22/2017 18:00768/22/2017 18:002188/22/2017 18:000.808/22/2017 18:0065.08/22/2017 18:0025.88/22/2017 18:0035.18/22/2017 18:0013.08/22/2017 18:000.0
8/22/2017 19:0031.98/22/2017 19:00984.68/22/2017 19:0068/22/2017 19:002158/22/2017 19:000.808/22/2017 19:0072.38/22/2017 19:0026.48/22/2017 19:0034.68/22/2017 19:0013.18/22/2017 19:000.0
8/22/2017 20:0030.78/22/2017 20:00985.68/22/2017 20:0008/22/2017 20:002058/22/2017 20:000.908/22/2017 20:0077.08/22/2017 20:0026.38/22/2017 20:0033.88/22/2017 20:0013.18/22/2017 20:000.0
8/22/2017 21:0030.08/22/2017 21:00985.98/22/2017 21:0008/22/2017 21:001998/22/2017 21:001.208/22/2017 21:0078.88/22/2017 21:0026.08/22/2017 21:0033.28/22/2017 21:0013.58/22/2017 21:000.0
8/22/2017 22:0029.58/22/2017 22:00986.68/22/2017 22:0008/22/2017 22:001948/22/2017 22:001.308/22/2017 22:0083.28/22/2017 22:0026.48/22/2017 22:0032.78/22/2017 22:0013.58/22/2017 22:000.0
8/22/2017 23:0029.18/22/2017 23:00987.28/22/2017 23:0008/22/2017 23:001808/22/2017 23:001.108/22/2017 23:0084.88/22/2017 23:0026.48/22/2017 23:0032.38/22/2017 23:0013.98/22/2017 23:000.0
8/23/2017 0:0028.88/23/2017 0:00987.48/23/2017 0:0008/23/2017 0:001898/23/2017 0:001.508/23/2017 0:0084.78/23/2017 0:0026.08/23/2017 0:0032.08/23/2017 0:0014.38/23/2017 0:000.0
8/23/2017 1:0028.08/23/2017 1:00987.68/23/2017 1:0008/23/2017 1:001838/23/2017 1:001.108/23/2017 1:0087.68/23/2017 1:0025.88/23/2017 1:0031.18/23/2017 1:0030.28/23/2017 1:000.0
8/23/2017 2:0028.08/23/2017 2:00987.18/23/2017 2:0008/23/2017 2:002038/23/2017 2:001.008/23/2017 2:0088.68/23/2017 2:0026.08/23/2017 2:0031.28/23/2017 2:0014.28/23/2017 2:000.0
8/23/2017 3:0028.08/23/2017 3:00986.58/23/2017 3:0008/23/2017 3:002238/23/2017 3:001.208/23/2017 3:0086.48/23/2017 3:0025.68/23/2017 3:0031.18/23/2017 3:0014.58/23/2017 3:000.0
8/23/2017 4:0027.68/23/2017 4:00986.28/23/2017 4:0008/23/2017 4:001938/23/2017 4:000.708/23/2017 4:0087.48/23/2017 4:0025.48/23/2017 4:0030.68/23/2017 4:0014.88/23/2017 4:000.0
8/23/2017 5:0027.28/23/2017 5:00986.68/23/2017 5:0008/23/2017 5:00368/23/2017 5:001.008/23/2017 5:0091.18/23/2017 5:0025.78/23/2017 5:0030.38/23/2017 5:0015.28/23/2017 5:000.0
8/23/2017 6:0026.98/23/2017 6:00986.88/23/2017 6:0018/23/2017 6:002698/23/2017 6:000.508/23/2017 6:0091.88/23/2017 6:0025.58/23/2017 6:0030.18/23/2017 6:0015.38/23/2017 6:000.0
8/23/2017 7:0027.58/23/2017 7:00986.98/23/2017 7:00668/23/2017 7:002558/23/2017 7:000.708/23/2017 7:0090.28/23/2017 7:0025.88/23/2017 7:0030.38/23/2017 7:0012.78/23/2017 7:000.0
8/23/2017 8:0029.68/23/2017 8:00987.18/23/2017 8:002948/23/2017 8:002168/23/2017 8:001.208/23/2017 8:0081.78/23/2017 8:0026.28/23/2017 8:0031.08/23/2017 8:003.08/23/2017 8:000.0
8/23/2017 9:0031.08/23/2017 9:00987.28/23/2017 9:004778/23/2017 9:002108/23/2017 9:001.408/23/2017 9:0074.38/23/2017 9:0026.08/23/2017 9:0031.88/23/2017 9:003.58/23/2017 9:000.0
8/23/2017 10:0031.58/23/2017 10:00987.48/23/2017 10:006178/23/2017 10:002198/23/2017 10:001.308/23/2017 10:0071.98/23/2017 10:0025.98/23/2017 10:0032.38/23/2017 10:003.78/23/2017 10:000.0
8/23/2017 11:0032.68/23/2017 11:00987.08/23/2017 11:008628/23/2017 11:002408/23/2017 11:001.208/23/2017 11:0067.38/23/2017 11:0025.88/23/2017 11:0033.08/23/2017 11:003.98/23/2017 11:000.0
8/23/2017 12:0033.38/23/2017 12:00986.38/23/2017 12:008508/23/2017 12:002298/23/2017 12:001.708/23/2017 12:0064.68/23/2017 12:0025.88/23/2017 12:0034.18/23/2017 12:003.98/23/2017 12:000.0
8/23/2017 13:0033.68/23/2017 13:00985.68/23/2017 13:007568/23/2017 13:002248/23/2017 13:002.008/23/2017 13:0063.68/23/2017 13:0025.88/23/2017 13:0034.68/23/2017 13:004.28/23/2017 13:000.0
8/23/2017 14:0033.88/23/2017 14:00984.78/23/2017 14:005778/23/2017 14:002118/23/2017 14:002.008/23/2017 14:0062.78/23/2017 14:0025.88/23/2017 14:0034.78/23/2017 14:004.68/23/2017 14:000.0
8/23/2017 15:0033.78/23/2017 15:00984.28/23/2017 15:004588/23/2017 15:002218/23/2017 15:002.008/23/2017 15:0062.08/23/2017 15:0025.58/23/2017 15:0034.88/23/2017 15:005.28/23/2017 15:000.0
8/23/2017 16:0033.78/23/2017 16:00983.48/23/2017 16:003548/23/2017 16:002098/23/2017 16:001.708/23/2017 16:0062.28/23/2017 16:0025.58/23/2017 16:0035.08/23/2017 16:005.78/23/2017 16:000.0
8/23/2017 17:0033.08/23/2017 17:00982.58/23/2017 17:002338/23/2017 17:002028/23/2017 17:002.008/23/2017 17:0065.18/23/2017 17:0025.68/23/2017 17:0034.58/23/2017 17:006.18/23/2017 17:000.0
8/23/2017 18:0031.38/23/2017 18:00982.88/23/2017 18:00538/23/2017 18:001698/23/2017 18:001.108/23/2017 18:0066.68/23/2017 18:0024.48/23/2017 18:0033.28/23/2017 18:006.38/23/2017 18:000.0
8/23/2017 19:0030.28/23/2017 19:00983.28/23/2017 19:0038/23/2017 19:001698/23/2017 19:000.908/23/2017 19:0073.18/23/2017 19:0024.98/23/2017 19:0033.08/23/2017 19:006.28/23/2017 19:000.0
8/23/2017 20:0029.78/23/2017 20:00984.08/23/2017 20:0008/23/2017 20:002248/23/2017 20:000.308/23/2017 20:0080.48/23/2017 20:0026.08/23/2017 20:0032.88/23/2017 20:006.48/23/2017 20:000.0
8/23/2017 21:0029.38/23/2017 21:00985.18/23/2017 21:0008/23/2017 21:001628/23/2017 21:000.908/23/2017 21:0085.08/23/2017 21:0026.68/23/2017 21:0032.78/23/2017 21:006.68/23/2017 21:000.0
8/23/2017 22:0029.28/23/2017 22:00985.78/23/2017 22:0008/23/2017 22:001808/23/2017 22:001.708/23/2017 22:0084.38/23/2017 22:0026.48/23/2017 22:0032.58/23/2017 22:006.88/23/2017 22:000.0
8/23/2017 23:0029.08/23/2017 23:00986.28/23/2017 23:0008/23/2017 23:001788/23/2017 23:001.908/23/2017 23:0084.78/23/2017 23:0026.28/23/2017 23:0032.18/23/2017 23:007.28/23/2017 23:000.0
8/24/2017 0:0028.68/24/2017 0:00986.08/24/2017 0:0008/24/2017 0:001798/24/2017 0:002.108/24/2017 0:0084.38/24/2017 0:0025.88/24/2017 0:0031.68/24/2017 0:007.58/24/2017 0:000.0
8/24/2017 1:0028.38/24/2017 1:00985.88/24/2017 1:0008/24/2017 1:001908/24/2017 1:002.008/24/2017 1:0084.78/24/2017 1:0025.68/24/2017 1:0031.38/24/2017 1:007.78/24/2017 1:000.0
8/24/2017 2:0026.68/24/2017 2:00985.68/24/2017 2:0008/24/2017 2:003398/24/2017 2:002.008/24/2017 2:0086.18/24/2017 2:0024.28/24/2017 2:0029.18/24/2017 2:008.08/24/2017 2:000.0
8/24/2017 3:0025.38/24/2017 3:00985.68/24/2017 3:0008/24/2017 3:003388/24/2017 3:002.408/24/2017 3:0089.28/24/2017 3:0023.58/24/2017 3:0028.08/24/2017 3:008.28/24/2017 3:000.0
8/24/2017 4:0024.98/24/2017 4:00986.08/24/2017 4:0008/24/2017 4:003458/24/2017 4:002.108/24/2017 4:0090.98/24/2017 4:0023.48/24/2017 4:0027.58/24/2017 4:008.28/24/2017 4:001.7
8/24/2017 5:0024.48/24/2017 5:00986.68/24/2017 5:0008/24/2017 5:0018/24/2017 5:001.508/24/2017 5:0092.78/24/2017 5:0023.28/24/2017 5:0027.18/24/2017 5:007.78/24/2017 5:000.3
8/24/2017 6:0024.58/24/2017 6:00987.18/24/2017 6:0008/24/2017 6:00698/24/2017 6:001.808/24/2017 6:0093.48/24/2017 6:0023.48/24/2017 6:0027.38/24/2017 6:007.48/24/2017 6:000.7
8/24/2017 7:0024.48/24/2017 7:00987.48/24/2017 7:0068/24/2017 7:00508/24/2017 7:002.808/24/2017 7:0094.18/24/2017 7:0023.58/24/2017 7:0027.18/24/2017 7:006.88/24/2017 7:000.4
8/24/2017 8:0024.08/24/2017 8:00988.28/24/2017 8:00148/24/2017 8:003548/24/2017 8:002.108/24/2017 8:0093.78/24/2017 8:0023.08/24/2017 8:0026.78/24/2017 8:007.28/24/2017 8:006.8
8/24/2017 9:0023.68/24/2017 9:00988.68/24/2017 9:001058/24/2017 9:00528/24/2017 9:001.708/24/2017 9:0095.08/24/2017 9:0022.88/24/2017 9:0026.38/24/2017 9:004.58/24/2017 9:002.9
8/24/2017 10:0025.08/24/2017 10:00988.48/24/2017 10:003248/24/2017 10:001258/24/2017 10:001.608/24/2017 10:0092.28/24/2017 10:0023.78/24/2017 10:0027.18/24/2017 10:004.48/24/2017 10:000.0
8/24/2017 11:0026.78/24/2017 11:00988.08/24/2017 11:005308/24/2017 11:001258/24/2017 11:002.108/24/2017 11:0088.58/24/2017 11:0024.78/24/2017 11:0028.48/24/2017 11:004.88/24/2017 11:000.0
8/24/2017 12:0028.98/24/2017 12:00987.38/24/2017 12:006878/24/2017 12:001438/24/2017 12:001.908/24/2017 12:0082.88/24/2017 12:0025.88/24/2017 12:0030.38/24/2017 12:005.18/24/2017 12:000.0
8/24/2017 13:0030.68/24/2017 13:00986.68/24/2017 13:004818/24/2017 13:002068/24/2017 13:002.008/24/2017 13:0075.68/24/2017 13:0025.98/24/2017 13:0031.98/24/2017 13:005.48/24/2017 13:000.0
8/24/2017 14:0030.28/24/2017 14:00986.08/24/2017 14:003158/24/2017 14:001708/24/2017 14:002.408/24/2017 14:0075.38/24/2017 14:0025.48/24/2017 14:0032.08/24/2017 14:005.38/24/2017 14:000.0
8/24/2017 15:0030.38/24/2017 15:00985.68/24/2017 15:003138/24/2017 15:001848/24/2017 15:001.808/24/2017 15:0077.28/24/2017 15:0025.98/24/2017 15:0032.08/24/2017 15:005.28/24/2017 15:000.2
8/24/2017 16:0030.78/24/2017 16:00985.08/24/2017 16:002238/24/2017 16:001668/24/2017 16:001.908/24/2017 16:0076.48/24/2017 16:0026.18/24/2017 16:0032.58/24/2017 16:005.28/24/2017 16:000.0
8/24/2017 17:0029.88/24/2017 17:00984.78/24/2017 17:001538/24/2017 17:001558/24/2017 17:003.008/24/2017 17:0078.88/24/2017 17:0025.88/24/2017 17:0032.18/24/2017 17:005.58/24/2017 17:000.0
8/24/2017 18:0024.58/24/2017 18:00986.08/24/2017 18:0048/24/2017 18:003018/24/2017 18:003.608/24/2017 18:0088.98/24/2017 18:0022.68/24/2017 18:0026.98/24/2017 18:006.98/24/2017 18:0031.1
8/24/2017 19:0023.88/24/2017 19:00986.68/24/2017 19:0018/24/2017 19:001328/24/2017 19:001.408/24/2017 19:0094.58/24/2017 19:0022.98/24/2017 19:0026.98/24/2017 19:007.28/24/2017 19:001.7
8/24/2017 20:0024.68/24/2017 20:00987.28/24/2017 20:0008/24/2017 20:001018/24/2017 20:002.008/24/2017 20:0095.68/24/2017 20:0023.98/24/2017 20:0027.68/24/2017 20:009.28/24/2017 20:006.0
8/24/2017 21:0025.08/24/2017 21:00987.88/24/2017 21:0008/24/2017 21:00928/24/2017 21:002.308/24/2017 21:0095.48/24/2017 21:0024.38/24/2017 21:0028.08/24/2017 21:009.58/24/2017 21:000.0
8/24/2017 22:0024.88/24/2017 22:00988.48/24/2017 22:0018/24/2017 22:00898/24/2017 22:002.108/24/2017 22:0094.68/24/2017 22:0024.08/24/2017 22:0027.78/24/2017 22:009.88/24/2017 22:000.0
8/24/2017 23:0024.88/24/2017 23:00989.28/24/2017 23:0008/24/2017 23:003588/24/2017 23:002.208/24/2017 23:0095.08/24/2017 23:0024.08/24/2017 23:0027.78/24/2017 23:009.38/24/2017 23:0027.5
8/25/2017 0:0024.28/25/2017 0:00989.38/25/2017 0:0008/25/2017 0:00118/25/2017 0:002.108/25/2017 0:0096.78/25/2017 0:0023.78/25/2017 0:0027.28/25/2017 0:006.28/25/2017 0:0016.5
8/25/2017 1:0024.38/25/2017 1:00988.28/25/2017 1:0008/25/2017 1:00898/25/2017 1:001.708/25/2017 1:0097.28/25/2017 1:0023.98/25/2017 1:0027.38/25/2017 1:005.18/25/2017 1:000.2
8/25/2017 2:0024.78/25/2017 2:00987.88/25/2017 2:0008/25/2017 2:00628/25/2017 2:001.208/25/2017 2:0097.38/25/2017 2:0024.38/25/2017 2:0027.78/25/2017 2:005.18/25/2017 2:000.0
8/25/2017 3:0024.28/25/2017 3:00987.88/25/2017 3:0008/25/2017 3:00498/25/2017 3:001.908/25/2017 3:0097.48/25/2017 3:0023.88/25/2017 3:0027.18/25/2017 3:005.28/25/2017 3:000.0
8/25/2017 4:0023.68/25/2017 4:00987.98/25/2017 4:0008/25/2017 4:00648/25/2017 4:002.108/25/2017 4:0097.08/25/2017 4:0023.28/25/2017 4:0026.58/25/2017 4:005.48/25/2017 4:000.0
8/25/2017 5:0023.98/25/2017 5:00987.88/25/2017 5:0008/25/2017 5:00768/25/2017 5:001.808/25/2017 5:0097.08/25/2017 5:0023.58/25/2017 5:0026.88/25/2017 5:005.48/25/2017 5:000.0
8/25/2017 6:0024.58/25/2017 6:00988.28/25/2017 6:0028/25/2017 6:00938/25/2017 6:002.208/25/2017 6:0097.08/25/2017 6:0024.18/25/2017 6:0027.48/25/2017 6:005.38/25/2017 6:000.0
8/25/2017 7:0025.18/25/2017 7:00988.68/25/2017 7:00488/25/2017 7:001128/25/2017 7:002.108/25/2017 7:0096.98/25/2017 7:0024.78/25/2017 7:0028.18/25/2017 7:005.38/25/2017 7:000.0
8/25/2017 8:0026.58/25/2017 8:00989.18/25/2017 8:002398/25/2017 8:001318/25/2017 8:002.908/25/2017 8:0094.18/25/2017 8:0025.68/25/2017 8:0029.18/25/2017 8:005.58/25/2017 8:000.0
8/25/2017 9:0028.08/25/2017 9:00989.68/25/2017 9:005068/25/2017 9:001498/25/2017 9:003.308/25/2017 9:0087.88/25/2017 9:0025.98/25/2017 9:0029.98/25/2017 9:005.78/25/2017 9:000.0
8/25/2017 10:0030.08/25/2017 10:00989.78/25/2017 10:007008/25/2017 10:001758/25/2017 10:002.208/25/2017 10:0077.48/25/2017 10:0025.78/25/2017 10:0030.98/25/2017 10:006.18/25/2017 10:000.0
8/25/2017 11:0030.88/25/2017 11:00989.78/25/2017 11:008378/25/2017 11:001988/25/2017 11:002.008/25/2017 11:0072.18/25/2017 11:0025.38/25/2017 11:0031.78/25/2017 11:006.28/25/2017 11:000.0
8/25/2017 12:0031.58/25/2017 12:00989.18/25/2017 12:008858/25/2017 12:001968/25/2017 12:001.908/25/2017 12:0068.48/25/2017 12:0025.18/25/2017 12:0032.48/25/2017 12:006.28/25/2017 12:000.0
8/25/2017 13:0032.18/25/2017 13:00988.38/25/2017 13:007538/25/2017 13:001508/25/2017 13:001.508/25/2017 13:0065.98/25/2017 13:0025.08/25/2017 13:0032.78/25/2017 13:006.58/25/2017 13:000.0
8/25/2017 14:0032.88/25/2017 14:00987.18/25/2017 14:007918/25/2017 14:001348/25/2017 14:001.408/25/2017 14:0063.98/25/2017 14:0025.18/25/2017 14:0033.18/25/2017 14:006.78/25/2017 14:000.0
8/25/2017 15:0033.38/25/2017 15:00986.48/25/2017 15:005848/25/2017 15:00278/25/2017 15:000.808/25/2017 15:0062.58/25/2017 15:0025.28/25/2017 15:0033.58/25/2017 15:007.18/25/2017 15:000.0
8/25/2017 16:0032.98/25/2017 16:00985.78/25/2017 16:002868/25/2017 16:002608/25/2017 16:000.608/25/2017 16:0061.98/25/2017 16:0024.78/25/2017 16:0033.68/25/2017 16:007.58/25/2017 16:000.0
8/25/2017 17:0031.78/25/2017 17:00985.38/25/2017 17:001868/25/2017 17:003048/25/2017 17:001.208/25/2017 17:0068.18/25/2017 17:0025.28/25/2017 17:0033.28/25/2017 17:007.68/25/2017 17:000.0
8/25/2017 18:0030.78/25/2017 18:00986.08/25/2017 18:00688/25/2017 18:003308/25/2017 18:001.008/25/2017 18:0073.48/25/2017 18:0025.58/25/2017 18:0033.08/25/2017 18:007.98/25/2017 18:000.0
8/25/2017 19:0029.48/25/2017 19:00986.88/25/2017 19:0038/25/2017 19:003278/25/2017 19:001.108/25/2017 19:0079.68/25/2017 19:0025.68/25/2017 19:0032.28/25/2017 19:007.98/25/2017 19:000.0
8/25/2017 20:0027.98/25/2017 20:00987.78/25/2017 20:0008/25/2017 20:002908/25/2017 20:002.708/25/2017 20:0081.78/25/2017 20:0024.68/25/2017 20:0030.58/25/2017 20:008.28/25/2017 20:000.0
8/25/2017 21:0027.08/25/2017 21:00988.38/25/2017 21:0008/25/2017 21:002068/25/2017 21:001.008/25/2017 21:0084.98/25/2017 21:0024.38/25/2017 21:0029.78/25/2017 21:008.48/25/2017 21:000.0
8/25/2017 22:0026.68/25/2017 22:00988.88/25/2017 22:0008/25/2017 22:001478/25/2017 22:001.308/25/2017 22:0088.78/25/2017 22:0024.78/25/2017 22:0029.48/25/2017 22:008.88/25/2017 22:000.0
8/25/2017 23:0026.48/25/2017 23:00989.18/25/2017 23:0008/25/2017 23:001508/25/2017 23:000.908/25/2017 23:0091.18/25/2017 23:0024.98/25/2017 23:0029.38/25/2017 23:009.18/25/2017 23:000.0
8/26/2017 0:0026.28/26/2017 0:00989.18/26/2017 0:0008/26/2017 0:002228/26/2017 0:001.308/26/2017 0:0092.38/26/2017 0:0024.98/26/2017 0:0029.08/26/2017 0:009.18/26/2017 0:000.0
10/8/2017 19:0027.710/8/2017 19:00989.610/8/2017 19:00010/8/2017 19:005610/8/2017 19:001.4010/8/2017 19:0081.810/8/2017 19:0024.410/8/2017 19:0030.610/8/2017 19:0013.410/8/2017 19:000.0
10/8/2017 20:0027.210/8/2017 20:00990.410/8/2017 20:00010/8/2017 20:005710/8/2017 20:001.5010/8/2017 20:0083.510/8/2017 20:0024.210/8/2017 20:0030.210/8/2017 20:0013.810/8/2017 20:000.0
10/8/2017 21:0026.510/8/2017 21:00991.310/8/2017 21:00010/8/2017 21:006710/8/2017 21:001.6010/8/2017 21:0086.410/8/2017 21:0024.110/8/2017 21:0029.410/8/2017 21:0013.610/8/2017 21:000.0
10/8/2017 22:0026.310/8/2017 22:00991.810/8/2017 22:00010/8/2017 22:005610/8/2017 22:001.5010/8/2017 22:0086.210/8/2017 22:0023.910/8/2017 22:0029.210/8/2017 22:0013.810/8/2017 22:000.0
10/8/2017 23:0026.010/8/2017 23:00992.210/8/2017 23:00010/8/2017 23:005310/8/2017 23:001.3010/8/2017 23:0087.410/8/2017 23:0023.810/8/2017 23:0028.910/8/2017 23:0014.010/8/2017 23:000.0
10/9/2017 0:0025.710/9/2017 0:00992.310/9/2017 0:00010/9/2017 0:004010/9/2017 0:001.3010/9/2017 0:0088.210/9/2017 0:0023.710/9/2017 0:0028.710/9/2017 0:0014.110/9/2017 0:000.0
10/9/2017 1:0025.510/9/2017 1:00992.010/9/2017 1:00010/9/2017 1:007410/9/2017 1:000.6010/9/2017 1:0088.810/9/2017 1:0023.610/9/2017 1:0028.510/9/2017 1:0014.310/9/2017 1:000.0
10/9/2017 2:0025.010/9/2017 2:00991.410/9/2017 2:00010/9/2017 2:009610/9/2017 2:000.8010/9/2017 2:0091.910/9/2017 2:0023.710/9/2017 2:0028.110/9/2017 2:0014.410/9/2017 2:000.0
10/9/2017 3:0024.810/9/2017 3:00990.510/9/2017 3:00010/9/2017 3:0032410/9/2017 3:000.5010/9/2017 3:0092.510/9/2017 3:0023.610/9/2017 3:0028.010/9/2017 3:0014.310/9/2017 3:000.0
10/9/2017 4:0024.810/9/2017 4:00990.110/9/2017 4:00010/9/2017 4:0033810/9/2017 4:000.6010/9/2017 4:0093.110/9/2017 4:0023.710/9/2017 4:0027.910/9/2017 4:0014.210/9/2017 4:000.0
10/9/2017 5:0024.610/9/2017 5:00990.310/9/2017 5:00010/9/2017 5:0015810/9/2017 5:000.6010/9/2017 5:0094.410/9/2017 5:0023.710/9/2017 5:0027.710/9/2017 5:0014.210/9/2017 5:000.0
10/9/2017 6:0024.610/9/2017 6:00990.510/9/2017 6:00010/9/2017 6:005110/9/2017 6:000.6010/9/2017 6:0095.310/9/2017 6:0023.910/9/2017 6:0027.510/9/2017 6:0014.310/9/2017 6:000.0
10/9/2017 7:0025.010/9/2017 7:00991.010/9/2017 7:004210/9/2017 7:0033710/9/2017 7:000.7010/9/2017 7:0095.510/9/2017 7:0024.310/9/2017 7:0028.110/9/2017 7:0010.810/9/2017 7:000.0
10/9/2017 8:0026.210/9/2017 8:00991.810/9/2017 8:0010510/9/2017 8:0030510/9/2017 8:001.3010/9/2017 8:0093.410/9/2017 8:0025.110/9/2017 8:0028.810/9/2017 8:003.210/9/2017 8:000.0
10/9/2017 9:0026.610/9/2017 9:00992.210/9/2017 9:0013710/9/2017 9:0031910/9/2017 9:001.6010/9/2017 9:0091.410/9/2017 9:0025.210/9/2017 9:0029.310/9/2017 9:003.310/9/2017 9:000.0
10/9/2017 10:0026.810/9/2017 10:00992.410/9/2017 10:0025110/9/2017 10:0035310/9/2017 10:002.3010/9/2017 10:0088.610/9/2017 10:0024.810/9/2017 10:0029.210/9/2017 10:002.910/9/2017 10:000.4
10/9/2017 11:0027.110/9/2017 11:00991.910/9/2017 11:0030410/9/2017 11:00710/9/2017 11:002.1010/9/2017 11:0084.910/9/2017 11:0024.410/9/2017 11:0029.310/9/2017 11:002.910/9/2017 11:000.7
10/9/2017 12:0027.910/9/2017 12:00990.810/9/2017 12:0047310/9/2017 12:0033110/9/2017 12:001.7010/9/2017 12:0081.710/9/2017 12:0024.610/9/2017 12:0029.710/9/2017 12:002.810/9/2017 12:000.0
10/9/2017 13:0028.810/9/2017 13:00989.610/9/2017 13:0042910/9/2017 13:0034310/9/2017 13:001.4010/9/2017 13:0077.310/9/2017 13:0024.510/9/2017 13:0030.410/9/2017 13:003.210/9/2017 13:000.0
10/9/2017 14:0029.110/9/2017 14:00988.210/9/2017 14:0026510/9/2017 14:0035210/9/2017 14:001.5010/9/2017 14:0076.010/9/2017 14:0024.510/9/2017 14:0030.910/9/2017 14:003.310/9/2017 14:000.0
10/9/2017 15:0029.210/9/2017 15:00987.010/9/2017 15:0027410/9/2017 15:0034610/9/2017 15:001.3010/9/2017 15:0075.810/9/2017 15:0024.610/9/2017 15:0031.010/9/2017 15:003.110/9/2017 15:000.0
10/9/2017 16:0028.910/9/2017 16:00986.610/9/2017 16:0017110/9/2017 16:0030910/9/2017 16:001.2010/9/2017 16:0079.010/9/2017 16:0025.010/9/2017 16:0031.010/9/2017 16:003.010/9/2017 16:000.0
10/9/2017 17:0028.910/9/2017 17:00986.510/9/2017 17:008010/9/2017 17:0027210/9/2017 17:000.9010/9/2017 17:0077.810/9/2017 17:0024.710/9/2017 17:0031.110/9/2017 17:003.110/9/2017 17:000.0
10/9/2017 18:0028.010/9/2017 18:00986.210/9/2017 18:00610/9/2017 18:0026610/9/2017 18:000.9010/9/2017 18:0082.710/9/2017 18:0024.910/9/2017 18:0030.810/9/2017 18:003.210/9/2017 18:000.0
10/9/2017 19:0027.610/9/2017 19:00986.510/9/2017 19:00010/9/2017 19:0029010/9/2017 19:001.2010/9/2017 19:0085.010/9/2017 19:0024.910/9/2017 19:0030.610/9/2017 19:003.210/9/2017 19:000.0
10/9/2017 20:0027.010/9/2017 20:00987.410/9/2017 20:00010/9/2017 20:004310/9/2017 20:000.9010/9/2017 20:0088.410/9/2017 20:0025.010/9/2017 20:0030.010/9/2017 20:003.410/9/2017 20:000.1
10/9/2017 21:0026.510/9/2017 21:00987.910/9/2017 21:00010/9/2017 21:009710/9/2017 21:001.1010/9/2017 21:0092.110/9/2017 21:0025.210/9/2017 21:0029.410/9/2017 21:003.610/9/2017 21:000.0
10/9/2017 22:0026.210/9/2017 22:00987.910/9/2017 22:00010/9/2017 22:007610/9/2017 22:000.8010/9/2017 22:0094.110/9/2017 22:0025.310/9/2017 22:0029.210/9/2017 22:003.110/9/2017 22:000.0
10/9/2017 23:0026.110/9/2017 23:00987.410/9/2017 23:00010/9/2017 23:0035310/9/2017 23:000.5010/9/2017 23:0094.910/9/2017 23:0025.310/9/2017 23:0029.110/9/2017 23:003.010/9/2017 23:000.0
10/17/2017 23:0022.510/17/2017 23:00994.610/17/2017 23:00010/17/2017 23:006510/17/2017 23:002.1010/17/2017 23:0083.310/17/2017 23:0019.610/17/2017 23:0024.710/17/2017 23:007.710/17/2017 23:000.0
10/18/2017 0:0022.310/18/2017 0:00994.610/18/2017 0:00010/18/2017 0:007610/18/2017 0:001.6010/18/2017 0:0084.810/18/2017 0:0019.710/18/2017 0:0024.510/18/2017 0:007.710/18/2017 0:000.0
10/18/2017 1:0022.110/18/2017 1:00994.310/18/2017 1:00010/18/2017 1:008110/18/2017 1:001.3010/18/2017 1:0086.910/18/2017 1:0019.910/18/2017 1:0024.310/18/2017 1:007.810/18/2017 1:000.0
10/18/2017 2:0022.010/18/2017 2:00993.810/18/2017 2:00010/18/2017 2:008110/18/2017 2:001.3010/18/2017 2:0087.910/18/2017 2:0020.010/18/2017 2:0024.310/18/2017 2:008.010/18/2017 2:000.0
10/18/2017 3:0022.010/18/2017 3:00993.410/18/2017 3:00010/18/2017 3:007010/18/2017 3:001.0010/18/2017 3:0088.610/18/2017 3:0020.110/18/2017 3:0024.310/18/2017 3:008.110/18/2017 3:000.0
10/18/2017 4:0021.910/18/2017 4:00993.210/18/2017 4:00010/18/2017 4:009410/18/2017 4:000.9010/18/2017 4:0089.710/18/2017 4:0020.210/18/2017 4:0024.210/18/2017 4:008.210/18/2017 4:000.0
10/18/2017 5:0021.610/18/2017 5:00993.510/18/2017 5:00010/18/2017 5:0010210/18/2017 5:001.2010/18/2017 5:0091.210/18/2017 5:0020.210/18/2017 5:0024.010/18/2017 5:008.510/18/2017 5:000.0
10/18/2017 6:0021.610/18/2017 6:00993.810/18/2017 6:00010/18/2017 6:004810/18/2017 6:000.9010/18/2017 6:0091.110/18/2017 6:0020.210/18/2017 6:0024.010/18/2017 6:008.510/18/2017 6:000.0
10/18/2017 7:0022.610/18/2017 7:00994.410/18/2017 7:009410/18/2017 7:0031510/18/2017 7:000.7010/18/2017 7:0087.510/18/2017 7:0020.510/18/2017 7:0024.610/18/2017 7:008.310/18/2017 7:000.0
10/18/2017 8:0025.410/18/2017 8:00994.710/18/2017 8:0029210/18/2017 8:00410/18/2017 8:001.1010/18/2017 8:0075.210/18/2017 8:0020.810/18/2017 8:0026.110/18/2017 8:009.210/18/2017 8:000.0
10/18/2017 9:0025.510/18/2017 9:00995.410/18/2017 9:0030610/18/2017 9:001710/18/2017 9:001.4010/18/2017 9:0072.810/18/2017 9:0020.310/18/2017 9:0026.710/18/2017 9:009.510/18/2017 9:000.0
10/18/2017 10:0026.710/18/2017 10:00995.610/18/2017 10:0066610/18/2017 10:001210/18/2017 10:001.9010/18/2017 10:0066.310/18/2017 10:0020.010/18/2017 10:0027.510/18/2017 10:009.310/18/2017 10:000.0
10/18/2017 11:0028.010/18/2017 11:00995.210/18/2017 11:0088210/18/2017 11:0031010/18/2017 11:001.6010/18/2017 11:0062.810/18/2017 11:0020.310/18/2017 11:0028.410/18/2017 11:009.610/18/2017 11:000.0
10/18/2017 12:0028.510/18/2017 12:00994.610/18/2017 12:0091810/18/2017 12:0030110/18/2017 12:001.7010/18/2017 12:0063.210/18/2017 12:0020.910/18/2017 12:0029.310/18/2017 12:009.510/18/2017 12:000.0
10/18/2017 13:0029.310/18/2017 13:00993.510/18/2017 13:0088010/18/2017 13:0028610/18/2017 13:002.0010/18/2017 13:0061.410/18/2017 13:0021.210/18/2017 13:0029.910/18/2017 13:0010.010/18/2017 13:000.0
10/18/2017 14:0029.810/18/2017 14:00992.410/18/2017 14:0079110/18/2017 14:0028310/18/2017 14:002.4010/18/2017 14:0060.310/18/2017 14:0021.410/18/2017 14:0030.610/18/2017 14:0010.110/18/2017 14:000.0
10/18/2017 15:0031.110/18/2017 15:00991.710/18/2017 15:0063810/18/2017 15:0027410/18/2017 15:001.7010/18/2017 15:0056.510/18/2017 15:0021.510/18/2017 15:0031.310/18/2017 15:0010.710/18/2017 15:000.0
10/18/2017 16:0031.110/18/2017 16:00991.510/18/2017 16:0034810/18/2017 16:0029110/18/2017 16:001.2010/18/2017 16:0057.110/18/2017 16:0021.710/18/2017 16:0031.610/18/2017 16:0011.310/18/2017 16:000.0
10/18/2017 17:0032.110/18/2017 17:00991.310/18/2017 17:0019310/18/2017 17:0024810/18/2017 17:001.0010/18/2017 17:0054.010/18/2017 17:0021.710/18/2017 17:0031.610/18/2017 17:0011.710/18/2017 17:000.0
10/18/2017 18:0029.510/18/2017 18:00991.710/18/2017 18:002610/18/2017 18:0010310/18/2017 18:001.7010/18/2017 18:0064.110/18/2017 18:0022.110/18/2017 18:0030.310/18/2017 18:0012.010/18/2017 18:000.0
10/18/2017 19:0026.210/18/2017 19:00992.810/18/2017 19:00010/18/2017 19:007310/18/2017 19:001.6010/18/2017 19:0079.210/18/2017 19:0022.410/18/2017 19:0028.710/18/2017 19:0011.810/18/2017 19:000.0
10/18/2017 20:0025.110/18/2017 20:00993.510/18/2017 20:00010/18/2017 20:008810/18/2017 20:001.3010/18/2017 20:0082.710/18/2017 20:0022.010/18/2017 20:0027.610/18/2017 20:0011.910/18/2017 20:000.0
10/18/2017 21:0024.510/18/2017 21:00994.410/18/2017 21:00010/18/2017 21:0011110/18/2017 21:001.1010/18/2017 21:0085.210/18/2017 21:0021.910/18/2017 21:0027.010/18/2017 21:0012.010/18/2017 21:000.0
10/18/2017 22:0024.110/18/2017 22:00994.910/18/2017 22:00010/18/2017 22:009910/18/2017 22:001.6010/18/2017 22:0086.810/18/2017 22:0021.810/18/2017 22:0026.510/18/2017 22:0012.410/18/2017 22:000.0
10/18/2017 23:0023.810/18/2017 23:00995.110/18/2017 23:00010/18/2017 23:009510/18/2017 23:001.5010/18/2017 23:0086.310/18/2017 23:0021.410/18/2017 23:0026.310/18/2017 23:0012.810/18/2017 23:000.0
10/19/2017 0:0023.410/19/2017 0:00995.110/19/2017 0:00010/19/2017 0:0012610/19/2017 0:001.1010/19/2017 0:0086.410/19/2017 0:0021.110/19/2017 0:0025.910/19/2017 0:0012.510/19/2017 0:000.0
10/19/2017 1:0023.210/19/2017 1:00994.610/19/2017 1:00010/19/2017 1:0016110/19/2017 1:000.9010/19/2017 1:0087.210/19/2017 1:0021.010/19/2017 1:0025.610/19/2017 1:0012.810/19/2017 1:000.0
10/19/2017 2:0022.610/19/2017 2:00994.210/19/2017 2:00010/19/2017 2:0013210/19/2017 2:000.7010/19/2017 2:0089.410/19/2017 2:0020.810/19/2017 2:0025.210/19/2017 2:0013.010/19/2017 2:000.0
10/19/2017 3:0022.410/19/2017 3:00993.610/19/2017 3:00010/19/2017 3:0035110/19/2017 3:000.7010/19/2017 3:0090.410/19/2017 3:0020.810/19/2017 3:0024.910/19/2017 3:0013.310/19/2017 3:000.0
10/19/2017 4:0022.410/19/2017 4:00993.510/19/2017 4:00010/19/2017 4:00810/19/2017 4:000.4010/19/2017 4:0091.410/19/2017 4:0021.010/19/2017 4:0024.810/19/2017 4:0013.310/19/2017 4:000.0
10/19/2017 5:0022.510/19/2017 5:00993.710/19/2017 5:00010/19/2017 5:0027510/19/2017 5:000.4010/19/2017 5:0091.210/19/2017 5:0021.110/19/2017 5:0024.910/19/2017 5:0013.510/19/2017 5:000.0
10/19/2017 6:0022.610/19/2017 6:00994.210/19/2017 6:00010/19/2017 6:001310/19/2017 6:000.5010/19/2017 6:0091.410/19/2017 6:0021.210/19/2017 6:0025.110/19/2017 6:0013.710/19/2017 6:000.0
10/19/2017 7:0023.010/19/2017 7:00994.810/19/2017 7:004310/19/2017 7:006610/19/2017 7:000.6010/19/2017 7:0091.510/19/2017 7:0021.610/19/2017 7:0025.310/19/2017 7:0013.810/19/2017 7:000.0
10/19/2017 8:0024.810/19/2017 8:00994.910/19/2017 8:0029410/19/2017 8:004710/19/2017 8:001.1010/19/2017 8:0085.510/19/2017 8:0022.310/19/2017 8:0026.210/19/2017 8:0013.710/19/2017 8:000.0
10/19/2017 9:0027.310/19/2017 9:00995.010/19/2017 9:0053710/19/2017 9:004410/19/2017 9:001.8010/19/2017 9:0073.910/19/2017 9:0022.310/19/2017 9:0028.310/19/2017 9:0014.610/19/2017 9:000.0
10/19/2017 10:0028.210/19/2017 10:00995.310/19/2017 10:0062510/19/2017 10:003010/19/2017 10:003.0010/19/2017 10:0069.010/19/2017 10:0022.010/19/2017 10:0029.610/19/2017 10:008.310/19/2017 10:000.0
10/19/2017 11:0029.010/19/2017 11:00995.010/19/2017 11:0063610/19/2017 11:004010/19/2017 11:003.9010/19/2017 11:0064.610/19/2017 11:0021.710/19/2017 11:0030.310/19/2017 11:008.010/19/2017 11:000.0
10/19/2017 12:0029.710/19/2017 12:00994.410/19/2017 12:0083910/19/2017 12:005110/19/2017 12:003.1010/19/2017 12:0062.710/19/2017 12:0021.910/19/2017 12:0030.810/19/2017 12:008.210/19/2017 12:000.0
10/19/2017 13:0030.110/19/2017 13:00993.610/19/2017 13:0082810/19/2017 13:006310/19/2017 13:003.0010/19/2017 13:0062.210/19/2017 13:0022.110/19/2017 13:0031.210/19/2017 13:008.610/19/2017 13:000.0
10/19/2017 14:0030.110/19/2017 14:00993.010/19/2017 14:0052010/19/2017 14:005110/19/2017 14:003.3010/19/2017 14:0060.810/19/2017 14:0021.810/19/2017 14:0031.410/19/2017 14:009.010/19/2017 14:000.0
10/19/2017 15:0030.410/19/2017 15:00992.210/19/2017 15:0057510/19/2017 15:008910/19/2017 15:003.7010/19/2017 15:0062.910/19/2017 15:0022.610/19/2017 15:0031.610/19/2017 15:009.110/19/2017 15:000.0
10/19/2017 16:0030.010/19/2017 16:00991.810/19/2017 16:0035910/19/2017 16:008810/19/2017 16:003.0010/19/2017 16:0065.910/19/2017 16:0023.010/19/2017 16:0031.410/19/2017 16:003.710/19/2017 16:000.0
10/19/2017 17:0028.510/19/2017 17:00991.810/19/2017 17:008010/19/2017 17:007710/19/2017 17:002.6010/19/2017 17:0070.010/19/2017 17:0022.610/19/2017 17:0030.610/19/2017 17:004.110/19/2017 17:000.0
10/19/2017 18:0027.010/19/2017 18:00992.110/19/2017 18:00910/19/2017 18:007410/19/2017 18:002.3010/19/2017 18:0074.810/19/2017 18:0022.210/19/2017 18:0029.510/19/2017 18:004.110/19/2017 18:000.0
10/19/2017 19:0025.710/19/2017 19:00992.810/19/2017 19:00010/19/2017 19:007110/19/2017 19:001.9010/19/2017 19:0080.610/19/2017 19:0022.210/19/2017 19:0028.210/19/2017 19:004.210/19/2017 19:000.0
10/19/2017 20:0024.810/19/2017 20:00993.810/19/2017 20:00010/19/2017 20:007410/19/2017 20:001.8010/19/2017 20:0083.710/19/2017 20:0021.910/19/2017 20:0027.410/19/2017 20:004.710/19/2017 20:000.0
10/19/2017 21:0024.010/19/2017 21:00994.910/19/2017 21:00010/19/2017 21:008610/19/2017 21:002.0010/19/2017 21:0085.910/19/2017 21:0021.610/19/2017 21:0026.610/19/2017 21:004.710/19/2017 21:000.0
10/19/2017 22:0023.510/19/2017 22:00995.610/19/2017 22:00010/19/2017 22:008010/19/2017 22:001.1010/19/2017 22:0087.410/19/2017 22:0021.410/19/2017 22:0026.110/19/2017 22:004.810/19/2017 22:000.0
10/19/2017 23:0023.210/19/2017 23:00996.010/19/2017 23:00010/19/2017 23:009610/19/2017 23:000.7010/19/2017 23:0089.010/19/2017 23:0021.410/19/2017 23:0025.710/19/2017 23:005.010/19/2017 23:000.0
10/20/2017 0:0022.910/20/2017 0:00996.110/20/2017 0:00010/20/2017 0:0011510/20/2017 0:001.1010/20/2017 0:0090.510/20/2017 0:0021.310/20/2017 0:0025.610/20/2017 0:005.310/20/2017 0:000.0
10/20/2017 1:0022.510/20/2017 1:00995.710/20/2017 1:00010/20/2017 1:009910/20/2017 1:000.8010/20/2017 1:0091.710/20/2017 1:0021.210/20/2017 1:0025.210/20/2017 1:005.110/20/2017 1:000.0
10/20/2017 2:0022.210/20/2017 2:00995.110/20/2017 2:00010/20/2017 2:0010510/20/2017 2:000.8010/20/2017 2:0093.310/20/2017 2:0021.110/20/2017 2:0025.010/20/2017 2:005.310/20/2017 2:000.0
10/20/2017 3:0021.910/20/2017 3:00994.910/20/2017 3:00010/20/2017 3:0031110/20/2017 3:000.4010/20/2017 3:0094.010/20/2017 3:0021.010/20/2017 3:0024.510/20/2017 3:005.510/20/2017 3:000.0
10/20/2017 4:0021.710/20/2017 4:00995.010/20/2017 4:00010/20/2017 4:00110/20/2017 4:000.5010/20/2017 4:0094.710/20/2017 4:0020.910/20/2017 4:0024.610/20/2017 4:005.710/20/2017 4:000.0
10/20/2017 5:0021.510/20/2017 5:00995.210/20/2017 5:00010/20/2017 5:005510/20/2017 5:000.8010/20/2017 5:0095.910/20/2017 5:0020.910/20/2017 5:0024.210/20/2017 5:005.710/20/2017 5:000.0
10/20/2017 6:0021.310/20/2017 6:00995.110/20/2017 6:00010/20/2017 6:006010/20/2017 6:001.7010/20/2017 6:0095.910/20/2017 6:0020.710/20/2017 6:0024.010/20/2017 6:005.910/20/2017 6:000.0
10/20/2017 7:0022.310/20/2017 7:00995.410/20/2017 7:008810/20/2017 7:006410/20/2017 7:001.8010/20/2017 7:0093.010/20/2017 7:0021.210/20/2017 7:0024.310/20/2017 7:005.910/20/2017 7:000.0
10/20/2017 8:0024.510/20/2017 8:00995.910/20/2017 8:0032010/20/2017 8:006210/20/2017 8:002.2010/20/2017 8:0085.510/20/2017 8:0022.010/20/2017 8:0026.110/20/2017 8:006.710/20/2017 8:000.0
10/20/2017 9:0026.510/20/2017 9:00996.510/20/2017 9:0055710/20/2017 9:004810/20/2017 9:002.1010/20/2017 9:0074.610/20/2017 9:0021.710/20/2017 9:0027.810/20/2017 9:007.010/20/2017 9:000.0
10/20/2017 10:0028.010/20/2017 10:00996.710/20/2017 10:0075710/20/2017 10:003510/20/2017 10:002.4010/20/2017 10:0064.810/20/2017 10:0020.810/20/2017 10:0029.010/20/2017 10:007.110/20/2017 10:000.0
10/20/2017 11:0029.410/20/2017 11:00996.110/20/2017 11:0079310/20/2017 11:002510/20/2017 11:002.1010/20/2017 11:0059.510/20/2017 11:0020.810/20/2017 11:0030.210/20/2017 11:007.310/20/2017 11:000.0
10/20/2017 12:0030.110/20/2017 12:00995.010/20/2017 12:0092510/20/2017 12:006710/20/2017 12:002.5010/20/2017 12:0056.910/20/2017 12:0020.710/20/2017 12:0030.910/20/2017 12:007.410/20/2017 12:000.0
10/20/2017 13:0030.710/20/2017 13:00993.910/20/2017 13:0088810/20/2017 13:006010/20/2017 13:002.5010/20/2017 13:0055.810/20/2017 13:0020.910/20/2017 13:0031.410/20/2017 13:007.710/20/2017 13:000.0
10/20/2017 14:0031.210/20/2017 14:00992.810/20/2017 14:0075510/20/2017 14:007710/20/2017 14:002.1010/20/2017 14:0054.810/20/2017 14:0021.110/20/2017 14:0031.810/20/2017 14:008.110/20/2017 14:000.0
10/20/2017 15:0031.810/20/2017 15:00992.010/20/2017 15:0058710/20/2017 15:006710/20/2017 15:002.0010/20/2017 15:0052.410/20/2017 15:0020.910/20/2017 15:0032.210/20/2017 15:008.810/20/2017 15:000.0
10/20/2017 16:0031.810/20/2017 16:00991.610/20/2017 16:0038110/20/2017 16:007810/20/2017 16:001.5010/20/2017 16:0052.810/20/2017 16:0021.110/20/2017 16:0032.210/20/2017 16:009.510/20/2017 16:000.0
10/20/2017 17:0031.810/20/2017 17:00991.510/20/2017 17:0017410/20/2017 17:0011810/20/2017 17:001.4010/20/2017 17:0054.310/20/2017 17:0021.510/20/2017 17:0032.110/20/2017 17:0010.010/20/2017 17:000.0
10/20/2017 18:0029.610/20/2017 18:00991.910/20/2017 18:001610/20/2017 18:0011710/20/2017 18:001.7010/20/2017 18:0064.110/20/2017 18:0022.210/20/2017 18:0031.510/20/2017 18:009.910/20/2017 18:000.0
10/20/2017 19:0027.810/20/2017 19:00992.210/20/2017 19:00010/20/2017 19:0011610/20/2017 19:001.4010/20/2017 19:0074.110/20/2017 19:0022.810/20/2017 19:0030.710/20/2017 19:009.710/20/2017 19:000.0
10/20/2017 20:0026.810/20/2017 20:00993.110/20/2017 20:00010/20/2017 20:0013710/20/2017 20:000.7010/20/2017 20:0080.710/20/2017 20:0023.310/20/2017 20:0029.810/20/2017 20:009.810/20/2017 20:000.0
10/20/2017 21:0026.410/20/2017 21:00994.010/20/2017 21:00010/20/2017 21:007910/20/2017 21:001.5010/20/2017 21:0083.710/20/2017 21:0023.510/20/2017 21:0029.410/20/2017 21:0010.310/20/2017 21:000.0
10/20/2017 22:0026.010/20/2017 22:00994.610/20/2017 22:00010/20/2017 22:009110/20/2017 22:001.5010/20/2017 22:0079.410/20/2017 22:0022.210/20/2017 22:0028.810/20/2017 22:0010.310/20/2017 22:000.0
10/20/2017 23:0025.310/20/2017 23:00994.810/20/2017 23:00010/20/2017 23:0010810/20/2017 23:000.8010/20/2017 23:0081.510/20/2017 23:0022.010/20/2017 23:0028.110/20/2017 23:0010.310/20/2017 23:000.0
10/21/2017 0:0024.610/21/2017 0:00994.810/21/2017 0:00010/21/2017 0:009610/21/2017 0:001.2010/21/2017 0:0085.510/21/2017 0:0022.110/21/2017 0:0027.310/21/2017 0:0010.810/21/2017 0:000.0
10/21/2017 1:0022.810/21/2017 1:00994.910/21/2017 1:001010/21/2017 1:0035610/21/2017 1:000.7010/21/2017 1:0094.610/21/2017 1:0022.010/21/2017 1:0025.610/21/2017 1:0042.410/21/2017 1:000.0
10/21/2017 2:0022.610/21/2017 2:00994.710/21/2017 2:001010/21/2017 2:0032110/21/2017 2:000.5010/21/2017 2:0094.810/21/2017 2:0021.810/21/2017 2:0025.310/21/2017 2:0042.610/21/2017 2:000.0
10/21/2017 3:0022.210/21/2017 3:00994.610/21/2017 3:001110/21/2017 3:0033910/21/2017 3:000.6010/21/2017 3:0096.410/21/2017 3:0021.710/21/2017 3:0024.810/21/2017 3:0042.410/21/2017 3:000.0
10/21/2017 4:0022.910/21/2017 4:00994.410/21/2017 4:00010/21/2017 4:0012610/21/2017 4:001.3010/21/2017 4:0091.510/21/2017 4:0021.510/21/2017 4:0025.410/21/2017 4:0011.210/21/2017 4:000.0
10/21/2017 5:0022.810/21/2017 5:00994.310/21/2017 5:00010/21/2017 5:0011610/21/2017 5:001.4010/21/2017 5:0092.410/21/2017 5:0021.610/21/2017 5:0025.310/21/2017 5:0011.510/21/2017 5:000.0
10/21/2017 6:0022.710/21/2017 6:00994.410/21/2017 6:00010/21/2017 6:0010410/21/2017 6:001.3010/21/2017 6:0092.410/21/2017 6:0021.510/21/2017 6:0025.210/21/2017 6:0011.610/21/2017 6:000.0
10/21/2017 7:0022.910/21/2017 7:00994.910/21/2017 7:005610/21/2017 7:0010010/21/2017 7:001.6010/21/2017 7:0091.310/21/2017 7:0021.510/21/2017 7:0025.310/21/2017 7:0011.710/21/2017 7:000.0
10/21/2017 8:0024.110/21/2017 8:00995.410/21/2017 8:0019510/21/2017 8:0010410/21/2017 8:002.3010/21/2017 8:0087.110/21/2017 8:0021.910/21/2017 8:0026.210/21/2017 8:0011.910/21/2017 8:000.0
10/21/2017 9:0026.310/21/2017 9:00995.710/21/2017 9:0050310/21/2017 9:007810/21/2017 9:003.0010/21/2017 9:0077.210/21/2017 9:0022.110/21/2017 9:0028.010/21/2017 9:0012.210/21/2017 9:000.0
10/21/2017 10:0028.110/21/2017 10:00995.710/21/2017 10:0073610/21/2017 10:006510/21/2017 10:003.4010/21/2017 10:0068.310/21/2017 10:0021.810/21/2017 10:0029.410/21/2017 10:0013.010/21/2017 10:000.0
10/21/2017 11:0029.110/21/2017 11:00995.210/21/2017 11:0085310/21/2017 11:004210/21/2017 11:003.1010/21/2017 11:0064.210/21/2017 11:0021.710/21/2017 11:0030.310/21/2017 11:0013.010/21/2017 11:000.0
10/21/2017 12:0030.010/21/2017 12:00994.010/21/2017 12:0083710/21/2017 12:007310/21/2017 12:002.4010/21/2017 12:0061.910/21/2017 12:0022.010/21/2017 12:0031.010/21/2017 12:0013.410/21/2017 12:000.0
10/21/2017 13:0031.010/21/2017 13:00992.810/21/2017 13:0087710/21/2017 13:007510/21/2017 13:001.8010/21/2017 13:0058.310/21/2017 13:0021.910/21/2017 13:0031.810/21/2017 13:0013.610/21/2017 13:000.0
10/21/2017 14:0031.810/21/2017 14:00991.810/21/2017 14:0056110/21/2017 14:0033710/21/2017 14:001.3010/21/2017 14:0055.410/21/2017 14:0021.810/21/2017 14:0032.310/21/2017 14:0014.110/21/2017 14:000.0
10/21/2017 15:0031.910/21/2017 15:00991.010/21/2017 15:0041510/21/2017 15:009010/21/2017 15:001.6010/21/2017 15:0055.510/21/2017 15:0022.010/21/2017 15:0032.310/21/2017 15:0012.610/21/2017 15:000.0
10/21/2017 16:0029.510/21/2017 16:00990.810/21/2017 16:006410/21/2017 16:0011110/21/2017 16:001.4010/21/2017 16:0067.310/21/2017 16:0022.910/21/2017 16:0031.610/21/2017 16:007.710/21/2017 16:000.0
10/21/2017 17:0028.410/21/2017 17:00991.110/21/2017 17:001110/21/2017 17:0030710/21/2017 17:000.5010/21/2017 17:0074.910/21/2017 17:0023.610/21/2017 17:0030.910/21/2017 17:007.110/21/2017 17:000.7
10/21/2017 18:0027.410/21/2017 18:00991.410/21/2017 18:00410/21/2017 18:006210/21/2017 18:002.0010/21/2017 18:0078.810/21/2017 18:0023.510/21/2017 18:0030.510/21/2017 18:006.910/21/2017 18:000.0
10/21/2017 19:0026.510/21/2017 19:00992.010/21/2017 19:00010/21/2017 19:007310/21/2017 19:002.1010/21/2017 19:0076.610/21/2017 19:0022.110/21/2017 19:0029.110/21/2017 19:007.710/21/2017 19:000.0
10/21/2017 20:0025.610/21/2017 20:00992.610/21/2017 20:00010/21/2017 20:007210/21/2017 20:003.1010/21/2017 20:0077.710/21/2017 20:0021.510/21/2017 20:0028.210/21/2017 20:007.810/21/2017 20:000.0
10/21/2017 21:0025.110/21/2017 21:00993.410/21/2017 21:00010/21/2017 21:007910/21/2017 21:003.5010/21/2017 21:0079.110/21/2017 21:0021.310/21/2017 21:0027.610/21/2017 21:008.110/21/2017 21:000.0
10/21/2017 22:0024.510/21/2017 22:00994.310/21/2017 22:00010/21/2017 22:003610/21/2017 22:001.6010/21/2017 22:0080.510/21/2017 22:0021.010/21/2017 22:0027.010/21/2017 22:008.310/21/2017 22:000.0
10/21/2017 23:0023.910/21/2017 23:00994.810/21/2017 23:00010/21/2017 23:006110/21/2017 23:001.2010/21/2017 23:0083.810/21/2017 23:0021.110/21/2017 23:0026.510/21/2017 23:008.410/21/2017 23:000.0
10/22/2017 0:0023.610/22/2017 0:00994.710/22/2017 0:00010/22/2017 0:00210/22/2017 0:000.8010/22/2017 0:0085.210/22/2017 0:0021.010/22/2017 0:0026.210/22/2017 0:008.710/22/2017 0:000.0
10/22/2017 1:0023.210/22/2017 1:00994.510/22/2017 1:00010/22/2017 1:002610/22/2017 1:001.6010/22/2017 1:0087.210/22/2017 1:0021.010/22/2017 1:0025.810/22/2017 1:008.910/22/2017 1:000.0
10/22/2017 2:0023.010/22/2017 2:00994.010/22/2017 2:00010/22/2017 2:004110/22/2017 2:001.3010/22/2017 2:0087.910/22/2017 2:0021.010/22/2017 2:0025.610/22/2017 2:008.810/22/2017 2:000.0
10/22/2017 3:0022.610/22/2017 3:00993.610/22/2017 3:00010/22/2017 3:006910/22/2017 3:000.9010/22/2017 3:0089.310/22/2017 3:0020.810/22/2017 3:0025.410/22/2017 3:008.910/22/2017 3:000.0
10/22/2017 4:0022.110/22/2017 4:00993.510/22/2017 4:00010/22/2017 4:0011010/22/2017 4:001.5010/22/2017 4:0091.710/22/2017 4:0020.810/22/2017 4:0024.810/22/2017 4:009.210/22/2017 4:000.0
10/22/2017 5:0021.810/22/2017 5:00993.510/22/2017 5:00010/22/2017 5:0013310/22/2017 5:001.6010/22/2017 5:0093.710/22/2017 5:0020.810/22/2017 5:0024.410/22/2017 5:009.310/22/2017 5:000.0
10/22/2017 6:0021.610/22/2017 6:00993.710/22/2017 6:00010/22/2017 6:0013210/22/2017 6:001.6010/22/2017 6:0094.610/22/2017 6:0020.810/22/2017 6:0024.210/22/2017 6:009.510/22/2017 6:000.0
10/22/2017 7:0022.710/22/2017 7:00994.110/22/2017 7:008210/22/2017 7:0013610/22/2017 7:001.4010/22/2017 7:0093.410/22/2017 7:0021.710/22/2017 7:0024.610/22/2017 7:009.310/22/2017 7:000.0
10/22/2017 8:0025.410/22/2017 8:00994.610/22/2017 8:0031010/22/2017 8:0012310/22/2017 8:001.4010/22/2017 8:0083.910/22/2017 8:0022.610/22/2017 8:0026.210/22/2017 8:0010.010/22/2017 8:000.0
10/22/2017 9:0026.810/22/2017 9:00994.810/22/2017 9:0054610/22/2017 9:009410/22/2017 9:002.1010/22/2017 9:0075.610/22/2017 9:0022.210/22/2017 9:0027.810/22/2017 9:0010.610/22/2017 9:000.0
10/22/2017 10:0028.010/22/2017 10:00994.910/22/2017 10:0073510/22/2017 10:007410/22/2017 10:002.3010/22/2017 10:0069.210/22/2017 10:0021.910/22/2017 10:0029.110/22/2017 10:0010.810/22/2017 10:000.0
11/29/2017 5:0020.111/29/2017 5:00995.311/29/2017 5:00011/29/2017 5:005511/29/2017 5:001.0011/29/2017 5:0085.011/29/2017 5:0017.611/29/2017 5:0022.311/29/2017 5:0072.611/29/2017 5:000.0
11/29/2017 6:0019.711/29/2017 6:00995.311/29/2017 6:00011/29/2017 6:006111/29/2017 6:001.5011/29/2017 6:0086.911/29/2017 6:0017.511/29/2017 6:0021.911/29/2017 6:0072.811/29/2017 6:000.0
11/29/2017 7:0019.911/29/2017 7:00995.911/29/2017 7:003311/29/2017 7:008811/29/2017 7:000.8011/29/2017 7:0087.011/29/2017 7:0017.711/29/2017 7:0022.111/29/2017 7:0072.711/29/2017 7:000.0
11/29/2017 8:0022.811/29/2017 8:00996.411/29/2017 8:0026011/29/2017 8:006911/29/2017 8:002.6011/29/2017 8:0078.511/29/2017 8:0018.911/29/2017 8:0024.511/29/2017 8:0072.611/29/2017 8:000.0
11/29/2017 9:0025.411/29/2017 9:00996.711/29/2017 9:0042211/29/2017 9:005511/29/2017 9:003.2011/29/2017 9:0067.711/29/2017 9:0019.111/29/2017 9:0026.711/29/2017 9:0073.811/29/2017 9:000.0
11/29/2017 10:0026.711/29/2017 10:00996.811/29/2017 10:0062611/29/2017 10:007711/29/2017 10:003.5011/29/2017 10:0063.311/29/2017 10:0019.211/29/2017 10:0027.811/29/2017 10:0073.911/29/2017 10:000.0
11/29/2017 11:0028.111/29/2017 11:00996.411/29/2017 11:0075411/29/2017 11:007411/29/2017 11:003.7011/29/2017 11:0059.311/29/2017 11:0019.511/29/2017 11:0029.211/29/2017 11:0074.111/29/2017 11:000.0
11/29/2017 12:0028.911/29/2017 12:00995.411/29/2017 12:0080611/29/2017 12:006411/29/2017 12:004.4011/29/2017 12:0057.811/29/2017 12:0019.811/29/2017 12:0030.111/29/2017 12:0074.211/29/2017 12:000.0
11/29/2017 13:0029.711/29/2017 13:00994.411/29/2017 13:0066911/29/2017 13:006411/29/2017 13:005.0011/29/2017 13:0056.011/29/2017 13:0020.111/29/2017 13:0030.811/29/2017 13:0074.811/29/2017 13:000.0
11/29/2017 14:0030.211/29/2017 14:00993.311/29/2017 14:0058411/29/2017 14:006811/29/2017 14:005.2011/29/2017 14:0054.011/29/2017 14:0019.911/29/2017 14:0031.511/29/2017 14:0075.311/29/2017 14:000.0
11/29/2017 15:0030.311/29/2017 15:00992.911/29/2017 15:0043411/29/2017 15:006211/29/2017 15:004.9011/29/2017 15:0052.711/29/2017 15:0019.611/29/2017 15:0031.511/29/2017 15:0075.911/29/2017 15:000.0
11/29/2017 16:0030.111/29/2017 16:00992.811/29/2017 16:0028811/29/2017 16:007511/29/2017 16:005.2011/29/2017 16:0052.711/29/2017 16:0019.511/29/2017 16:0031.311/29/2017 16:0076.811/29/2017 16:000.0
11/29/2017 17:0028.911/29/2017 17:00993.211/29/2017 17:0011711/29/2017 17:006711/29/2017 17:004.4011/29/2017 17:0056.011/29/2017 17:0019.311/29/2017 17:0030.411/29/2017 17:0076.911/29/2017 17:000.0
11/29/2017 18:0027.111/29/2017 18:00993.711/29/2017 18:00611/29/2017 18:007611/29/2017 18:003.1011/29/2017 18:0062.611/29/2017 18:0019.411/29/2017 18:0029.111/29/2017 18:0077.511/29/2017 18:000.0
11/29/2017 19:0025.411/29/2017 19:00994.411/29/2017 19:00011/29/2017 19:006711/29/2017 19:002.5011/29/2017 19:0069.011/29/2017 19:0019.411/29/2017 19:0027.611/29/2017 19:0077.311/29/2017 19:000.0
11/29/2017 20:0024.111/29/2017 20:00995.311/29/2017 20:00011/29/2017 20:006811/29/2017 20:001.9011/29/2017 20:0073.911/29/2017 20:0019.211/29/2017 20:0026.311/29/2017 20:0077.211/29/2017 20:000.0
11/29/2017 21:0023.111/29/2017 21:00995.911/29/2017 21:00011/29/2017 21:009911/29/2017 21:000.9011/29/2017 21:0078.411/29/2017 21:0019.211/29/2017 21:0025.411/29/2017 21:0077.311/29/2017 21:000.0
11/29/2017 22:0022.411/29/2017 22:00996.111/29/2017 22:00011/29/2017 22:008111/29/2017 22:001.4011/29/2017 22:0082.111/29/2017 22:0019.311/29/2017 22:0024.711/29/2017 22:0077.411/29/2017 22:000.0
11/29/2017 23:0021.911/29/2017 23:00995.611/29/2017 23:00011/29/2017 23:004211/29/2017 23:001.3011/29/2017 23:0084.211/29/2017 23:0019.211/29/2017 23:0024.211/29/2017 23:0077.611/29/2017 23:000.0
11/30/2017 0:0021.311/30/2017 0:00995.411/30/2017 0:00011/30/2017 0:007111/30/2017 0:001.1011/30/2017 0:0086.611/30/2017 0:0019.011/30/2017 0:0023.611/30/2017 0:0077.811/30/2017 0:000.0
11/30/2017 1:0020.811/30/2017 1:00995.211/30/2017 1:00011/30/2017 1:0010011/30/2017 1:001.3011/30/2017 1:0088.811/30/2017 1:0019.011/30/2017 1:0023.311/30/2017 1:0077.711/30/2017 1:000.0
11/30/2017 2:0020.611/30/2017 2:00994.711/30/2017 2:00011/30/2017 2:006711/30/2017 2:001.0011/30/2017 2:0089.911/30/2017 2:0019.011/30/2017 2:0023.011/30/2017 2:0077.811/30/2017 2:000.0
11/30/2017 3:0020.011/30/2017 3:00994.411/30/2017 3:00011/30/2017 3:009511/30/2017 3:001.1011/30/2017 3:0091.611/30/2017 3:0018.711/30/2017 3:0022.711/30/2017 3:0077.911/30/2017 3:000.0
11/30/2017 4:0019.911/30/2017 4:00994.411/30/2017 4:00011/30/2017 4:007211/30/2017 4:001.3011/30/2017 4:0092.911/30/2017 4:0018.811/30/2017 4:0022.611/30/2017 4:0078.111/30/2017 4:000.0